[[{"header":{"parameterUnit":"m.s-1","parameterCategory":1,"la1":31.0,"la2":29.5877,"lo1":-88.7671,"lo2":-86.6584,"dy":0.0162,"dx":0.0185,"nx":115,"ny":88,"refTime":"2026-05-05T12:00:00:Z","depth":0,"parameterNumber":2,"parameterNumberName":"U-component_of_WINDS"},"data":[0.0,0.0,0.0,0.0,0.0,0.0,0.0,0.0,0.0,0.0,0.0,0.0,0.0,0.0,0.0,0.0,0.0,0.0,0.0,0.0,0.0,0.0,0.0,0.0,0.0,0.0,0.0,0.0,0.0,0.0,0.0,0.0,0.0,0.0,0.0,0.0,0.0,0.0,0.0,0.0,0.0,0.0,0.0,0.0,0.0,0.0,0.0,0.0,0.0,0.0,0.0,0.0,0.0,0.0,0.0,0.0,0.0,0.0,0.0,0.0,0.0,0.0,0.0,0.0,0.0,0.0,0.0,0.0,0.0,0.0,0.0,0.0,0.0,0.0,0.0,0.0,0.0,0.0,0.0,0.0,0.0,0.0,0.0,0.0,0.0,0.0,0.0,0.0,0.0,0.0,0.0,0.0,0.0,0.0,0.0,0.0,0.0,0.0,0.0,0.0,0.0,0.0,0.0,0.0,0.0,0.0,0.0,0.0,0.0,0.0,0.0,0.0,0.0,0.0,0.0,0.0,0.0,0.0,0.0,0.0,0.0,0.0,0.0,0.0,0.0,0.0,0.0,0.0,0.0,0.0,0.0,0.0,0.0,0.0,0.0,0.0,0.0,0.0,0.0,0.0,0.0,0.0,0.0,0.0,0.0,0.0,0.0,0.0,0.0,0.0,0.0,0.0,0.0,0.0,0.0,0.0,0.0,0.0,0.0,0.0,0.0,0.0,0.0,0.0,0.0,0.0,0.0,0.0,0.0,0.0,0.0,0.0,0.0,0.0,0.0,0.0,0.0,0.0,0.0,0.0,0.0,0.0,0.0,0.0,0.0,0.0,0.0,0.0,0.0,0.0,0.0,0.0,0.0,0.0,0.0,0.0,0.0,0.0,0.0,0.0,0.0,0.0,0.0,0.0,0.0,0.0,0.0,0.0,0.0,0.0,0.0,0.0,0.0,0.0,0.0,0.0,0.0,0.0,0.0,0.0,0.0,0.0,0.0,0.0,0.0,0.0,0.0,0.0,0.0,0.0,0.0,0.0,0.0,0.0,0.0,0.0,0.0,0.0,0.0,0.0,0.0,0.0,0.0,0.0,0.0,0.0,0.0,0.0,0.0,0.0,0.0,0.0,0.0,0.0,0.0,0.0,0.0,0.0,0.0,0.0,0.0,0.0,0.0,0.0,0.0,0.0,0.0,0.0,0.0,0.0,0.0,0.0,0.0,0.0,0.0,0.0,0.0,0.0,0.0,0.0,0.0,0.0,0.0,0.0,0.0,0.0,0.0,0.0,0.0,0.0,0.0,0.0,0.0,0.0,0.0,0.0,0.0,0.0,0.0,0.0,0.0,0.0,0.0,0.0,0.0,0.0,0.0,0.0,0.0,0.0,0.0,0.0,0.0,0.0,0.0,0.0,0.0,0.0,0.0,0.0,0.0,0.0,0.0,0.0,0.0,0.0,0.0,0.0,0.0,0.0,0.0,0.0,0.0,0.0,0.0,0.0,0.0,0.0,0.0,0.0,0.0,0.0,0.0,0.0,0.0,0.0,0.0,0.0,0.0,0.0,0.0,0.0,0.0,0.0,0.0,0.0,0.0,0.0,0.0,0.0,0.0,0.0,0.0,0.0,0.0,0.0,0.0,0.0,0.0,0.0,0.0,0.0,0.0,0.0,0.0,0.0,0.0,0.0,0.0,0.0,0.0,0.0,0.0,0.0,0.0,0.0,0.0,0.0,0.0,0.0,0.0,0.0,0.0,0.0,0.0,0.0,0.0,0.0,0.0,0.0,0.0,0.0,0.0,0.0,0.0,0.0,0.0,0.0,0.0,0.0,0.0,0.0,0.0,0.0,0.0,0.0,0.0,0.0,0.0,0.0,0.0,0.0,0.0,0.0,0.0,0.0,0.0,0.0,0.0,0.0,0.0,0.0,0.0,0.0,0.0,0.0,0.0,0.0,0.0,0.0,0.0,0.0,0.0,0.0,0.0,0.0,0.0,0.0,0.0,0.0,0.0,0.0,0.0,0.0,0.0,0.0,0.0,0.0,0.0,0.0,0.0,0.0,0.0,0.0,0.0,0.0,0.0,0.0,0.0,0.0,0.0,0.0,0.0,0.0,0.0,0.0,0.0,0.0,0.0,0.0,0.0,0.0,0.0,0.0,0.0,0.0,0.0,0.0,0.0,0.0,0.0,0.0,0.0,0.0,0.0,0.0,0.0,0.0,0.0,0.0,0.0,0.0,0.0,0.0,0.0,0.0,0.0,0.0,0.0,0.0,0.0,0.0,0.0,0.0,0.0,0.0,0.0,0.0,0.0,0.0,0.0,0.0,0.0,0.0,0.0,0.0,0.0,0.0,0.0,0.0,0.0,0.0,0.0,0.0,0.0,0.0,0.0,0.0,0.0,0.0,0.0,0.0,0.0,0.0,0.0,0.0,0.0,0.0,0.0,0.0,0.0,0.0,0.0,0.0,0.0,0.0,0.0,0.0,0.0,0.0,0.0,0.0,0.0,0.0,0.0,0.0,0.0,0.0,0.0,0.0,0.0,0.0,0.0,0.0,0.0,0.0,0.0,0.0,0.0,0.0,0.0,0.0,0.0,0.0,0.0,0.0,0.0,0.0,0.0,0.0,0.0,0.0,0.0,0.0,0.0,0.0,0.0,0.0,0.0,0.0,0.0,0.0,0.0,0.0,0.0,0.0,0.0,0.0,0.0,0.0,0.0,0.0,0.0,0.0,0.0,0.0,0.0,0.0,0.0,0.0,0.0,0.0,0.0,0.0,0.0,0.0,0.0,0.0,0.0,0.0,0.0,0.0,0.0,0.0,0.0,0.0,0.0,0.0,0.0,0.0,0.0,0.0,0.0,0.0,0.0,0.0,0.0,0.0,0.0,0.0,0.0,0.0,0.0,0.0,0.0,0.0,0.0,0.0,0.0,0.0,0.0,0.0,0.0,0.0,0.0,0.0,0.0,0.0,0.0,0.0,0.0,0.0,0.0,0.0,0.0,0.0,0.0,0.0,0.0,0.0,0.0,0.0,0.0,0.0,0.0,0.0,0.0,0.0,0.0,0.0,0.0,0.0,0.0,0.0,0.0,0.0,0.0,0.0,0.0,0.0,0.0,0.0,0.0,0.0,0.0,0.0,0.0,0.0,0.0,0.0,0.0,0.0,0.0,0.0,0.0,0.0,0.0,0.0,0.0,0.0,0.0,0.0,0.0,0.0,0.0,0.0,0.0,0.0,0.0,0.0,0.0,0.0,0.0,0.0,0.0,0.0,0.0,0.0,0.0,0.0,0.0,0.0,0.0,0.0,0.0,0.0,0.0,0.0,0.0,0.0,0.0,0.0,0.0,0.0,0.0,0.0,0.0,0.0,0.0,0.0,0.0,0.0,0.0,0.0,0.0,0.0,0.0,0.0,0.0,0.0,0.0,0.0,0.0,0.0,0.0,0.0,0.0,0.0,0.0,0.0,0.0,0.0,0.0,0.0,0.0,0.0,0.0,0.0,0.0,0.0,0.0,0.0,0.0,0.0,0.0,0.0,0.0,0.0,0.0,0.0,0.0,0.0,0.0,0.0,0.0,0.0,0.0,0.0,0.0,0.0,0.0,0.0,0.0,0.0,0.0,0.0,0.0,0.0,0.0,0.0,0.0,0.0,0.0,0.0,0.0,0.0,0.0,0.0,0.0,0.0,0.0,0.0,0.0,0.0,0.0,0.0,0.0,0.0,0.0,0.0,0.0,0.0,0.0,0.0,0.0,0.0,0.0,0.0,0.0,0.0,0.0,0.0,0.0,0.0,0.0,0.0,0.0,0.0,0.0,0.0,0.0,0.0,0.0,0.0,0.0,0.0,0.0,0.0,0.0,0.0,0.0,0.0,0.0,0.0,0.0,0.0,0.0,0.0,0.0,0.0,0.0,0.0,0.0,0.0,0.0,0.0,0.0,0.0,0.0,0.0,0.0,0.0,0.0,0.0,0.0,0.0,0.0,0.0,0.0,0.0,0.0,0.0,0.0,0.0,0.0,0.0,0.0,0.0,0.0,0.0,0.0,0.0,0.0,0.0,0.0,0.0,0.0,0.0,0.0,0.0,0.0,0.0,0.0,0.0,0.0,0.0,0.0,0.0,0.0,0.0,0.0,0.0,0.0,0.0,0.0,0.0,0.0,0.0,0.0,0.0,0.0,0.0,0.0,0.0,0.0,0.0,0.0,0.0,0.0,0.0,0.0,0.0,0.0,0.0,0.0,0.0,0.0,0.0,0.0,0.0,0.0,0.0,0.0,0.0,0.0,0.0,-0.8761,0.0,0.0,0.0,0.0,0.0,0.0,0.0,0.0,0.0,0.0,0.0,0.0,0.0,0.0,0.0,0.0,0.0,0.0,0.0,0.0,0.0,0.0,0.0,0.0,0.0,0.0,0.0,0.0,0.0,0.0,0.0,0.0,0.0,0.0,0.0,0.0,0.0,0.0,0.0,0.0,0.0,0.0,0.0,0.0,0.0,0.0,0.0,0.0,0.0,0.0,0.0,0.0,0.0,0.0,0.0,0.0,0.0,0.0,0.0,0.0,0.0,0.0,0.0,0.0,0.0,0.0,0.0,0.0,0.0,0.0,0.0,0.0,0.0,0.0,0.0,0.0,0.0,0.0,0.0,0.0,0.0,0.0,0.0,0.0,0.0,0.0,0.0,0.0,0.0,0.0,0.0,0.0,0.0,0.0,0.0,0.0,0.0,0.0,0.0,0.0,0.0,0.0,0.0,0.0,0.0,0.0,0.0,0.0,0.0,0.0,-0.9062,-0.9862,-0.876,-0.835,-0.879,0.0,0.0,0.0,0.0,0.0,0.0,0.0,0.0,0.0,0.0,0.0,0.0,0.0,0.0,0.0,0.0,0.0,0.0,0.0,0.0,0.0,0.0,0.0,0.0,0.0,0.0,0.0,0.0,0.0,0.0,0.0,0.0,0.0,0.0,0.0,0.0,0.0,0.0,0.0,0.0,0.0,0.0,0.0,0.0,0.0,0.0,0.0,0.0,0.0,0.0,0.0,0.0,0.0,0.0,0.0,0.0,0.0,0.0,0.0,0.0,0.0,0.0,0.0,0.0,0.0,0.0,0.0,0.0,0.0,0.0,0.0,0.0,0.0,0.0,0.0,0.0,0.0,0.0,0.0,0.0,0.0,0.0,0.0,0.0,0.0,0.0,0.0,0.0,0.0,0.0,0.0,0.0,0.0,0.0,0.0,0.0,0.0,0.0,0.0,0.0,0.0,0.0,0.0,0.0,0.0,0.0,0.0,0.0,0.0,0.0,0.0,0.0,-0.9977,-0.9216,-0.9109,0.0,0.0,0.0,0.0,0.0,0.0,0.0,0.0,0.0,0.0,0.0,0.0,0.0,0.0,0.0,0.0,0.0,0.0,0.0,0.0,0.0,0.0,0.0,0.0,0.0,0.0,0.0,0.0,0.0,0.0,0.0,0.0,0.0,0.0,0.0,0.0,0.0,0.0,0.0,0.0,0.0,0.0,0.0,0.0,0.0,0.0,0.0,0.0,0.0,0.0,0.0,0.0,0.0,0.0,0.0,0.0,0.0,0.0,0.0,0.0,0.0,0.0,0.0,0.0,0.0,0.0,0.0,0.0,0.0,0.0,0.0,0.0,0.0,0.0,0.0,0.0,0.0,0.0,0.0,0.0,0.0,0.0,0.0,0.0,0.0,0.0,0.0,0.0,0.0,0.0,0.0,0.0,0.0,0.0,0.0,0.0,0.0,0.0,0.0,0.0,0.0,0.0,0.0,0.0,0.0,0.0,0.0,0.0,0.0,0.0,-1.1401,-1.2215,-1.1434,0.0,-1.0054,0.0,0.0,0.0,0.0,0.0,0.0,0.0,0.0,0.0,0.0,0.0,0.0,0.0,0.0,0.0,0.0,0.0,0.0,0.0,0.0,0.0,0.0,0.0,0.0,0.0,0.0,0.0,0.0,0.0,0.0,0.0,0.0,0.0,0.0,0.0,0.0,0.0,0.0,0.0,0.0,0.0,0.0,0.0,0.0,0.0,0.0,0.0,0.0,0.0,0.0,0.0,0.0,0.0,0.0,0.0,0.0,0.0,0.0,0.0,0.0,0.0,0.0,0.0,0.0,0.0,0.0,0.0,0.0,0.0,0.0,0.0,0.0,0.0,0.0,0.0,0.0,0.0,0.0,0.0,0.0,0.0,0.0,0.0,0.0,0.0,0.0,0.0,0.0,0.0,0.0,0.0,0.0,0.0,0.0,0.0,0.0,0.0,0.0,0.0,0.0,0.0,0.0,0.0,0.0,0.0,0.0,0.0,0.0,0.0,0.0,-1.1763,-1.3146,-1.2424,-1.164,0.0,0.0,0.0,0.0,0.0,0.0,0.0,0.0,0.0,0.0,0.0,0.0,0.0,0.0,0.0,0.0,0.0,0.0,0.0,0.0,0.0,0.0,0.0,0.0,0.0,0.0,0.0,0.0,0.0,0.0,0.0,0.0,0.0,0.0,0.0,0.0,0.0,0.0,0.0,0.0,0.0,0.0,0.0,0.0,0.0,0.0,0.0,0.0,0.0,0.0,0.0,0.0,0.0,0.0,0.0,0.0,0.0,0.0,0.0,0.0,0.0,0.0,0.0,0.0,0.0,0.0,0.0,0.0,0.0,0.0,0.0,0.0,0.0,0.0,0.0,0.0,0.0,0.0,0.0,0.0,0.0,0.0,0.0,0.0,0.0,0.0,0.0,0.0,0.0,0.0,0.0,0.0,0.0,0.0,0.0,0.0,0.0,0.0,0.0,0.0,0.0,0.0,0.0,0.0,0.0,0.0,0.0,0.0,0.0,0.0,-1.0489,-1.2201,-1.3599,-1.2989,-1.2191,-1.1357,0.0,0.0,0.0,0.0,0.0,0.0,0.0,0.0,0.0,0.0,0.0,0.0,0.0,0.0,0.0,0.0,0.0,0.0,0.0,0.0,0.0,0.0,0.0,0.0,0.0,0.0,0.0,0.0,0.0,0.0,0.0,0.0,0.0,0.0,0.0,0.0,0.0,0.0,0.0,0.0,0.0,0.0,0.0,0.0,0.0,0.0,0.0,0.0,0.0,0.0,0.0,0.0,0.0,0.0,0.0,0.0,0.0,0.0,0.0,0.0,0.0,0.0,0.0,0.0,0.0,0.0,0.0,0.0,0.0,0.0,0.0,0.0,0.0,0.0,0.0,0.0,0.0,0.0,0.0,0.0,0.0,0.0,0.0,0.0,0.0,0.0,0.0,0.0,0.0,0.0,0.0,0.0,0.0,0.0,0.0,0.0,0.0,0.0,0.0,0.0,0.0,0.0,0.0,0.0,0.0,0.0,0.0,0.0,-0.8752,-1.1128,-1.2856,-1.3697,-1.3014,-1.2219,0.0,0.0,0.0,0.0,0.0,0.0,0.0,0.0,0.0,0.0,0.0,0.0,0.0,0.0,0.0,0.0,0.0,0.0,0.0,0.0,0.0,0.0,0.0,0.0,0.0,0.0,0.0,0.0,0.0,0.0,0.0,0.0,0.0,0.0,0.0,0.0,0.0,0.0,0.0,0.0,0.0,0.0,0.0,0.0,0.0,0.0,0.0,0.0,0.0,0.0,0.0,0.0,0.0,0.0,0.0,0.0,0.0,0.0,0.0,0.0,0.0,0.0,0.0,0.0,0.0,0.0,0.0,0.0,0.0,0.0,0.0,0.0,0.0,0.0,0.0,0.0,0.0,0.0,0.0,0.0,0.0,0.0,0.0,0.0,0.0,0.0,0.0,0.0,0.0,0.0,0.0,0.0,0.0,0.0,0.0,0.0,0.0,0.0,0.0,0.0,0.0,0.0,0.0,0.0,0.0,0.0,0.0,0.0,0.0,-0.886,-1.1241,-1.2439,-1.2212,-1.245,-1.197,0.0,0.0,0.0,0.0,0.0,0.0,0.0,0.0,0.0,0.0,0.0,0.0,0.0,0.0,0.0,0.0,0.0,0.0,0.0,0.0,0.0,0.0,0.0,0.0,0.0,0.0,0.0,0.0,0.0,0.0,0.0,0.0,0.0,0.0,0.0,0.0,0.0,0.0,0.0,0.0,0.0,0.0,0.0,0.0,0.0,0.0,0.0,0.0,0.0,0.0,0.0,0.0,0.0,0.0,0.0,0.0,0.0,0.0,0.0,0.0,0.0,0.0,0.0,0.0,0.0,0.0,0.0,0.0,0.0,0.0,0.0,0.0,0.0,0.0,0.0,0.0,0.0,0.0,0.0,0.0,0.0,0.0,0.0,0.0,0.0,0.0,0.0,0.0,0.0,0.0,0.0,0.0,0.0,0.0,0.0,0.0,0.0,0.0,0.0,0.0,0.0,0.0,0.0,0.0,0.0,0.0,0.0,0.0,0.0,-1.0443,0.0,-1.2591,-1.1779,-1.2298,-1.1812,0.0,0.0,0.0,0.0,0.0,0.0,0.0,0.0,0.0,0.0,0.0,0.0,0.0,0.0,0.0,0.0,0.0,0.0,0.0,0.0,0.0,0.0,0.0,0.0,0.0,0.0,0.0,0.0,0.0,0.0,0.0,0.0,0.0,0.0,0.0,0.0,0.0,0.0,0.0,0.0,0.0,0.0,0.0,0.0,0.0,0.0,0.0,0.0,0.0,0.0,0.0,0.0,0.0,0.0,0.0,0.0,0.0,0.0,0.0,0.0,0.0,0.0,0.0,0.0,0.0,0.0,0.0,0.0,0.0,0.0,0.0,0.0,0.0,0.0,0.0,0.0,0.0,0.0,0.0,0.0,0.0,0.0,0.0,0.0,0.0,0.0,0.0,0.0,0.0,0.0,0.0,0.0,0.0,0.0,0.0,0.0,0.0,0.0,0.0,0.0,0.0,0.0,0.0,0.0,0.0,0.0,0.0,0.0,-1.204,-1.3674,-1.3783,-1.3451,-1.2636,-1.2616,-1.1815,0.0,0.0,0.0,0.0,0.0,0.0,0.0,0.0,0.0,0.0,0.0,0.0,0.0,0.0,0.0,0.0,0.0,0.0,0.0,0.0,0.0,0.0,0.0,0.0,0.0,0.0,0.0,0.0,0.0,0.0,0.0,0.0,0.0,0.0,0.0,0.0,0.0,0.0,0.0,0.0,0.0,0.0,0.0,0.0,0.0,0.0,0.0,0.0,0.0,0.0,0.0,0.0,0.0,0.0,0.0,0.0,0.0,0.0,0.0,0.0,0.0,0.0,0.0,0.0,0.0,0.0,0.0,0.0,0.0,0.0,0.0,0.0,0.0,0.0,0.0,0.0,0.0,0.0,0.0,0.0,0.0,0.0,0.0,0.0,0.0,0.0,0.0,0.0,0.0,0.0,0.0,0.0,0.0,0.0,0.0,0.0,0.0,0.0,0.0,0.0,0.0,0.0,0.0,0.0,0.0,0.0,0.0,0.0,0.0,-1.4535,-1.5059,-1.4699,-1.3414,-1.2871,-1.1815,0.0,0.0,0.0,0.0,0.0,0.0,0.0,0.0,0.0,0.0,0.0,0.0,0.0,0.0,0.0,0.0,0.0,0.0,0.0,0.0,0.0,0.0,0.0,0.0,0.0,0.0,0.0,0.0,0.0,0.0,0.0,0.0,0.0,0.0,0.0,0.0,0.0,0.0,0.0,0.0,0.0,0.0,0.0,0.0,0.0,0.0,0.0,0.0,0.0,0.0,0.0,0.0,0.0,0.0,0.0,0.0,0.0,0.0,0.0,0.0,0.0,0.0,0.0,0.0,0.0,0.0,0.0,0.0,0.0,0.0,0.0,0.0,0.0,0.0,0.0,0.0,0.0,0.0,0.0,0.0,0.0,0.0,0.0,0.0,0.0,0.0,0.0,0.0,0.0,0.0,0.0,0.0,0.0,0.0,0.0,0.0,0.0,0.0,0.0,0.0,0.0,0.0,0.0,0.0,0.0,0.0,0.0,0.0,0.0,-1.7635,-1.7493,-1.669,-1.5155,-1.438,-1.3064,-1.1132,0.0,0.0,0.0,0.0,0.0,0.0,0.0,0.0,0.0,0.0,0.0,0.0,0.0,0.0,0.0,0.0,0.0,0.0,0.0,0.0,0.0,0.0,0.0,0.0,0.0,0.0,0.0,0.0,0.0,0.0,0.0,0.0,0.0,0.0,0.0,0.0,0.0,0.0,0.0,0.0,0.0,0.0,0.0,0.0,0.0,0.0,0.0,0.0,0.0,0.0,0.0,0.0,0.0,0.0,0.0,0.0,0.0,0.0,0.0,0.0,0.0,0.0,0.0,0.0,0.0,0.0,0.0,0.0,0.0,0.0,0.0,0.0,0.0,0.0,0.0,0.0,0.0,0.0,0.0,0.0,0.0,0.0,0.0,0.0,0.0,0.0,0.0,0.0,0.0,0.0,0.0,0.0,0.0,0.0,0.0,0.0,0.0,0.0,0.0,0.0,0.0,0.0,0.0,0.0,0.0,0.0,0.0,0.0,-2.2366,-2.0947,-1.9446,-1.7819,-1.6901,-1.5262,0.0,0.0,0.0,0.0,0.0,0.0,0.0,0.0,0.0,0.0,0.0,0.0,0.0,0.0,0.0,0.0,0.0,0.0,0.0,0.0,0.0,0.0,0.0,0.0,0.0,0.0,0.0,0.0,0.0,0.0,0.0,0.0,0.0,0.0,0.0,0.0,0.0,0.0,0.0,0.0,0.0,0.0,0.0,0.0,0.0,0.0,0.0,0.0,0.0,0.0,0.0,0.0,0.0,0.0,0.0,0.0,0.0,0.0,0.0,0.0,0.0,0.0,0.0,0.0,0.0,0.0,0.0,0.0,0.0,0.0,0.0,0.0,0.0,0.0,0.0,0.0,0.0,0.0,0.0,0.0,0.0,0.0,0.0,0.0,0.0,0.0,0.0,0.0,0.0,0.0,0.0,0.0,0.0,0.0,0.0,0.0,0.0,0.0,0.0,0.0,0.0,0.0,0.0,0.0,0.0,0.0,0.0,0.0,0.0,-2.3252,-2.4636,-2.3995,-2.121,-1.92,-1.6986,0.0,0.0,0.0,0.0,0.0,0.0,0.0,0.0,0.0,0.0,0.0,0.0,0.0,0.0,0.0,0.0,0.0,0.0,0.0,0.0,0.0,0.0,0.0,0.0,0.0,0.0,0.0,0.0,0.0,0.0,0.0,0.0,0.0,0.0,0.0,0.0,0.0,0.0,0.0,0.0,0.0,0.0,0.0,0.0,0.0,0.0,0.0,0.0,0.0,0.0,0.0,0.0,0.0,0.0,0.0,0.0,0.0,0.0,0.0,0.0,0.0,0.0,0.0,0.0,0.0,0.0,0.0,0.0,0.0,0.0,0.0,0.0,0.0,0.0,0.0,0.0,0.0,0.0,0.0,0.0,0.0,0.0,0.0,0.0,0.0,0.0,0.0,0.0,0.0,0.0,0.0,0.0,0.0,0.0,0.0,0.0,0.0,0.0,0.0,0.0,0.0,0.0,0.0,0.0,0.0,0.0,0.0,0.0,-2.223,-2.4745,-2.7176,-2.7021,-2.4085,-2.1633,-1.9031,0.0,0.0,0.0,0.0,0.0,0.0,0.0,0.0,0.0,0.0,0.0,0.0,0.0,0.0,0.0,0.0,0.0,0.0,0.0,0.0,0.0,0.0,0.0,0.0,0.0,0.0,0.0,0.0,0.0,0.0,0.0,0.0,0.0,0.0,0.0,0.0,0.0,0.0,0.0,0.0,0.0,0.0,0.0,0.0,0.0,0.0,0.0,0.0,0.0,0.0,0.0,0.0,0.0,0.0,0.0,0.0,0.0,0.0,0.0,0.0,0.0,0.0,0.0,0.0,0.0,0.0,0.0,0.0,0.0,0.0,0.0,0.0,0.0,0.0,0.0,0.0,0.0,0.0,0.0,0.0,0.0,0.0,0.0,0.0,0.0,0.0,0.0,0.0,0.0,0.0,0.0,0.0,0.0,0.0,0.0,0.0,0.0,0.0,0.0,0.0,0.0,0.0,0.0,0.0,0.0,0.0,0.0,0.0,-2.3877,-2.6253,-2.8715,-2.8814,-2.6375,-2.3917,-2.1086,0.0,0.0,0.0,0.0,0.0,0.0,0.0,0.0,0.0,0.0,0.0,0.0,0.0,0.0,0.0,0.0,0.0,0.0,0.0,0.0,0.0,0.0,0.0,0.0,0.0,0.0,0.0,0.0,0.0,0.0,0.0,0.0,0.0,0.0,0.0,0.0,0.0,0.0,0.0,0.0,0.0,0.0,0.0,0.0,0.0,0.0,0.0,0.0,0.0,0.0,0.0,0.0,0.0,0.0,0.0,0.0,0.0,0.0,0.0,0.0,0.0,0.0,0.0,0.0,0.0,0.0,0.0,0.0,0.0,0.0,0.0,0.0,0.0,0.0,0.0,0.0,0.0,0.0,0.0,0.0,0.0,0.0,0.0,0.0,0.0,0.0,0.0,0.0,0.0,0.0,0.0,0.0,0.0,0.0,0.0,0.0,0.0,0.0,0.0,0.0,0.0,0.0,0.0,0.0,0.0,0.0,0.0,0.0,-2.4429,-2.628,-2.873,-2.9106,-2.7258,-2.4764,-2.1911,0.0,0.0,0.0,0.0,0.0,0.0,0.0,0.0,0.0,0.0,0.0,0.0,0.0,0.0,0.0,0.0,0.0,0.0,0.0,0.0,0.0,0.0,0.0,0.0,0.0,0.0,0.0,0.0,0.0,0.0,0.0,0.0,0.0,0.0,0.0,0.0,0.0,0.0,0.0,0.0,0.0,0.0,0.0,0.0,0.0,0.0,0.0,0.0,-1.0975,0.0,0.0,0.0,0.0,0.0,0.0,0.0,0.0,0.0,0.0,0.0,0.0,0.0,0.0,0.0,0.0,0.0,0.0,0.0,0.0,0.0,0.0,0.0,0.0,0.0,0.0,0.0,0.0,0.0,0.0,0.0,0.0,0.0,0.0,0.0,0.0,0.0,0.0,0.0,0.0,0.0,0.0,0.0,0.0,0.0,0.0,0.0,0.0,0.0,0.0,0.0,0.0,0.0,0.0,0.0,0.0,0.0,0.0,0.0,-2.5093,-2.6797,-2.8924,-2.9228,-2.7519,-2.5442,-2.2771,0.0,0.0,0.0,0.0,0.0,0.0,0.0,0.0,0.0,0.0,0.0,0.0,0.0,0.0,0.0,0.0,0.0,0.0,0.0,0.0,0.0,0.0,0.0,0.0,0.0,0.0,0.0,0.0,0.0,0.0,0.0,0.0,0.0,0.0,0.0,0.0,0.0,0.0,0.0,0.0,0.0,0.0,0.0,0.0,0.0,0.0,0.0,0.0,0.0,0.0,0.0,0.0,0.0,0.0,0.0,0.0,0.0,0.0,0.0,0.0,0.0,0.0,0.0,0.0,0.0,0.0,0.0,0.0,0.0,0.0,0.0,0.0,0.0,0.0,0.0,0.0,0.0,0.0,0.0,0.0,0.0,0.0,0.0,0.0,0.0,0.0,0.0,0.0,0.0,0.0,0.0,0.0,0.0,0.0,0.0,0.0,0.0,0.0,0.0,0.0,0.0,0.0,0.0,0.0,0.0,0.0,0.0,-2.3193,-2.5686,-2.7195,-2.895,-2.901,-2.7158,-2.5487,-2.305,-1.9727,0.0,0.0,0.0,0.0,0.0,0.0,0.0,0.0,0.0,0.0,0.0,0.0,0.0,0.0,0.0,0.0,0.0,0.0,0.0,0.0,0.0,0.0,0.0,0.0,0.0,0.0,0.0,0.0,0.0,0.0,0.0,0.0,0.0,0.0,0.0,0.0,0.0,0.0,-1.0275,-1.1279,0.0,0.0,0.0,0.0,0.0,0.0,0.0,0.0,-1.1555,0.0,0.0,0.0,0.0,0.0,0.0,0.0,0.0,0.0,0.0,0.0,0.0,0.0,0.0,0.0,0.0,0.0,0.0,0.0,0.0,0.0,0.0,0.0,0.0,0.0,0.0,0.0,0.0,0.0,0.0,0.0,0.0,0.0,0.0,0.0,0.0,0.0,0.0,0.0,0.0,0.0,0.0,0.0,0.0,0.0,0.0,0.0,0.0,0.0,0.0,0.0,0.0,0.0,0.0,0.0,0.0,-1.9732,-2.3678,-2.5906,-2.6317,-2.8093,-2.7856,-2.5487,-2.3771,-2.1345,-1.806,0.0,0.0,0.0,0.0,0.0,0.0,0.0,0.0,0.0,0.0,0.0,0.0,0.0,0.0,0.0,0.0,0.0,0.0,0.0,0.0,0.0,0.0,0.0,0.0,0.0,0.0,0.0,0.0,0.0,0.0,0.0,0.0,0.0,0.0,0.0,0.0,0.0,0.0,0.0,-1.2623,-1.338,0.0,0.0,0.0,0.0,0.0,0.0,0.0,0.0,-1.0306,0.0,0.0,0.0,0.0,0.0,0.0,0.0,0.0,0.0,0.0,0.0,0.0,0.0,0.0,0.0,0.0,0.0,0.0,0.0,0.0,0.0,0.0,0.0,0.0,0.0,0.0,0.0,0.0,0.0,0.0,0.0,0.0,0.0,0.0,0.0,0.0,0.0,0.0,0.0,0.0,0.0,0.0,0.0,0.0,0.0,0.0,0.0,0.0,0.0,0.0,0.0,0.0,0.0,0.0,0.0,-1.9636,-2.3277,-2.5448,-2.6027,-2.7425,-2.7148,-2.5056,-2.2974,-2.0495,0.0,0.0,0.0,0.0,0.0,0.0,0.0,0.0,0.0,0.0,0.0,0.0,0.0,0.0,0.0,0.0,0.0,0.0,0.0,0.0,0.0,0.0,0.0,0.0,0.0,0.0,0.0,0.0,0.0,0.0,0.0,0.0,0.0,0.0,0.0,0.0,0.0,0.0,0.0,0.0,-1.3331,-1.4506,-1.4061,0.0,0.0,0.0,0.0,0.0,0.0,-1.0853,-1.0403,0.0,0.0,0.0,0.0,0.0,0.0,0.0,0.0,0.0,0.0,0.0,0.0,0.0,0.0,0.0,0.0,0.0,0.0,0.0,0.0,0.0,0.0,0.0,0.0,0.0,0.0,0.0,0.0,0.0,0.0,0.0,0.0,0.0,0.0,0.0,0.0,0.0,0.0,0.0,0.0,0.0,0.0,0.0,0.0,0.0,0.0,0.0,0.0,0.0,0.0,0.0,0.0,0.0,0.0,0.0,-1.9501,-2.2771,-2.4831,-2.5619,-2.6722,-2.6372,-2.4498,-2.2222,-1.9749,0.0,0.0,0.0,0.0,0.0,0.0,0.0,0.0,0.0,0.0,0.0,0.0,0.0,0.0,0.0,0.0,0.0,0.0,0.0,0.0,0.0,0.0,0.0,0.0,0.0,0.0,0.0,0.0,0.0,0.0,0.0,0.0,0.0,0.0,0.0,0.0,0.0,0.0,0.0,0.0,0.0,-1.539,-1.569,-1.5729,0.0,0.0,0.0,0.0,-1.3201,-1.218,0.0,0.0,0.0,0.0,0.0,0.0,0.0,0.0,0.0,0.0,0.0,0.0,0.0,0.0,0.0,0.0,0.0,0.0,0.0,0.0,0.0,0.0,0.0,0.0,0.0,0.0,0.0,0.0,0.0,0.0,0.0,0.0,0.0,0.0,0.0,0.0,0.0,0.0,0.0,0.0,0.0,0.0,0.0,0.0,0.0,0.0,0.0,0.0,0.0,0.0,0.0,0.0,0.0,0.0,0.0,0.0,-1.9427,-2.2664,-2.4436,-2.4678,-2.5676,-2.5039,-2.2688,-2.0916,-1.848,0.0,0.0,0.0,0.0,0.0,0.0,0.0,0.0,0.0,0.0,0.0,0.0,0.0,0.0,0.0,0.0,0.0,0.0,0.0,0.0,0.0,0.0,0.0,0.0,0.0,0.0,0.0,0.0,0.0,0.0,0.0,0.0,0.0,0.0,0.0,0.0,0.0,0.0,0.0,0.0,0.0,-1.5829,-1.7286,-1.7509,-1.7473,0.0,0.0,-1.4876,-1.5075,-1.4922,0.0,0.0,0.0,0.0,0.0,0.0,0.0,0.0,0.0,0.0,0.0,0.0,0.0,0.0,0.0,0.0,0.0,0.0,0.0,0.0,0.0,0.0,0.0,0.0,0.0,0.0,0.0,0.0,0.0,0.0,0.0,0.0,0.0,0.0,0.0,0.0,0.0,0.0,0.0,0.0,0.0,0.0,0.0,0.0,0.0,0.0,0.0,0.0,0.0,0.0,0.0,0.0,0.0,0.0,0.0,-1.5753,-1.8647,-2.141,-2.3075,-2.3652,-2.4588,-2.414,-2.2181,-2.0095,-1.7697,0.0,0.0,0.0,0.0,0.0,0.0,0.0,0.0,0.0,0.0,0.0,0.0,0.0,0.0,0.0,0.0,0.0,0.0,0.0,0.0,0.0,0.0,0.0,0.0,0.0,0.0,0.0,0.0,0.0,0.0,0.0,0.0,0.0,0.0,0.0,0.0,0.0,0.0,0.0,0.0,0.0,0.0,-1.7687,-1.8675,0.0,0.0,0.0,-1.7882,-1.6558,0.0,0.0,0.0,0.0,0.0,0.0,0.0,0.0,0.0,0.0,0.0,0.0,0.0,0.0,0.0,0.0,0.0,0.0,0.0,0.0,0.0,0.0,0.0,0.0,0.0,0.0,0.0,0.0,0.0,0.0,0.0,0.0,0.0,0.0,0.0,0.0,0.0,0.0,0.0,0.0,0.0,0.0,0.0,0.0,0.0,0.0,0.0,0.0,0.0,0.0,0.0,0.0,0.0,0.0,0.0,0.0,0.0,-1.777,-2.0356,-2.2106,-2.2941,-2.3674,-2.34,-2.1993,-1.964,0.0,0.0,0.0,0.0,0.0,0.0,0.0,0.0,0.0,0.0,0.0,0.0,0.0,0.0,0.0,0.0,0.0,0.0,0.0,0.0,0.0,0.0,0.0,0.0,0.0,0.0,0.0,-0.5715,0.0,0.0,0.0,0.0,0.0,0.0,0.0,0.0,0.0,0.0,0.0,0.0,0.0,0.0,-1.6941,-1.7798,-1.9353,-2.0013,0.0,0.0,-1.9892,-1.7865,-1.6715,-1.5897,0.0,0.0,0.0,0.0,0.0,0.0,0.0,0.0,0.0,0.0,0.0,0.0,0.0,0.0,0.0,0.0,0.0,0.0,0.0,0.0,0.0,0.0,0.0,0.0,0.0,0.0,0.0,0.0,0.0,0.0,0.0,0.0,0.0,0.0,0.0,0.0,0.0,0.0,0.0,0.0,0.0,0.0,0.0,0.0,0.0,0.0,0.0,0.0,0.0,0.0,0.0,0.0,0.0,0.0,-1.4441,-1.6984,-2.0036,-2.2009,-2.2859,-2.3024,-2.2719,-2.1894,-1.9566,-1.7169,0.0,0.0,0.0,0.0,0.0,0.0,0.0,0.0,0.0,0.0,0.0,0.0,0.0,0.0,0.0,0.0,0.0,0.0,0.0,0.0,0.0,0.0,0.0,0.0,0.0,0.0,0.0,0.0,0.0,0.0,0.0,0.0,0.0,0.0,0.0,0.0,0.0,0.0,0.0,0.0,0.0,-1.7025,-1.7885,-1.9432,-2.0467,0.0,-2.0516,-2.0165,-1.8958,-1.8237,-1.7283,-1.5664,0.0,0.0,0.0,0.0,0.0,0.0,0.0,0.0,0.0,0.0,0.0,0.0,0.0,0.0,0.0,0.0,0.0,0.0,0.0,0.0,0.0,0.0,0.0,0.0,0.0,0.0,0.0,0.0,0.0,0.0,0.0,0.0,0.0,0.0,0.0,0.0,0.0,0.0,0.0,0.0,0.0,0.0,0.0,0.0,0.0,0.0,0.0,0.0,0.0,0.0,0.0,0.0,0.0,-1.3652,-1.6082,-1.9213,-2.0961,-2.1315,-2.1799,-2.1744,-2.1001,-1.9165,-1.7278,0.0,0.0,0.0,0.0,0.0,0.0,0.0,0.0,0.0,0.0,0.0,0.0,0.0,0.0,0.0,0.0,0.0,0.0,0.0,0.0,0.0,0.0,0.0,0.0,0.0,0.0,0.0,0.0,-0.8191,-0.8839,-1.0155,0.0,0.0,0.0,0.0,0.0,0.0,0.0,0.0,0.0,0.0,-1.7017,-1.7896,-1.9454,0.0,0.0,-2.0594,-2.0458,-2.0009,-1.8867,-1.7418,-1.5674,-1.4397,0.0,0.0,0.0,0.0,0.0,0.0,0.0,0.0,0.0,0.0,0.0,0.0,0.0,0.0,0.0,0.0,0.0,0.0,0.0,0.0,0.0,0.0,0.0,0.0,0.0,0.0,0.0,0.0,0.0,0.0,0.0,0.0,0.0,0.0,0.0,0.0,0.0,0.0,0.0,0.0,0.0,0.0,0.0,0.0,0.0,0.0,0.0,0.0,0.0,0.0,0.0,0.0,-1.3059,-1.523,-1.858,-2.029,-2.0299,-2.0853,-2.0907,-2.0351,-1.864,-1.7089,0.0,0.0,0.0,0.0,0.0,0.0,0.0,0.0,0.0,0.0,0.0,0.0,0.0,0.0,0.0,0.0,0.0,0.0,0.0,0.0,0.0,0.0,0.0,0.0,0.0,0.0,0.0,0.0,-0.9177,-0.9384,-0.9764,0.0,0.0,0.0,0.0,0.0,0.0,0.0,0.0,0.0,0.0,-1.7314,-1.7939,-1.9481,-2.0594,-2.0594,-2.0594,-2.0594,-2.0594,-1.8691,-1.6794,-1.5573,0.0,0.0,0.0,0.0,0.0,0.0,0.0,0.0,0.0,0.0,0.0,0.0,0.0,0.0,0.0,0.0,0.0,0.0,0.0,0.0,0.0,0.0,0.0,0.0,0.0,0.0,0.0,-1.0725,0.0,0.0,-0.9378,0.0,0.0,0.0,0.0,0.0,0.0,0.0,0.0,0.0,0.0,0.0,0.0,0.0,0.0,0.0,0.0,0.0,0.0,0.0,0.0,0.0,0.0,-1.2804,-1.4453,-1.8289,-2.0272,-2.0291,-2.0308,-2.0316,-2.0226,-1.8058,-1.6474,-1.5674,0.0,0.0,0.0,0.0,0.0,0.0,0.0,0.0,0.0,0.0,0.0,0.0,0.0,0.0,0.0,0.0,0.0,0.0,0.0,0.0,0.0,0.0,0.0,0.0,0.0,0.0,-1.0039,-1.0203,-0.9836,0.0,0.0,0.0,0.0,0.0,0.0,0.0,0.0,0.0,0.0,-1.6866,-1.7978,-1.8017,-1.9481,-2.0594,-2.0594,-2.0594,-2.0594,-2.0594,-1.7714,-1.5418,0.0,0.0,0.0,0.0,0.0,0.0,0.0,0.0,0.0,0.0,0.0,0.0,0.0,0.0,0.0,0.0,0.0,0.0,0.0,0.0,0.0,0.0,0.0,0.0,0.0,0.0,0.0,-1.388,-1.3529,0.0,0.0,0.0,0.0,0.0,0.0,0.0,0.0,0.0,0.0,0.0,-1.5202,-1.5488,0.0,0.0,0.0,0.0,0.0,0.0,0.0,0.0,0.0,0.0,0.0,0.0,-1.2786,-1.4472,-1.7769,-1.9499,-1.95,-1.9517,-1.9507,-1.9489,-1.8219,-1.6442,-1.4118,0.0,0.0,0.0,0.0,0.0,0.0,0.0,0.0,0.0,0.0,0.0,0.0,0.0,0.0,0.0,0.0,0.0,0.0,0.0,0.0,0.0,0.0,0.0,0.0,0.0,-0.9605,0.0,0.0,0.0,0.0,0.0,0.0,0.0,0.0,0.0,0.0,0.0,-1.4778,-1.5324,-1.7255,-1.8446,-1.8056,-1.9481,-2.0594,0.0,0.0,0.0,0.0,0.0,0.0,0.0,0.0,0.0,0.0,0.0,0.0,0.0,0.0,-1.6122,-1.3303,-1.3207,-1.3597,-1.3615,0.0,0.0,0.0,0.0,0.0,0.0,0.0,0.0,0.0,0.0,0.0,0.0,0.0,0.0,-1.5993,0.0,-1.4385,0.0,0.0,0.0,0.0,0.0,0.0,0.0,0.0,-1.7178,-1.7815,-1.7446,-1.7502,-1.7462,0.0,-1.7371,-1.579,0.0,0.0,0.0,0.0,0.0,0.0,0.0,0.0,-1.3199,-1.4828,-1.7616,-1.9099,-1.9101,-1.9099,-1.9099,-1.9091,-1.8032,-1.6268,-1.3713,-1.3421,-1.2473,0.0,0.0,0.0,0.0,0.0,0.0,0.0,0.0,0.0,0.0,0.0,0.0,0.0,0.0,0.0,0.0,0.0,0.0,0.0,0.0,0.0,0.0,0.0,-1.0233,0.0,0.0,0.0,0.0,0.0,0.0,0.0,0.0,0.0,-1.3528,-1.4719,-1.5617,-1.6222,-1.7801,-1.8893,-1.8915,0.0,0.0,0.0,0.0,0.0,0.0,0.0,-1.6976,-1.635,-1.6532,-1.6391,-1.529,-1.3364,-1.2702,-1.4919,0.0,0.0,-1.5289,-1.4939,-1.4766,-1.5211,-1.4623,-1.4228,-1.4835,-1.4214,-1.3551,0.0,0.0,0.0,0.0,0.0,0.0,0.0,0.0,-1.8151,-1.7728,0.0,-1.6239,0.0,0.0,0.0,0.0,0.0,-1.588,0.0,0.0,-1.9401,-2.0136,-2.025,-2.0314,-2.0068,-1.9547,-1.9524,-1.8768,-1.7213,-1.4441,0.0,0.0,0.0,0.0,0.0,0.0,-1.4017,-1.554,-1.7892,-1.9101,-1.9095,-1.9101,-1.9101,-1.9059,-1.7578,-1.6064,-1.4599,-1.3819,-1.3046,-1.228,-1.0563,0.0,0.0,0.0,0.0,0.0,0.0,0.0,0.0,0.0,0.0,0.0,0.0,0.0,0.0,0.0,0.0,0.0,0.0,0.0,0.0,-1.0893,0.0,0.0,0.0,0.0,0.0,0.0,0.0,0.0,0.0,0.0,-1.5187,-1.548,-1.6105,-1.7802,0.0,0.0,0.0,0.0,-2.0594,-2.0594,-2.0594,-2.0594,-2.0594,-2.0564,-1.9959,-1.8331,0.0,0.0,-1.7894,-1.6493,-1.5191,-1.5289,-1.5289,-1.5289,-1.5289,-1.5893,-1.6165,-1.5479,-1.5898,-1.6709,-1.7201,-1.619,-1.5303,-2.1945,0.0,0.0,0.0,0.0,-1.9646,-1.97,-1.9605,-1.9588,-1.9474,-1.9223,-1.8477,0.0,0.0,0.0,0.0,0.0,0.0,-1.9106,-1.8973,-2.025,-2.0628,-2.0226,-2.0341,-2.0379,-2.0352,-1.9949,-1.951,-1.9009,-1.7134,-1.5074,-1.2964,0.0,0.0,0.0,0.0,-1.5347,-1.641,-1.8169,-1.9104,-1.9095,-1.9104,-1.9104,-1.9095,-1.8107,-1.7353,-1.6907,-1.5643,-1.4569,-1.3772,-1.162,0.0,0.0,0.0,0.0,0.0,0.0,0.0,0.0,0.0,0.0,0.0,0.0,0.0,0.0,0.0,0.0,0.0,0.0,0.0,-1.0915,-1.1254,-1.1331,0.0,0.0,0.0,0.0,0.0,0.0,0.0,0.0,0.0,-1.6885,-1.6885,-1.7177,0.0,0.0,-2.0222,-2.0555,-2.0594,-2.0594,-2.0594,-2.0594,0.0,-2.0594,-2.0603,-2.043,-1.9939,-1.8692,-1.819,-1.951,-1.7299,-1.5289,-1.5289,-1.5289,-1.5289,-1.5308,-1.5502,-1.559,-1.5409,-1.5968,-1.6623,-1.6973,-1.7179,-1.7276,-2.5126,-2.365,-2.2186,-2.1646,-2.1768,-2.1905,-2.1854,-2.1692,-2.1709,-2.1737,-2.1697,-2.0985,-2.0297,-1.9597,-1.8458,0.0,0.0,0.0,-2.029,-2.0096,-2.1142,-2.146,-2.1131,-2.1245,-2.1257,-2.1155,-2.0933,-2.0649,-2.0304,-1.9383,-1.8208,-1.676,0.0,0.0,-1.3977,-1.5295,-1.6367,-1.7201,-1.8443,-1.9095,-1.9095,-1.9095,-1.9095,-1.9077,-1.8026,-1.7418,-1.7418,-1.5937,-1.4909,-1.4392,-1.237,-1.0908,0.0,0.0,0.0,0.0,0.0,0.0,0.0,0.0,0.0,0.0,0.0,-0.5232,-0.5573,0.0,0.0,0.0,-0.9621,-1.1292,-1.183,-1.2191,0.0,0.0,0.0,0.0,0.0,0.0,0.0,-1.2981,-1.3762,-1.5557,-1.8583,-1.872,-1.8699,-1.9245,-2.0066,-2.0594,-2.0594,0.0,-2.0594,-2.0594,-2.0594,-2.0594,-2.0594,-2.06,-2.0818,-2.1502,-2.076,-2.0063,-2.0298,-1.7659,-1.5407,-1.5289,-1.5289,-1.5289,-1.5289,-1.5289,-1.5818,-1.7014,-1.6945,-1.6999,-1.7965,-1.8665,-1.8926,-2.7675,-2.6941,-2.5735,-2.4592,-2.3665,-2.4222,-2.4306,-2.4,-2.3967,-2.4049,-2.4048,-2.3381,-2.2822,-2.2293,-2.0462,0.0,-2.0732,-2.0671,-2.0985,-2.1489,-2.2098,-2.2431,-2.2501,-2.2632,-2.2465,-2.2001,-2.2191,-2.1897,-2.1194,-2.109,-2.111,-2.1067,-1.7554,-1.5763,-1.5811,-1.6519,-1.7255,-1.7998,-1.8715,-1.9095,-1.9095,-1.9095,-1.9095,-1.9095,-1.7545,-1.6711,-1.6657,-1.5148,-1.432,-1.4337,-1.2866,-1.165,-1.0903,0.0,0.0,0.0,0.0,0.0,0.0,0.0,0.0,0.0,0.0,0.0,0.0,0.0,0.0,-0.8879,-1.1233,0.0,-1.27,-1.3399,0.0,0.0,0.0,-1.2067,-1.2791,-1.443,-1.4884,-1.3292,0.0,0.0,-2.0164,-2.0594,-2.032,-1.9499,-2.0085,-2.0594,-2.0594,-2.0594,-2.0633,-2.0769,-2.0652,-2.0594,-2.0613,-2.079,-2.1395,-2.2683,-2.314,-2.2559,-2.1344,-1.8771,-1.6424,-1.5652,-1.5635,-1.5596,-1.5382,-1.5425,-1.6475,-1.9427,-1.8482,-1.7769,-1.9446,-2.0007,-2.0005,-2.8549,-2.8488,-2.815,-2.6572,-2.4289,-2.4252,-2.4178,-2.4,-2.3984,-2.4033,-2.4081,-2.3978,-2.3951,-2.4013,-2.357,-2.3505,-2.3676,-2.3645,-2.3411,-2.2997,-2.3081,-2.292,-2.2532,-2.2632,-2.2712,-2.2718,-2.2329,-2.2043,-2.1852,-2.1302,-2.1036,-2.0994,-2.0096,-1.943,-1.8985,-1.8692,-1.8624,-1.8824,-1.9005,-1.9095,-1.9095,-1.9095,-1.9095,-1.9095,-1.7527,-1.6686,-1.6657,-1.4572,-1.3684,-1.4241,-1.2789,-1.2113,-1.2506,-1.1053,0.0,0.0,0.0,0.0,0.0,0.0,0.0,0.0,0.0,-0.6644,-0.808,0.0,-0.9673,0.0,-1.2402,-1.3538,-1.3573,-1.3583,0.0,0.0,-1.1707,-1.1351,-1.3216,-1.5757,-1.6684,-1.5001,-1.6316,-1.8193,-2.034,-2.0594,-2.0516,-2.0339,-2.0477,-2.0594,-2.0594,-2.0594,-2.0925,-2.1607,-2.1217,-2.0613,-2.0789,-2.1705,-2.2642,-2.3033,-2.3489,-2.3923,-2.4394,-2.3812,-2.1944,-1.8353,-1.8361,-1.8096,-1.5769,-1.6336,-1.7424,-1.8274,-1.8313,-1.8463,-1.9168,-1.9777,-2.019,-2.9732,-2.9482,-2.9501,-2.8296,-2.6404,-2.6303,-2.6016,-2.5613,-2.5596,-2.5447,-2.5163,-2.4894,-2.4873,-2.4983,-2.4737,-2.4615,-2.4615,-2.4615,-2.4379,-2.3941,-2.3575,-2.326,-2.2993,-2.2787,-2.279,-2.294,-2.2657,-2.2547,-2.2512,-2.2135,-2.1953,-2.1924,-2.1566,-2.1244,-2.0883,-1.9953,-1.948,-1.9498,-1.9217,-1.907,-1.9095,-1.9095,-1.9095,-1.9059,-1.7193,-1.6153,-1.6135,-1.3859,-1.293,-1.3684,-1.2224,-1.174,-1.2477,-1.1121,-0.9723,0.0,0.0,0.0,0.0,0.0,0.0,0.0,0.0,0.0,0.0,0.0,-1.1274,-1.2309,-1.3265,-1.4128,-1.4934,-1.4884,-1.4826,-1.4961,-1.39,-1.3669,-1.4956,-1.653,-1.7295,-1.6629,-1.7405,-1.8661,-2.0359,-2.1257,-2.1569,-2.1237,-2.1296,-2.1179,-2.0711,-2.0594,-2.0965,-2.1919,-2.2545,-2.2857,-2.2877,-2.3638,-2.4243,-2.4244,-2.4114,-2.4372,-2.5486,-2.565,-2.4608,-2.2009,-2.1457,-2.0128,-1.6346,-1.737,-1.9136,-1.9765,-1.906,-1.8709,-1.9455,-1.9943,-2.0238,-3.0799,-3.026,-3.0243,-2.9798,-2.9097,-2.9114,-2.8589,-2.7727,-2.7626,-2.719,-2.6469,-2.59,-2.5663,-2.5612,-2.5035,-2.4778,-2.4778,-2.4778,-2.4728,-2.4592,-2.3883,-2.3566,-2.3574,-2.2976,-2.2764,-2.2893,-2.301,-2.3072,-2.3065,-2.306,-2.3067,-2.3061,-2.2411,-2.2066,-2.2013,-2.0711,-1.9919,-1.9673,-1.9147,-1.8892,-1.895,-1.9041,-1.9104,-1.9013,-1.6758,-1.5513,-1.544,-1.3178,-1.2332,-1.3147,-1.1807,-1.1414,-1.226,-1.0899,-0.9779,0.0,-0.902,0.0,0.0,0.0,0.0,0.0,0.0,0.0,0.0,-1.2164,-1.2797,-1.4048,-1.4125,-1.4752,-1.6254,-1.6548,-1.6766,-1.6973,-1.7209,-1.7301,-1.7166,-1.7309,-1.7582,-1.7965,-1.8203,-1.8954,-2.0418,-2.2058,-2.2799,-2.2036,-2.2134,-2.1978,-2.1061,-2.0711,-2.0983,-2.1997,-2.4164,-2.5278,-2.5375,-2.5551,-2.559,-2.5532,-2.4897,-2.4589,-2.5545,-2.5655,-2.5535,-2.5298,-2.4122,-2.1643,-1.6823,-1.8785,-2.1378,-2.2423,-2.0079,-1.8471,-1.9838,-2.0154,-2.0183,-3.1027,-3.0987,-3.0987,-3.0883,-3.0765,-3.0748,-2.9892,-2.8446,-2.7861,-2.7226,-2.6589,-2.6454,-2.6421,-2.6471,-2.6336,-2.6268,-2.6285,-2.6285,-2.5964,-2.5372,-2.4626,-2.4041,-2.3574,-2.2993,-2.2738,-2.2812,-2.2889,-2.2944,-2.2944,-2.2944,-2.2965,-2.3015,-2.2912,-2.2884,-2.2809,0.0,0.0,0.0,-1.8035,-1.8097,-1.8229,-1.8782,-1.9117,-1.9063,-1.6827,0.0,-1.5422,-1.3183,-1.2562,-1.3938,-1.3159,0.0,0.0,0.0,0.0,0.0,0.0,0.0,0.0,0.0,0.0,0.0,-1.3984,-1.391,-1.5221,-1.5449,-1.5624,-1.5876,-1.591,-1.6048,-1.6392,-1.7451,-1.8141,-1.8198,-1.9054,-1.9326,-1.8525,-1.9231,-1.9422,-1.8159,-1.9238,-2.0203,-2.0672,-2.2057,-2.2779,-2.2154,-2.2506,-2.2642,-2.2115,-2.1257,-2.1471,-2.352,-2.4965,-2.5687,-2.5687,-2.5687,-2.5687,-2.565,-2.5581,-2.5448,-2.5625,-2.569,-2.5637,-2.5534,-2.5232,-2.3809,-2.0185,-2.2191,-2.399,-2.3132,-2.0176,-1.8313,-2.0012,-1.9809,-1.9529,-3.1131,0.0,-3.119,-3.119,0.0,-3.119,-3.0709,-2.9856,-2.8762,-2.7667,-2.6623,-2.6623,-2.6623,-2.6657,-2.6674,-2.6708,-2.6708,-2.6708,-2.6488,-2.6099,-2.5389,-2.4722,-2.4125,-2.3543,-2.3057,-2.2751,-2.279,-2.2803,-2.2803,-2.2803,-2.2855,-2.294,-2.3052,-2.3102,-2.3032,-2.1256,-1.9408,-1.7621,-1.808,-1.8233,-1.8037,-1.8711,-1.9101,-1.9053,-1.7173,0.0,0.0,0.0,0.0,0.0,0.0,0.0,0.0,0.0,0.0,-1.3836,-1.3506,-1.3518,-1.3949,-1.3991,-1.4563,-1.5846,-1.6399,-1.6758,-1.6943,-1.6227,-1.5948,-1.6372,-1.6735,-1.7332,-1.8164,-1.926,-1.999,-2.0165,-2.026,-2.0462,-2.1081,-2.1455,-2.1031,-1.9644,-2.0002,-2.0822,-2.1724,-2.2507,-2.313,-2.3149,-2.3461,-2.3774,-2.3813,-2.274,-2.2662,-2.4671,-2.5356,-2.5687,-2.5687,-2.5687,-2.5687,-2.5689,-2.5698,-2.5702,-2.5703,-2.5666,-2.5632,-2.5529,-2.5507,-2.4811,-2.3573,-2.4405,-2.495,-2.3074,-2.0157,-1.8316,-1.9454,-1.939,-1.9365,-3.119,-3.119,-3.119,-3.1106,-3.1021,-3.114,-3.1075,-3.0734,0.0,0.0,0.0,-2.6623,-2.6606,-2.6606,-2.6674,-2.6708,-2.6708,-2.6708,-2.6708,-2.6657,-2.5947,-2.5283,-2.4658,-2.405,-2.3399,-2.2676,-2.2659,-2.2672,-2.2685,-2.2716,-2.276,-2.2906,-2.3017,-2.2986,-2.2617,-2.0795,-1.9078,-1.7718,-1.8206,-1.8269,-1.7827,-1.8377,-1.8693,-1.8689,-1.7267,-1.6501,-1.6457,-1.5212,-1.4879,-1.5639,-1.5096,-1.5012,-1.5646,-1.5005,-1.4624,-1.4715,-1.4774,-1.4862,-1.5001,-1.5007,-1.5308,-1.6021,-1.7688,-1.8364,-1.7651,-1.646,-1.6109,-1.6995,-1.7652,-1.8669,-2.0174,-2.1111,-2.1737,-2.2001,-2.1242,-2.1477,-2.2988,-2.3101,-2.2303,-2.1194,-2.0977,-2.1451,-2.2813,-2.3071,-2.3247,-2.3774,-2.387,-2.4379,-2.4907,-2.395,-2.3735,-2.5278,-2.5648,-2.5609,-2.5258,-2.5141,-2.5297,-2.5357,-2.5424,-2.5526,-2.5664,-2.566,-2.5598,-2.554,-2.553,-2.5449,-2.5476,-2.543,-2.4753,-2.2842,-2.0289,-1.8393,-1.8916,-1.9109,-1.9377,-3.119,-3.119,-3.119,-3.0835,-3.0311,-3.0937,-3.0482,-2.9296,-2.895,-2.8023,-2.6691,-2.6623,-2.6623,-2.6691,-2.6708,-2.6708,-2.6708,-2.6708,-2.6708,-2.6657,-2.5947,-2.5251,-2.4599,-2.3938,-2.3246,-2.2576,-2.2525,-2.2569,-2.2623,-2.2672,-2.2764,-2.2889,-2.3045,-2.25,-2.1326,-2.0357,-1.9172,-1.7713,-1.718,-1.6941,-1.6973,-1.7064,-1.7118,-1.7064,-1.6271,-1.5735,-1.5657,-1.547,-1.5694,-1.6476,-1.6421,-1.641,-1.6486,-1.5767,-1.5401,-1.5532,-1.5545,-1.5845,-1.6518,-1.658,-1.6635,-1.6832,-1.8372,-1.8852,-1.7652,-1.7984,-1.864,-1.9464,-1.9659,-2.0131,-2.1139,-2.2038,-2.2584,-2.2589,-2.2451,-2.2273,-2.2015,-2.2436,-2.2707,-2.2489,-2.261,-2.2613,-2.2854,-2.2988,-2.2738,-2.2464,-2.3011,-2.3384,-2.3443,-2.3717,-2.4341,-2.5375,-2.5687,-2.5063,-2.3853,-2.3482,-2.3794,-2.4476,-2.4641,-2.4938,-2.5603,-2.5696,-2.565,-2.559,-2.5476,-2.5447,-2.5491,-2.5507,-2.4138,-2.1662,-2.0173,-1.9764,-1.9261,-1.907,-1.9319,-3.119,-3.119,-3.119,-3.0768,-3.0091,-3.004,-2.9364,-2.8365,-2.8295,-2.7687,-2.6759,-2.6674,-2.6674,-2.6708,-2.6708,-2.6708,-2.6708,-2.6708,-2.6708,-2.6657,-2.6353,-2.5608,-2.4605,-2.4228,-2.3495,-2.2428,-2.2391,-2.2446,-2.2538,-2.2663,-2.2764,-2.2884,-2.268,-2.1845,-2.053,-2.0165,-1.948,-1.8469,-1.765,-1.7093,-1.6798,-1.6758,-1.6758,-1.678,-1.6384,-1.6399,-1.6787,-1.6805,-1.7167,-1.7972,-1.7589,-1.7343,-1.7329,-1.6663,-1.6274,-1.635,-1.6363,-1.6517,-1.689,-1.6908,-1.7275,-1.8133,-1.8955,-1.9785,-2.0458,-1.9798,-1.9765,-2.0667,-2.1157,-2.1817,-2.2696,-2.3534,-2.3889,-2.3386,-2.3233,-2.2857,-2.2288,-2.2162,-2.2457,-2.2784,-2.291,-2.2607,-2.1796,-2.1701,-2.1894,-2.1995,-2.2681,-2.2779,-2.194,-2.198,-2.235,-2.2896,-2.3657,-2.3502,-2.2116,-2.1745,-2.2467,-2.4047,-2.4404,-2.4779,-2.55,-2.5703,-2.5677,-2.556,-2.4962,-2.469,-2.5215,-2.4686,-2.3069,-2.1259,-2.0392,-2.0037,-1.935,-1.8767,-1.8567,-3.1148,-3.1131,-3.1131,-3.0726,-2.9964,-2.9072,-2.8329,-2.7788,-2.7754,-2.7349,-2.6708,-2.6691,-2.6708,-2.6708,-2.6708,-2.6708,-2.6708,-2.6708,-2.6708,-2.6708,-2.6708,-2.5912,-2.4609,-2.4508,-2.3746,-2.2448,-2.2313,-2.2349,-2.2474,-2.2592,-2.2639,-2.2551,-2.2031,-2.1142,-1.9927,-1.9817,-1.9516,-1.9019,-1.8192,-1.7547,-1.7067,-1.6646,-1.6439,-1.6504,-1.6454,-1.6729,-1.732,-1.77,-1.8189,-1.8777,-1.8403,-1.811,-1.7925,-1.7472,-1.7094,-1.6936,-1.6913,-1.6982,-1.7165,-1.7506,-1.8163,-1.9205,-1.9884,-2.11,-2.2884,-2.1898,-2.1172,-2.1827,-2.2424,-2.3155,-2.3995,-2.4517,-2.4631,-2.397,-2.3403,-2.2884,-2.2532,-2.1933,-2.1681,-2.2158,-2.2284,-2.1775,-2.0812,-2.0484,-2.0879,-2.1695,-2.2246,-2.1917,-2.0866,-2.0594,-2.0594,-2.0847,-2.1745,-2.2037,-2.0808,-2.0652,-2.1647,-2.3754,-2.407,-2.454,-2.5281,-2.5695,-2.57,-2.5527,-2.4285,-2.3548,-2.4185,-2.38,-2.2374,-2.0867,-2.0424,-2.0213,-1.9632,-1.9043,-1.8181,-3.0932,-3.0932,-3.0932,-3.0513,-2.9688,-2.8332,-2.7679,-2.7612,-2.7611,-2.7208,-2.6554,-2.6657,-2.6708,-2.6708,-2.6708,-2.6708,-2.6708,-2.6708,-2.6708,-2.6708,-2.6708,-2.5912,-2.4575,-2.4508,-2.3746,-2.2448,-2.2313,-2.2352,-2.2422,-2.2487,-2.2219,-2.1697,-2.1051,-2.0381,-1.9647,-1.9043,-1.8776,-1.8807,-1.803,-1.7686,-1.7718,-1.6352,-1.5603,-1.5621,-1.5639,-1.5639,-1.5929,-1.7113,-1.797,-1.812,-1.8663,-1.8703,-1.8173,-1.8005,-1.7643,-1.6957,-1.6927,-1.7202,-1.7997,-1.9355,-1.9869,-1.9517,-2.139,-2.3021,-2.417,-2.4134,-2.3881,-2.3638,-2.3448,-2.3919,-2.4841,-2.4498,-2.4033,-2.376,-2.2753,-2.1947,-2.1823,-2.1017,-2.0414,-2.05,-2.0731,-2.0454,-2.0399,-2.0535,-2.0672,-2.1042,-2.1057,-2.097,-2.0708,-2.0593,-2.0594,-2.0594,-2.0847,-2.0847,-2.0594,-2.0594,-2.1453,-2.2916,-2.3248,-2.401,-2.5103,-2.5689,-2.5694,-2.5526,-2.4082,-2.269,-2.2031,-2.19,-2.2379,-2.1009,-2.0493,-2.0429,-2.0283,-2.0066,-1.9338,-3.0912,-3.0912,-3.0912,-3.0205,-2.9015,-2.7575,-2.6955,-2.6938,-2.6955,-2.677,-2.6536,-2.6606,-2.664,-2.664,-2.6674,-2.6708,-2.6708,-2.6708,-2.6708,-2.6708,-2.6691,-2.5929,-2.4609,-2.4508,-2.3714,-2.2398,-2.2313,-2.231,-2.2338,-2.2366,-2.1793,-2.0764,-2.0436,-1.9826,-1.8781,-1.8518,-1.8497,-1.8611,-1.831,-1.8171,-1.8075,-1.6855,-1.6098,-1.6095,-1.6132,-1.6414,-1.6914,-1.7592,-1.8133,-1.859,-1.8523,-1.8362,-1.8115,-1.7661,-1.7254,-1.6963,-1.7367,-1.8181,-1.9447,-2.0136,-2.0804,-2.14,-2.2401,-2.3418,-2.4332,-2.4543,-2.455,-2.4478,-2.4485,-2.4727,-2.5057,-2.4421,-2.3703,-2.3135,-2.2166,-2.1388,-2.0857,-2.0469,-2.0199,-2.0195,-2.026,-2.0288,-2.0477,-2.1248,-2.1831,-2.177,-2.12,-2.0625,-2.0582,-2.059,-2.0593,-2.0594,-2.0594,-2.0594,-2.0594,-2.0594,-2.1511,-2.2917,-2.3307,-2.3716,-2.5199,-2.5687,-2.5691,-2.5639,-2.3414,-2.1697,-2.0898,-2.0974,-2.1289,-2.0592,-2.0525,-2.0471,-2.0404,-2.0387,-1.9844,-3.079,-3.0744,-3.0393,-2.9607,-2.8505,-2.7033,-2.6415,-2.6415,-2.6415,-2.6415,-2.6415,-2.6502,-2.6503,-2.6521,-2.664,-2.6708,-2.6708,-2.6708,-2.6708,-2.6708,-2.6708,-2.6031,-2.4897,-2.4812,-2.4019,-2.2801,-2.2615,-2.2499,-2.2347,-2.2313,-2.162,-2.0517,-2.042,-1.9764,-1.8519,-1.8505,-1.8513,-1.8413,-1.8413,-1.8413,-1.8295,-1.7497,-1.6935,-1.6829,-1.6856,-1.7214,-1.7863,-1.8117,-1.8504,-1.9044,-1.8586,-1.8333,-1.8415,-1.787,-1.7653,-1.7935,-1.8658,-1.9711,-2.1098,-2.1391,-2.2034,-2.3153,-2.3318,-2.363,-2.4269,-2.4586,-2.4757,-2.4869,-2.5075,-2.5172,-2.5115,-2.4211,-2.3283,-2.262,-2.1708,-2.0766,-2.0212,-2.0159,-2.0173,-2.0131,-2.024,-2.0515,-2.1088,-2.2411,-2.3442,-2.2794,-2.1891,-2.1175,-2.1336,-2.1688,-2.1975,-2.1354,-2.0965,-2.0594,-2.0594,-2.0594,-2.1648,-2.3209,-2.3795,-2.438,-2.5473,-2.5629,-2.4693,-2.3741,-2.1786,-2.0829,-2.0658,-2.0643,-2.0664,-2.0599,-2.0571,-2.0534,-2.0437,-2.0416,-2.0385,-3.0526,-3.0311,-2.9089,-2.8544,-2.8312,-2.6868,-2.622,-2.6221,-2.6238,-2.6203,-2.6239,-2.6311,-2.6313,-2.6348,-2.6573,-2.6708,-2.6708,-2.6708,-2.6691,-2.6691,-2.6708,-2.6285,-2.5609,-2.5541,-2.4763,-2.3441,-2.3257,-2.2936,-2.2347,-2.2296,-2.1921,-2.1173,-2.1094,-2.0433,-1.924,-1.9127,-1.8852,-1.8349,-1.829,-1.8239,-1.8215,-1.819,-1.7923,-1.7586,-1.7616,-1.7751,-1.7974,-1.8634,-1.9058,-1.9107,-1.9043,-1.9075,-1.9201,-1.918,-1.9471,-2.0228,-2.1088,-2.1941,-2.2776,-2.3428,-2.3933,-2.408,-2.4043,-2.4201,-2.4353,-2.4578,-2.4742,-2.4869,-2.4987,-2.5103,-2.4956,-2.3695,-2.2734,-2.2467,-2.1129,-2.0289,-2.0131,-2.0144,-2.0173,-2.0135,-2.0208,-2.0851,-2.2288,-2.4111,-2.4233,-2.3485,-2.2877,-2.2814,-2.2998,-2.4212,-2.4166,-2.3049,-2.1764,-2.0594,-2.0652,-2.1394,-2.2194,-2.3463,-2.4868,-2.5317,-2.5551,-2.5356,-2.3619,-2.2233,-2.1238,-2.0672,-2.0613,-2.0598,-2.0604,-2.0623,-2.0695,-2.0675,-2.0801,-2.0507,-2.0418,-3.0489,-3.0406,-2.945,-2.8804,-2.8293,-2.7315,-2.6634,-2.6185,-2.6185,-2.6185,-2.6203,-2.6277,-2.6312,-2.6313,-2.6486,-2.6555,-2.6572,-2.6623,-2.6623,-2.664,-2.6691,-2.6302,-2.5643,-2.5609,-2.5101,-2.4186,-2.363,-2.3021,-2.2381,-2.2313,-2.1921,-2.1326,-2.1204,-2.0675,-1.9857,-1.9682,-1.935,-1.8734,-1.8648,-1.8427,-1.8012,-1.8042,-1.8045,-1.7949,-1.8188,-1.8395,-1.8533,-1.8865,-1.906,-1.9099,-1.9107,-1.9166,-1.9337,-1.9782,-2.0439,-2.129,-2.2097,-2.2923,-2.3657,-2.4043,-2.4199,-2.4199,-2.4199,-2.4238,-2.4384,-2.4528,-2.4681,-2.4736,-2.4449,-2.4344,-2.4144,-2.3277,-2.2396,-2.1784,-2.0824,-2.0112,-2.0112,-2.0126,-2.0131,-2.0122,-2.0168,-2.0828,-2.246,-2.4152,-2.497,-2.4572,-2.4421,-2.4403,-2.435,-2.4344,-2.4144,-2.4205,-2.2483,-2.1121,-2.2742,-2.3522,-2.4262,-2.4711,-2.5395,-2.4986,-2.4966,-2.3365,-2.1589,-2.1492,-2.0711,-2.0769,-2.0808,-2.0692,-2.068,-2.0898,-2.0965,-2.1335,-2.1357,-2.1146,-2.0784,-3.0489,-3.0373,-2.9715,-2.9135,-2.8622,-2.7696,-2.7017,-2.6551,-2.6285,-2.6185,-2.6203,-2.6258,-2.6259,-2.6277,-2.6346,-2.6398,-2.6432,-2.6537,-2.6623,-2.6606,-2.6691,-2.642,-2.6031,-2.5964,-2.5558,-2.478,-2.3833,-2.3021,-2.2381,-2.2313,-2.2057,-2.1583,-2.1563,-2.116,-2.0504,-2.0382,-2.001,-1.9384,-1.9029,-1.864,-1.8183,-1.803,-1.8009,-1.8103,-1.8371,-1.8642,-1.8861,-1.8922,-1.9008,-1.9084,-1.9101,-1.9261,-1.9636,-2.0234,-2.1064,-2.2035,-2.2648,-2.3318,-2.4042,-2.4198,-2.4199,-2.4199,-2.4199,-2.4247,-2.4348,-2.4248,-2.4238,-2.4211,-2.3752,-2.3301,-2.3004,-2.2522,-2.1994,-2.1388,-2.0633,-2.0131,-2.0112,-2.0112,-2.0112,-2.0112,-2.0117,-2.0881,-2.2396,-2.4129,-2.5015,-2.5282,-2.5293,-2.5327,-2.5152,-2.4594,-2.4064,-2.5204,-2.3884,-2.331,-2.4019,-2.4725,-2.4535,-2.4868,-2.4614,-2.4341,-2.3834,-2.1921,-2.073,-2.0633,-2.0789,-2.0965,-2.0984,-2.0867,-2.1006,-2.1264,-2.1758,-2.2222,-2.2068,-2.1832,-2.1729,-3.0489,-3.0406,-2.9711,-2.9413,-2.9152,-2.8028,-2.7365,-2.7133,-2.6535,-2.6268,-2.6236,-2.6203,-2.6187,-2.6203,-2.6221,-2.6203,-2.6257,-2.6468,-2.6572,-2.6572,-2.664,-2.6691,-2.6573,-2.659,-2.6201,-2.5456,-2.412,-2.3071,-2.2431,-2.2347,-2.2245,-2.2262,-2.2195,-2.1837,-2.1207,-2.1173,-2.0788,-2.0065,-1.9435,-1.9029,-1.8821,-1.8387,-1.8109,-1.809,-1.8239,-1.8451,-1.876,-1.8843,-1.894,-1.9052,-1.9078,-1.9475,-2.0135,-2.0669,-2.1443,-2.251,-2.2885,-2.3334,-2.3975,-2.4161,-2.4199,-2.4199,-2.4199,-2.4182,-2.4054,-2.3651,-2.3375,-2.3348,-2.2904,-2.224,-2.1747,-2.1629,-2.1517,-2.1311,-2.0614,-2.0284,-2.0131,-2.0112,-2.0112,-2.0112,-2.0112,-2.0819,-2.2409,-2.4121,-2.5154,-2.5266,-2.5297,-2.5298,-2.5322,-2.5135,-2.5399,-2.5517,-2.5039,-2.4822,-2.5249,-2.5614,-2.4939,-2.438,-2.3814,-2.3385,-2.3287,-2.2018,-2.0886,-2.0691,-2.196,-2.2194,-2.2097,-2.1999,-2.198,-2.2257,-2.2732,-2.3086,-2.3002,-2.2939,-2.3132,-3.0489,-3.0472,-3.0257,-2.986,-2.938,-2.892,-2.8224,-2.7315,-2.7017,-2.6667,-2.627,-2.6185,-2.6185,-2.6185,-2.6185,-2.6185,-2.6203,-2.6346,-2.6399,-2.6434,-2.6555,-2.6623,-2.664,-2.6674,-2.6319,-2.5558,-2.4628,-2.378,-2.3071,-2.2533,-2.2313,-2.2313,-2.2313,-2.2209,-2.1955,-2.1938,-2.1583,-2.0906,-2.0615,-2.0242,-1.9727,-1.9447,-1.9121,-1.8693,-1.8739,-1.8694,-1.8365,-1.8566,-1.8743,-1.8887,-1.8932,-1.938,-2.0273,-2.128,-2.2117,-2.2765,-2.3415,-2.3801,-2.403,-2.4142,-2.419,-2.419,-2.419,-2.3915,-2.3492,-2.3249,-2.2943,-2.2656,-2.2368,-2.2161,-2.2104,-2.2135,-2.1752,-2.0633,-2.0771,-2.0766,-2.0418,-2.0265,-2.0112,-2.0112,-2.0112,-2.0857,-2.2429,-2.4154,-2.517,-2.5228,-2.525,-2.5247,-2.5303,-2.5346,-2.5345,-2.5335,-2.5459,-2.5612,-2.5639,-2.5607,-2.5237,-2.4604,-2.3906,-2.3423,-2.313,-2.2506,-2.1394,-2.155,-2.2799,-2.319,-2.3111,-2.319,-2.3209,-2.3211,-2.3549,-2.3808,-2.4003,-2.415,-2.4286,-3.0489,-3.0489,-3.0489,-3.0241,-2.9761,-2.9512,-2.892,-2.8042,-2.7514,-2.7033,-2.6634,-2.6301,-2.6185,-2.6185,-2.6185,-2.6185,-2.622,-2.624,-2.6259,-2.6294,-2.6503,-2.6589,-2.6623,-2.6674,-2.6319,-2.5575,-2.4846,-2.4118,-2.3393,-2.2668,-2.2313,-2.2313,-2.2313,-2.2296,-2.2313,-2.2296,-2.204,-2.1617,-2.1326,-2.0953,-2.05,-2.0137,-1.9778,-1.9396,-1.9413,-1.9127,-1.8553,-1.8704,-1.8793,-1.8827,-1.9173,-2.0011,-2.1067,-2.222,-2.295,-2.3216,-2.3648,-2.4016,-2.4026,-2.4122,-2.4161,-2.417,-2.418,-2.386,-2.3161,-2.2866,-2.2473,-2.2516,-2.2264,-2.2423,-2.3051,-2.3,-2.2414,-2.154,-2.1664,-2.1703,-2.1411,-2.176,-2.2046,-2.2199,-2.2142,-2.2568,-2.3542,-2.4293,-2.5203,-2.5206,-2.5212,-2.5204,-2.5243,-2.5278,-2.5233,-2.5222,-2.5308,-2.5441,-2.5559,-2.553,-2.5469,-2.4921,-2.429,-2.4004,-2.3755,-2.2955,-2.198,-2.3169,-2.4399,-2.3814,-2.3658,-2.4302,-2.4556,-2.454,-2.4424,-2.4683,-2.4941,-2.5117,-2.5229,-3.0447,-3.0464,-3.0464,-3.041,-3.0332,-2.9736,-2.9343,-2.9016,-2.7978,-2.7298,-2.7033,-2.6452,-2.6185,-2.6185,-2.6185,-2.6185,-2.6185,-2.6203,-2.6187,-2.6258,-2.645,-2.6572,-2.6606,-2.6674,-2.6353,-2.5727,-2.4914,-2.4169,-2.3562,-2.2719,-2.2313,-2.2313,-2.2313,-2.2313,-2.2313,-2.2313,-2.2279,-2.2127,-2.1617,-2.1309,-2.1241,-2.0623,-2.0154,-2.0099,-2.0128,-1.9833,-1.9263,-1.9213,-1.9054,-1.8808,-1.9893,-2.1094,-2.2301,-2.3306,-2.3694,-2.3715,-2.384,-2.3907,-2.3927,-2.4054,-2.4103,-2.4132,-2.4042,-2.3841,-2.307,-2.2409,-2.2195,-2.2696,-2.2531,-2.2851,-2.3888,-2.4098,-2.367,-2.3517,-2.313,-2.3078,-2.3575,-2.4364,-2.4498,-2.4765,-2.5115,-2.5134,-2.4943,-2.5115,-2.5164,-2.5201,-2.5206,-2.5198,-2.5215,-2.522,-2.5223,-2.5234,-2.5255,-2.5313,-2.5453,-2.5605,-2.5543,-2.5357,-2.4846,-2.466,-2.4494,-2.3754,-2.3346,-2.4575,-2.5141,-2.4555,-2.4439,-2.5025,-2.5357,-2.526,-2.534,-2.5635,-2.5698,-2.5682,-2.5663,-2.9984,-2.9968,-2.9984,-3.0027,-3.013,-3.0002,-2.9412,-2.857,-2.8271,-2.7497,-2.6667,-2.6303,-2.6185,-2.6185,-2.6185,-2.6185,-2.6185,-2.6185,-2.6185,-2.6203,-2.6329,-2.6469,-2.6572,-2.6623,-2.6556,-2.6201,-2.51,-2.4404,-2.4118,-2.2902,-2.233,-2.2313,-2.2313,-2.2313,-2.2313,-2.2313,-2.2313,-2.2279,-2.2144,-2.1989,-2.1955,-2.1789,-2.1431,-2.0906,-2.0899,-2.0522,-1.9861,-1.9776,-1.9629,-1.9384,-2.0593,-2.1604,-2.2335,-2.3163,-2.3703,-2.3789,-2.3855,-2.3896,-2.3917,-2.4034,-2.4112,-2.4049,-2.3711,-2.3244,-2.3024,-2.2263,-2.1985,-2.2331,-2.2936,-2.3651,-2.3886,-2.4639,-2.4955,-2.4746,-2.4412,-2.4446,-2.4675,-2.4981,-2.521,-2.521,-2.521,-2.521,-2.521,-2.521,-2.5216,-2.5203,-2.5203,-2.5208,-2.5201,-2.5201,-2.5208,-2.5203,-2.5231,-2.5268,-2.538,-2.5571,-2.5654,-2.566,-2.5478,-2.539,-2.5285,-2.502,-2.5002,-2.557,-2.5492,-2.5043,-2.5161,-2.5532,-2.5687,-2.5687,-2.5689,-2.5691,-2.5697,-2.5682,-2.5683,-2.9506,-2.9506,-2.9506,-2.9595,-2.9766,-2.9957,-2.9454,-2.8684,-2.8414,-2.7763,-2.6766,-2.6319,-2.6185,-2.6185,-2.6185,-2.6185,-2.6185,-2.6185,-2.6185,-2.622,-2.624,-2.6399,-2.6571,-2.6623,-2.664,-2.6522,-2.5202,-2.4575,-2.422,-2.3021,-2.2381,-2.2313,-2.2313,-2.2313,-2.2313,-2.2313,-2.2313,-2.2296,-2.2313,-2.2313,-2.2313,-2.2313,-2.211,-2.1718,-2.1651,-2.1295,-2.0636,-2.0517,-2.0437,-2.0487,-2.1138,-2.1879,-2.2552,-2.3191,-2.3623,-2.3743,-2.3831,-2.3847,-2.3868,-2.3966,-2.4024,-2.3971,-2.36,-2.3308,-2.2997,-2.252,-2.2354,-2.2968,-2.3778,-2.434,-2.4855,-2.5512,-2.5544,-2.5087,-2.5113,-2.5205,-2.521,-2.5191,-2.521,-2.521,-2.521,-2.521,-2.521,-2.521,-2.521,-2.521,-2.521,-2.521,-2.521,-2.521,-2.521,-2.521,-2.5216,-2.5245,-2.5322,-2.5479,-2.5637,-2.5669,-2.5703,-2.5694,-2.5705,-2.5697,-2.5683,-2.5686,-2.5687,-2.5687,-2.5687,-2.5687,-2.5687,-2.5687,-2.5687,-2.569,-2.5696,-2.5699,-2.5703,-2.902,-2.9044,-2.9044,-2.9143,-2.9339,-2.9536,-2.9237,-2.8833,-2.8296,-2.7703,-2.696,-2.6398,-2.615,-2.6168,-2.6185,-2.6185,-2.6185,-2.6185,-2.6185,-2.6185,-2.6205,-2.6329,-2.652,-2.6537,-2.6488,-2.6269,-2.5101,-2.4492,-2.3985,-2.2902,-2.2364,-2.2313,-2.2313,-2.2313,-2.2313,-2.2313,-2.2313,-2.2313,-2.2313,-2.2313,-2.2313,-2.2313,-2.2245,-2.2212,-2.2161,-2.1921,-2.1478,-2.1322,-2.1338,-2.1473,-2.1631,-2.2178,-2.2989,-2.3313,-2.3544,-2.3678,-2.375,-2.3806,-2.3816,-2.3868,-2.3907,-2.3909,-2.4008,-2.3911,-2.3426,-2.3263,-2.3492,-2.4383,-2.441,-2.5223,-2.6327,-2.6385,-2.5906,-2.5471,-2.5361,-2.5187,-2.521,-2.521,-2.521,-2.521,-2.521,-2.521,-2.521,-2.521,-2.521,-2.521,-2.521,-2.521,-2.521,-2.521,-2.521,-2.521,-2.5197,-2.5214,-2.5298,-2.5399,-2.5543,-2.5656,-2.5693,-2.5707,-2.5697,-2.5689,-2.5699,-2.5703,-2.5697,-2.5699,-2.5707,-2.5687,-2.5667,-2.5687,-2.5687,-2.569,-2.5693,-2.5695,-2.5702,-2.8565,-2.8534,-2.8565,-2.8677,-2.8779,-2.8566,-2.8173,-2.7665,-2.7246,-2.6752,-2.6155,-2.5967,-2.6007,-2.6045,-2.6168,-2.6185,-2.6185,-2.6185,-2.6185,-2.6185,-2.6185,-2.6258,-2.6365,-2.6365,-2.6134,-2.5681,-2.4888,-2.4177,-2.3547,-2.2868,-2.2313,-2.2313,-2.2313,-2.2313,-2.2313,-2.2313,-2.2313,-2.2313,-2.2313,-2.2313,-2.2313,-2.2313,-2.2313,-2.2313,-2.2313,-2.2245,-2.2124,-2.2073,-2.207,-2.2126,-2.2231,-2.2465,-2.2892,-2.3187,-2.343,-2.3611,-2.3728,-2.3795,-2.3806,-2.3847,-2.3896,-2.3907,-2.4087,-2.4295,-2.4772,-2.4216,-2.4694,-2.5603,-2.575,-2.615,-2.7134,-2.7026,-2.6625,-2.6298,-2.5759,-2.5272,-2.5212,-2.5224,-2.521,-2.521,-2.521,-2.521,-2.521,-2.521,-2.521,-2.521,-2.521,-2.521,-2.521,-2.521,-2.521,-2.521,-2.521,-2.5208,-2.5252,-2.5361,-2.5495,-2.5615,-2.5663,-2.5699,-2.5691,-2.5696,-2.5705,-2.5705,-2.5699,-2.5669,-2.5525,-2.5547,-2.5486,-2.5587,-2.5687,-2.5689,-2.569,-2.5692,-2.5694,-2.8014,-2.7984,-2.768,-2.7673,-2.7812,-2.7486,-2.702,-2.6604,-2.6454,-2.604,-2.5592,-2.5645,-2.5809,-2.5954,-2.6115,-2.6185,-2.6185,-2.6185,-2.6185,-2.6185,-2.6185,-2.6221,-2.624,-2.6192,-2.5963,-2.5429,-2.4755,-2.4061,-2.3378,-2.2702,-2.2313,-2.2313,-2.2313,-2.2313,-2.2313,-2.2296,-2.2313,-2.2313,-2.2313,-2.2313,-2.2313,-2.2313,-2.2313,-2.2313,-2.2313,-2.2313,-2.2279,-2.2296,-2.2296,-2.2341,-2.238,-2.2511,-2.2803,-2.3052,-2.3307,-2.3522,-2.3707,-2.3785,-2.3806,-2.3827,-2.3847,-2.3902,-2.4265,-2.4743,-2.5121,-2.4962,-2.5403,-2.6208,-2.6551,-2.6835,-2.7219,-2.7083,-2.6887,-2.6859,-2.6484,-2.6157,-2.6116,-2.5659,-2.521,-2.521,-2.521,-2.521,-2.521,-2.521,-2.521,-2.521,-2.521,-2.521,-2.521,-2.521,-2.521,-2.521,-2.521,-2.5208,-2.5228,-2.5313,-2.5453,-2.5556,-2.563,-2.5667,-2.5701,-2.5705,-2.5705,-2.5629,-2.5513,-2.529,-2.5184,-2.5244,-2.5405,-2.5606,-2.5706,-2.5687,-2.5688,-2.5689,-2.569,-2.7585,-2.754,-2.6856,-2.6748,-2.6875,-2.6405,-2.6019,-2.57,-2.5686,-2.5428,-2.5213,-2.5313,-2.5516,-2.5789,-2.5989,-2.6096,-2.6096,-2.6061,-2.6025,-2.6025,-2.6025,-2.6043,-2.6061,-2.6031,-2.5691,-2.5229,-2.4625,-2.3949,-2.3148,-2.262,-2.2223,-2.2237,-2.2251,-2.2237,-2.2237,-2.2251,-2.222,-2.2206,-2.2223,-2.2254,-2.2285,-2.2285,-2.2299,-2.2313,-2.2313,-2.2313,-2.2313,-2.2313,-2.2313,-2.2313,-2.2313,-2.2432,-2.2659,-2.294,-2.3182,-2.3441,-2.3642,-2.3771,-2.3803,-2.3813,-2.3842,-2.3958,-2.4784,-2.535,-2.5572,-2.6064,-2.6534,-2.6885,-2.7313,-2.7508,-2.7053,-2.7267,-2.7286,-2.7285,-2.7438,-2.7495,-2.7361,-2.6496,-2.6263,-2.521,-2.521,-2.521,-2.521,-2.521,-2.521,-2.521,-2.521,-2.521,-2.521,-2.521,-2.521,-2.521,-2.521,-2.521,-2.5225,-2.5241,-2.538,-2.549,-2.5568,-2.5632,-2.5669,-2.5699,-2.5642,-2.5409,-2.5237,-2.507,-2.4979,-2.5024,-2.5246,-2.5546,-2.5704,-2.5703,-2.5704,-2.5705,-2.5687,-2.7585,-2.754,-2.6856,-2.6684,-2.6648,-2.5705,-2.5214,-2.5192,-2.4781,-2.4652,-2.4746,-2.4902,-2.515,-2.5394,-2.5621,-2.5696,-2.5696,-2.5696,-2.568,-2.568,-2.568,-2.5696,-2.568,-2.5738,-2.5196,-2.4364,-2.4032,-2.3527,-2.2578,-2.2092,-2.2087,-2.2073,-2.2073,-2.2073,-2.2073,-2.2041,-2.2073,-2.2087,-2.2087,-2.2118,-2.2211,-2.2242,-2.2254,-2.2313,-2.2313,-2.2313,-2.2313,-2.2313,-2.2313,-2.2313,-2.2313,-2.2411,-2.2658,-2.2894,-2.3163,-2.3324,-2.356,-2.3743,-2.3894,-2.3865,-2.4176,-2.4766,-2.559,-2.6386,-2.6972,-2.7651,-2.7875,-2.8147,-2.8364,-2.8544,-2.862,-2.839,-2.8625,-2.8719,-2.8635,-2.8563,-2.8387,-2.8358,-2.7831,-2.6327,-2.5747,-2.521,-2.521,-2.521,-2.521,-2.521,-2.521,-2.521,-2.521,-2.521,-2.521,-2.521,-2.521,-2.521,-2.5216,-2.5209,-2.5284,-2.5395,-2.5471,-2.5585,-2.563,-2.5671,-2.5582,-2.5446,-2.5251,-2.5081,-2.4991,-2.4939,-2.5174,-2.5567,-2.5651,-2.5697,-2.5698,-2.5699,-2.5705,-2.7585,-2.7495,-2.6497,-2.6102,-2.5948,-2.4814,-2.4323,-2.4321,-2.4067,-2.4073,-2.4302,-2.4492,-2.4699,-2.4954,-2.5134,-2.523,-2.523,-2.5246,-2.523,-2.5246,-2.5246,-2.5246,-2.525,-2.5365,-2.4677,-2.396,-2.372,-2.3236,-2.2118,-2.203,-2.1998,-2.1998,-2.1998,-2.1998,-2.1998,-2.2013,-2.1998,-2.1998,-2.1998,-2.2058,-2.2183,-2.2228,-2.2268,-2.2282,-2.2313,-2.2313,-2.2313,-2.2313,-2.2313,-2.2381,-2.2651,-2.2875,-2.3124,-2.3433,-2.3627,-2.3385,-2.3506,-2.3878,-2.4255,-2.4422,-2.4791,-2.557,-2.6383,-2.6957,-2.7501,-2.8058,-2.8688,-2.8755,-2.8755,-2.8815,-2.8808,-2.8929,-2.8952,-2.8987,-2.9044,-2.8978,-2.9013,-2.9512,-2.8698,-2.7449,-2.688,-2.6161,-2.521,-2.521,-2.521,-2.521,-2.521,-2.521,-2.521,-2.521,-2.521,-2.521,-2.521,-2.521,-2.521,-2.5201,-2.5201,-2.5308,-2.54,-2.5492,-2.5582,-2.5627,-2.5669,-2.564,-2.5407,-2.5188,-2.5062,-2.503,-2.5317,-2.5547,-2.5637,-2.5707,-2.569,-2.5694,-2.5701,-2.7585,-2.7495,-2.6288,-2.5809,-2.5585,-2.4373,-2.3834,-2.3774,-2.3676,-2.376,-2.3961,-2.4156,-2.4349,-2.4517,-2.4679,-2.4779,-2.4764,-2.4779,-2.4799,-2.4799,-2.4779,-2.4779,-2.4823,-2.4676,-2.4263,-2.3435,-2.3189,-2.2882,-2.2132,-2.1957,-2.1972,-2.194,-2.1955,-2.1955,-2.1957,-2.194,-2.1938,-2.1938,-2.1955,-2.2032,-2.2137,-2.2225,-2.2299,-2.2299,-2.2313,-2.2313,-2.2313,-2.2313,-2.2448,-2.2682,-2.3038,-2.3456,-2.3752,-2.4307,-2.4239,-2.3641,-2.3724,-2.4302,-2.4783,-2.5121,-2.5474,-2.6309,-2.6959,-2.735,-2.7737,-2.825,-2.865,-2.8676,-2.87,-2.8731,-2.8798,-2.8816,-2.881,-2.8822,-2.8905,-2.9003,-2.914,-2.9415,-2.9663,-2.8744,-2.8043,-2.6993,-2.585,-2.521,-2.521,-2.521,-2.521,-2.521,-2.521,-2.521,-2.521,-2.521,-2.521,-2.521,-2.521,-2.521,-2.5201,-2.5245,-2.5298,-2.5386,-2.5495,-2.5577,-2.5609,-2.5632,-2.563,-2.5433,-2.5268,-2.5159,-2.5391,-2.5566,-2.5652,-2.5696,-2.5701,-2.5687,-2.5696,-2.7585,-2.7525,-2.6782,-2.6482,-2.6243,-2.4993,-2.4485,-2.441,-2.3909,-2.3696,-2.4021,-2.4006,-2.4179,-2.4259,-2.4364,-2.4395,-2.4349,-2.4349,-2.4369,-2.4354,-2.4354,-2.4323,-2.4266,-2.392,-2.3488,-2.2821,-2.2476,-2.2167,-2.1811,-2.1751,-2.1796,-2.1796,-2.1864,-2.1844,-2.1947,-2.2064,-2.1825,-2.1844,-2.1827,-2.1855,-2.1959,-2.2094,-2.2183,-2.2211,-2.2268,-2.2313,-2.233,-2.2398,-2.2632,-2.3173,-2.3342,-2.3763,-2.4252,-2.4454,-2.4549,-2.4631,-2.4896,-2.5288,-2.5485,-2.5631,-2.6065,-2.679,-2.72,-2.7635,-2.809,-2.8375,-2.8619,-2.8682,-2.8688,-2.8706,-2.8761,-2.8785,-2.8804,-2.8804,-2.8798,-2.8917,-2.9078,-2.9149,-2.9402,-2.9645,-2.8822,-2.7485,-2.6206,-2.5665,-2.521,-2.521,-2.521,-2.521,-2.521,-2.521,-2.521,-2.521,-2.521,-2.521,-2.521,-2.521,-2.5216,-2.5214,-2.5241,-2.5289,-2.5365,-2.5456,-2.5491,-2.5529,-2.5573,-2.5634,-2.552,-2.5487,-2.5545,-2.5603,-2.5685,-2.5689,-2.5692,-2.5701,-2.5689,-2.7585,-2.7525,-2.6881,-2.6602,-2.6422,-2.5158,-2.4829,-2.4963,-2.4455,-2.4425,-2.477,-2.4882,-2.4746,-2.4465,-2.4457,-2.4252,-2.3979,-2.3931,-2.3909,-2.3931,-2.39,-2.3749,-2.3426,-2.3238,-2.2867,-2.2144,-2.181,-2.159,-2.1408,-2.1433,-2.1526,-2.1608,-2.1935,-2.2164,-2.2164,-2.2508,-2.2442,-2.218,-2.1834,-2.1649,-2.1753,-2.1901,-2.2049,-2.2106,-2.2223,-2.2299,-2.2415,-2.2784,-2.3021,-2.3562,-2.4036,-2.4763,-2.5152,-2.5489,-2.5825,-2.5971,-2.6158,-2.6192,-2.6055,-2.6137,-2.6662,-2.7281,-2.7625,-2.7928,-2.843,-2.8574,-2.8612,-2.8644,-2.8632,-2.8662,-2.8724,-2.8687,-2.8687,-2.8687,-2.87,-2.8773,-2.8881,-2.8947,-2.9112,-2.9392,-2.9542,-2.8267,-2.7059,-2.628,-2.5684,-2.5284,-2.5251,-2.521,-2.521,-2.521,-2.521,-2.521,-2.521,-2.521,-2.521,-2.521,-2.521,-2.5203,-2.5203,-2.5241,-2.5253,-2.5298,-2.5351,-2.5394,-2.5421,-2.5518,-2.5649,-2.5679,-2.5621,-2.566,-2.5699,-2.5703,-2.5707,-2.5692,-2.5701,-2.7585,-2.7555,-2.7061,-2.6851,-2.6761,-2.5576,-2.5382,-2.5734,-2.5128,-2.5128,-2.5412,-2.5375,-2.4993,-2.4634,-2.4373,-2.4028,-2.3631,-2.3595,-2.3595,-2.3595,-2.355,-2.3413,-2.3197,-2.299,-2.2452,-2.1397,-2.1456,-2.1151,-2.0946,-2.1051,-2.1342,-2.144,-2.2131,-2.2404,-2.2597,-2.2789,-2.2837,-2.2469,-2.2068,-2.1956,-2.2053,-2.2042,-2.2127,-2.2176,-2.2255,-2.2352,-2.262,-2.3021,-2.3359,-2.4255,-2.4898,-2.5507,-2.5879,-2.6234,-2.6505,-2.6605,-2.6702,-2.6628,-2.6502,-2.6596,-2.7067,-2.7542,-2.7989,-2.8125,-2.85,-2.8587,-2.8786,-2.8956,-2.8685,-2.8757,-2.883,-2.8811,-2.8612,-2.8625,-2.8612,-2.8662,-2.87,-2.8773,-2.887,-2.9082,-2.9299,-2.9372,-2.8213,-2.7127,-2.6295,-2.5556,-2.5298,-2.525,-2.5224,-2.5243,-2.5224,-2.5243,-2.521,-2.5205,-2.5205,-2.5205,-2.5205,-2.5205,-2.5205,-2.5222,-2.5228,-2.5228,-2.5253,-2.5285,-2.5307,-2.5408,-2.5557,-2.5637,-2.5699,-2.5699,-2.5699,-2.5699,-2.5701,-2.5687,-2.5691,-2.7585,-2.7585,-2.7525,-2.748,-2.7435,-2.6767,-2.6452,-2.6452,-2.5839,-2.5585,-2.5591,-2.5068,-2.4889,-2.4515,-2.4111,-2.3804,-2.3595,-2.3595,-2.3595,-2.3595,-2.358,-2.349,-2.3233,-2.2881,-2.2455,-2.1785,-2.1366,-2.0847,-2.0626,-2.1034,-2.137,-2.1736,-2.2368,-2.2605,-2.2733,-2.2875,-2.2923,-2.2686,-2.2451,-2.2542,-2.2607,-2.2571,-2.2426,-2.2484,-2.2412,-2.2517,-2.3169,-2.3414,-2.4019,-2.5084,-2.5542,-2.5947,-2.6387,-2.659,-2.6708,-2.6742,-2.6758,-2.6706,-2.6684,-2.6827,-2.7186,-2.7535,-2.7938,-2.8423,-2.8956,-2.868,-2.891,-2.9577,-2.9337,-2.9174,-2.9246,-2.9156,-2.8853,-2.86,-2.86,-2.8625,-2.865,-2.8619,-2.8737,-2.8858,-2.8975,-2.9093,-2.9138,-2.8,-2.702,-2.6269,-2.5704,-2.5621,-2.5384,-2.5346,-2.5294,-2.5281,-2.5224,-2.5205,-2.518,-2.518,-2.5185,-2.5185,-2.518,-2.5205,-2.5203,-2.521,-2.521,-2.5214,-2.5255,-2.537,-2.546,-2.5541,-2.5604,-2.5665,-2.5699,-2.5699,-2.5699,-2.5703,-2.5703,-2.7585,-2.7585,-2.7585,-2.7585,-2.7555,-2.6896,-2.6851,-2.7076,-2.6497,-2.6213,-2.6183,-2.5914,-2.5352,-2.4694,-2.438,-2.3969,-2.3655,-2.3595,-2.3595,-2.3595,-2.358,-2.3385,-2.3107,-2.2768,-2.2244,-2.1472,-2.0967,-2.0518,-2.0071,-2.1046,-2.1455,-2.1934,-2.2624,-2.2968,-2.308,-2.3064,-2.3064,-2.2921,-2.2673,-2.2534,-2.2692,-2.277,-2.2646,-2.2492,-2.2726,-2.2869,-2.3308,-2.3836,-2.4644,-2.5423,-2.5998,-2.637,-2.6607,-2.6674,-2.6708,-2.6708,-2.6708,-2.6708,-2.6742,-2.6858,-2.6989,-2.7352,-2.8037,-2.8962,-2.9723,-2.985,-3.0044,-3.0279,-3.0206,-3.003,-2.9639,-2.9518,-2.9246,-2.8817,-2.86,-2.8625,-2.8625,-2.8612,-2.8625,-2.8749,-2.8822,-2.8905,-2.8929,-2.8812,-2.785,-2.6972,-2.6438,-2.5927,-2.5602,-2.5761,-2.5876,-2.5602,-2.5513,-2.5133,-2.5082,-2.5126,-2.5174,-2.5174,-2.5168,-2.5205,-2.521,-2.521,-2.521,-2.5203,-2.5203,-2.5285,-2.5361,-2.5452,-2.5541,-2.5642,-2.5689,-2.5699,-2.5699,-2.5697,-2.5699,-2.7585,-2.7585,-2.7585,-2.7585,-2.7525,-2.7106,-2.7151,-2.7465,-2.7121,-2.6752,-2.6611,-2.6378,-2.5704,-2.4799,-2.4321,-2.4066,-2.3684,-2.3595,-2.3595,-2.3595,-2.3535,-2.3325,-2.3107,-2.2868,-2.2553,-2.15,-2.1246,-2.1045,-2.0569,-2.1505,-2.1954,-2.232,-2.2864,-2.3295,-2.3376,-2.3412,-2.3392,-2.3239,-2.2975,-2.2734,-2.2995,-2.2945,-2.3074,-2.2823,-2.2883,-2.3287,-2.3741,-2.435,-2.4966,-2.5761,-2.637,-2.6623,-2.6691,-2.6708,-2.6708,-2.6708,-2.6708,-2.6708,-2.6742,-2.6996,-2.6995,-2.711,-2.8361,-2.9693,-3.0759,-3.0924,-3.0582,-3.1145,-3.106,-3.0826,-3.0278,-3.0129,-2.9663,-2.9192,-2.869,-2.8612,-2.8612,-2.86,-2.86,-2.8637,-2.87,-2.8761,-2.8822,-2.8833,-2.8407,-2.755,-2.6967,-2.623,-2.5424,-2.5884,-2.6855,-2.6451,-2.5925,-2.5441,-2.495,-2.5018,-2.5089,-2.5113,-2.5119,-2.5199,-2.521,-2.521,-2.521,-2.521,-2.5216,-2.521,-2.5258,-2.5332,-2.5479,-2.5634,-2.5649,-2.5656,-2.5671,-2.5669,-2.5697,-2.76,-2.7585,-2.7575,-2.756,-2.7575,-2.757,-2.757,-2.7585,-2.7525,-2.7121,-2.6492,-2.5959,-2.5285,-2.453,-2.3962,-2.3729,-2.3655,-2.3595,-2.3595,-2.3595,-2.3595,-2.355,-2.352,-2.334,-2.3017,-2.2763,-2.2373,-2.1954,-2.1505,-2.2134,-2.2493,-2.2733,-2.3161,-2.3537,-2.3593,-2.3586,-2.3586,-2.3571,-2.3488,-2.3583,-2.3635,-2.3406,-2.3449,-2.3359,-2.3151,-2.3506,-2.4332,-2.4608,-2.5242,-2.6202,-2.6522,-2.6674,-2.6691,-2.6708,-2.6708,-2.6708,-2.6708,-2.6708,-2.6759,-2.7521,-2.7589,-2.7403,-2.8767,-3.0246,-3.1493,-3.1425,-3.1013,-3.176,-3.1567,-3.153,-3.1229,-3.0889,-3.0292,-2.9644,-2.9143,-2.8744,-2.8763,-2.86,-2.86,-2.86,-2.86,-2.8625,-2.8724,-2.8748,-2.8618,-2.8101,-2.7494,-2.6697,-2.5778,-2.637,-2.7636,-2.758,-2.6903,-2.5706,-2.5227,-2.5021,-2.4991,-2.5031,-2.5101,-2.5168,-2.521,-2.521,-2.521,-2.521,-2.521,-2.521,-2.5208,-2.5228,-2.535,-2.5487,-2.5579,-2.5601,-2.5625,-2.5645,-2.5673,-2.7346,-2.7321,-2.7321,-2.7321,-2.7372,-2.7524,-2.7585,-2.7585,-2.7525,-2.7001,-2.6063,-2.5651,-2.4941,-2.4133,-2.3774,-2.3573,-2.3595,-2.3595,-2.3595,-2.3595,-2.3595,-2.3595,-2.3595,-2.3535,-2.3302,-2.2868,-2.2643,-2.2398,-2.165,-2.2428,-2.2673,-2.2853,-2.3281,-2.3565,-2.3595,-2.3595,-2.3595,-2.3595,-2.3601,-2.3666,-2.3831,-2.3751,-2.3692,-2.3651,-2.3488,-2.3895,-2.4732,-2.4779,-2.5397,-2.6285,-2.6504,-2.6606,-2.6624,-2.6657,-2.6708,-2.6708,-2.6708,-2.6962,-2.7452,-2.8147,-2.8538,-2.8694,-2.9347,-3.0659,-3.1543,-3.1812,-3.2007,-3.2342,-3.2355,-3.2347,-3.2017,-3.1818,-3.1256,-3.0423,-2.9844,-2.9318,-2.9083,-2.8763,-2.86,-2.86,-2.86,-2.86,-2.8662,-2.8712,-2.8606,-2.868,-2.8159,-2.7575,-2.6756,-2.7615,-2.8717,-2.8687,-2.8104,-2.6526,-2.5536,-2.5054,-2.4877,-2.4938,-2.5051,-2.5199,-2.521,-2.521,-2.521,-2.521,-2.521,-2.521,-2.5203,-2.522,-2.5228,-2.5308,-2.556,-2.5599,-2.5549,-2.5605,-2.5695,-2.6709,-2.6709,-2.6709,-2.6736,-2.6814,-2.7229,-2.7448,-2.7448,-2.7418,-2.6822,-2.5949,-2.5577,-2.4893,-2.403,-2.3584,-2.3545,-2.3566,-2.3545,-2.3588,-2.3595,-2.3595,-2.3595,-2.3595,-2.358,-2.3415,-2.3077,-2.2972,-2.2742,-2.2503,-2.2817,-2.3032,-2.3182,-2.3385,-2.355,-2.3595,-2.3595,-2.3595,-2.3595,-2.3595,-2.3616,-2.3739,-2.3755,-2.3766,-2.3742,-2.3787,-2.4068,-2.4547,-2.492,-2.5253,-2.5922,-2.6295,-2.6452,-2.6521,-2.6624,-2.6674,-2.6708,-2.6759,-2.7097,-2.7722,-2.8501,-2.8874,-2.9197,-3.016,-3.0917,-3.1473,-3.1827,-3.2178,-3.2565,-3.3024,-3.294,-3.2585,-3.2437,-3.1898,-3.1048,-3.0659,-3.0133,-2.938,-2.9073,-2.8549,-2.8549,-2.86,-2.86,-2.86,-2.8612,-2.8621,-2.8761,-2.8842,-2.825,-2.7693,-2.8444,-2.9071,-2.8989,-2.8747,-2.735,-2.5893,-2.4818,-2.4727,-2.4836,-2.4952,-2.507,-2.521,-2.521,-2.521,-2.521,-2.521,-2.521,-2.521,-2.5222,-2.5225,-2.5445,-2.5796,-2.5747,-2.5524,-2.5551,-2.5637,-2.5797,-2.5783,-2.5797,-2.581,-2.596,-2.6695,-2.7089,-2.713,-2.713,-2.6707,-2.6075,-2.5394,-2.4696,-2.4082,-2.3555,-2.3378,-2.3429,-2.3451,-2.3538,-2.3588,-2.3595,-2.3595,-2.3595,-2.358,-2.3505,-2.355,-2.349,-2.334,-2.3505,-2.3415,-2.3445,-2.3505,-2.3535,-2.3595,-2.3595,-2.3595,-2.3595,-2.3595,-2.3595,-2.3595,-2.3638,-2.3638,-2.3743,-2.3752,-2.3824,-2.4104,-2.4464,-2.4702,-2.5031,-2.553,-2.5979,-2.6191,-2.6383,-2.6573,-2.6641,-2.6708,-2.6708,-2.7165,-2.7925,-2.8756,-2.9365,-2.9858,-3.0643,-3.1253,-3.1523,-3.1746,-3.1966,-3.2318,-3.2688,-3.2914,-3.2963,-3.2637,-3.2293,-3.1852,-3.1564,-3.0835,-2.9909,-2.9287,-2.8657,-2.8497,-2.8574,-2.86,-2.86,-2.8612,-2.86,-2.8687,-2.8779,-2.873,-2.8311,-2.8414,-2.8875,-2.8798,-2.8456,-2.7945,-2.6638,-2.5225,-2.5105,-2.5364,-2.4866,-2.4877,-2.5025,-2.5218,-2.521,-2.521,-2.521,-2.521,-2.521,-2.521,-2.521,-2.5493,-2.5732,-2.5946,-2.5757,-2.5557,-2.5574,-2.5508,-2.5508,-2.5522,-2.5508,-2.5563,-2.581,-2.6,-2.6217,-2.6203,-2.5861,-2.5263,-2.5078,-2.4415,-2.3397,-2.334,-2.3241,-2.3207,-2.326,-2.3458,-2.353,-2.3595,-2.3595,-2.3595,-2.3595,-2.3595,-2.3595,-2.3595,-2.3595,-2.358,-2.361,-2.364,-2.358,-2.3774,-2.3729,-2.3714,-2.3625,-2.3699,-2.367,-2.3699,-2.3595,-2.3595,-2.3595,-2.3717,-2.3767,-2.3921,-2.422,-2.4427,-2.4713,-2.5032,-2.5354,-2.5756,-2.601,-2.6101,-2.6418,-2.664,-2.6708,-2.6826,-2.7216,-2.84,-2.8874,-2.9467,-3.0398,-3.1043,-3.1147,-3.131,-3.1445,-3.1617,-3.1984,-3.2301,-3.2539,-3.2834,-3.2688,-3.261,-3.2501,-3.2238,-3.1708,-3.0693,-2.9433,-2.8818,-2.8458,-2.8536,-2.8562,-2.8562,-2.8549,-2.8549,-2.8612,-2.8662,-2.8712,-2.8737,-2.8761,-2.8743,-2.8662,-2.8518,-2.8084,-2.7031,-2.568,-2.5782,-2.5809,-2.5196,-2.4817,-2.5122,-2.5266,-2.5238,-2.5205,-2.5199,-2.5205,-2.521,-2.521,-2.521,-2.5197,-2.5422,-2.5775,-2.6006,-2.5908,-2.5825,-2.4893,-2.4865,-2.4907,-2.4893,-2.4893,-2.4893,-2.4978,-2.5161,-2.5481,-2.5409,-2.5088,-2.4851,-2.4196,-2.3409,-2.3255,-2.3117,-2.2873,-2.3105,-2.3348,-2.3551,-2.364,-2.3595,-2.3595,-2.3595,-2.3595,-2.3595,-2.3595,-2.3595,-2.367,-2.3924,-2.4007,-2.4051,-2.4193,-2.4358,-2.4462,-2.4515,-2.447,-2.4253,-2.3984,-2.3699,-2.3625,-2.3625,-2.3674,-2.3803,-2.403,-2.4193,-2.4374,-2.4706,-2.4846,-2.5025,-2.5343,-2.5624,-2.583,-2.6242,-2.6589,-2.6725,-2.7114,-2.7774,-2.8739,-2.9314,-3.0091,-3.0818,-3.119,-3.119,-3.121,-3.1288,-3.1445,-3.1654,-3.1911,-3.2161,-3.2489,-3.2766,-3.2959,-3.3096,-3.2844,-3.2625,-3.1252,-2.9736,-2.9052,-2.8582,-2.8458,-2.8497,-2.8497,-2.8458,-2.8471,-2.8484,-2.8554,-2.8618,-2.8637,-2.865,-2.8662,-2.8625,-2.8554,-2.8318,-2.7246,-2.6541,-2.6657,-2.6279,-2.5042,-2.4837,-2.5209,-2.5191,-2.5017,-2.507,-2.5174,-2.5174,-2.518,-2.5205,-2.521,-2.5197,-2.5279,-2.5625,-2.6168,-2.6682,-2.6601,-2.4112,-2.4141,-2.4125,-2.4171,-2.4112,-2.4171,-2.4171,-2.42,-2.4921,-2.5287,-2.5108,-2.4696,-2.4053,-2.3327,-2.3266,-2.31,-2.3096,-2.3275,-2.3666,-2.3693,-2.3819,-2.3789,-2.3625,-2.3595,-2.3595,-2.3595,-2.3625,-2.3684,-2.3872,-2.4156,-2.447,-2.4679,-2.5128,-2.5315,-2.5255,-2.5285,-2.5211,-2.5091,-2.4507,-2.4029,-2.3819,-2.3729,-2.3698,-2.3775,-2.3882,-2.3946,-2.4145,-2.4271,-2.4333,-2.4569,-2.4835,-2.5169,-2.5682,-2.6066,-2.6401,-2.6876,-2.7315,-2.816,-2.8989,-2.9632,-3.0311,-3.0869,-3.119,-3.119,-3.119,-3.119,-3.1329,-3.1387,-3.1632,-3.1856,-3.2144,-3.2403,-3.2603,-3.2752,-3.2676,-3.2476,-3.1773,-3.0088,-2.8581,-2.8227,-2.8201,-2.8214,-2.8017,-2.7961,-2.8073,-2.8214,-2.8393,-2.844,-2.858,-2.8574,-2.8587,-2.8587,-2.8552,-2.8493,-2.8167,-2.7611,-2.7631,-2.6965,-2.5695,-2.5743,-2.6766,-2.6008,-2.478,-2.4877,-2.5012,-2.5113,-2.5162,-2.515,-2.5156,-2.5191,-2.5306,-2.5568,-2.6094,-2.6652,-2.7122,-2.4125,-2.4125,-2.4125,-2.4125,-2.4125,-2.4125,-2.4125,-2.4112,-2.4303,-2.4447,-2.4392,-2.4235,-2.3665,-2.2951,-2.3525,-2.3474,-2.3239,-2.374,-2.4273,-2.435,-2.435,-2.4141,-2.3759,-2.3849,-2.3729,-2.3595,-2.3655,-2.3984,-2.435,-2.4634,-2.4918,-2.5307,-2.5704,-2.5809,-2.5809,-2.5794,-2.5794,-2.5824,-2.548,-2.4852,-2.45,-2.4328,-2.4245,-2.4038,-2.3912,-2.4003,-2.4166,-2.4255,-2.4359,-2.4544,-2.4731,-2.5185,-2.5789,-2.6008,-2.6506,-2.7154,-2.7506,-2.8382,-2.9231,-2.9892,-3.0437,-3.0917,-3.119,-3.119,-3.119,-3.119,-3.121,-3.1249,-3.1368,-3.1579,-3.1785,-3.202,-3.2231,-3.2335,-3.2454,-3.2293,-3.2114,-3.0349,-2.8394,-2.7937,-2.79,-2.776,-2.7535,-2.7535,-2.7669,-2.7858,-2.8079,-2.8242,-2.8479,-2.8562,-2.8549,-2.8562,-2.8587,-2.8529,-2.8409,-2.8343,-2.8209,-2.8245,-2.7401,-2.7703,-2.8231,-2.6293,-2.4522,-2.4665,-2.4794,-2.4907,-2.4999,-2.5006,-2.5025,-2.5125,-2.5199,-2.5409,-2.5415,-2.5832,-2.669,-2.4125,-2.4125,-2.4125,-2.4125,-2.4125,-2.4125,-2.4125,-2.4125,-2.4125,-2.4125,-2.4125,-2.406,-2.3574,-2.2887,-2.366,-2.3876,-2.3571,-2.4201,-2.465,-2.4851,-2.4924,-2.4821,-2.4575,-2.4388,-2.4582,-2.4492,-2.4507,-2.4754,-2.5023,-2.5465,-2.5809,-2.6063,-2.6213,-2.6408,-2.6422,-2.6452,-2.6422,-2.6512,-2.6408,-2.6063,-2.5382,-2.4986,-2.4657,-2.4323,-2.4195,-2.4225,-2.4193,-2.4261,-2.4338,-2.4441,-2.4609,-2.4875,-2.5436,-2.5888,-2.6406,-2.7073,-2.7734,-2.86,-2.9471,-3.0107,-3.0527,-3.096,-3.119,-3.119,-3.119,-3.119,-3.119,-3.123,-3.131,-3.1523,-3.1598,-3.1785,-3.1912,-3.2055,-3.202,-3.1915,-3.1705,-3.0851,-2.8819,-2.7254,-2.7243,-2.7211,-2.7052,-2.7036,-2.7227,-2.763,-2.7844,-2.8128,-2.8353,-2.8523,-2.8523,-2.8497,-2.851,-2.8574,-2.8529,-2.8523,-2.8487,-2.8565,-2.8619,-2.8615,-2.8261,-2.5901,-2.4275,-2.4798,-2.4978,-2.4678,-2.4753,-2.4965,-2.5018,-2.5095,-2.5138,-2.5206,-2.5237,-2.5319,-2.5851,-2.4125,-2.4125,-2.4125,-2.4125,-2.4125,-2.4125,-2.4125,-2.4125,-2.4125,-2.4125,-2.4125,-2.4125,-2.3746,-2.3522,-2.375,-2.381,-2.408,-2.4659,-2.5055,-2.5305,-2.5482,-2.5325,-2.5373,-2.5465,-2.536,-2.5345,-2.5375,-2.5525,-2.5734,-2.6108,-2.6422,-2.6791,-2.718,-2.7555,-2.7585,-2.7555,-2.7405,-2.733,-2.724,-2.7151,-2.6408,-2.554,-2.5213,-2.4873,-2.4611,-2.4383,-2.4495,-2.4574,-2.4589,-2.4657,-2.4911,-2.5174,-2.5431,-2.5986,-2.6523,-2.7159,-2.8095,-2.8886,-2.9621,-3.0272,-3.0707,-3.1072,-3.1131,-3.1151,-3.1131,-3.1131,-3.1112,-3.1171,-3.1252,-3.1368,-3.1445,-3.1502,-3.1634,-3.169,-3.1634,-3.1578,-3.1376,-3.1174,-2.9423,-2.7386,-2.7097,-2.7097,-2.708,-2.7013,-2.723,-2.7584,-2.777,-2.7993,-2.8213,-2.8353,-2.8427,-2.8375,-2.8322,-2.8414,-2.8556,-2.8582,-2.86,-2.8612,-2.8637,-2.8749,-2.8456,-2.6969,-2.5878,-2.5416,-2.5449,-2.5185,-2.504,-2.52,-2.5196,-2.5496,-2.5773,-2.6015,-2.5818,-2.5786,-2.5338,-2.4125,-2.4125,-2.4125,-2.4125,-2.4125,-2.4125,-2.4125,-2.4125,-2.4125,-2.4125,-2.4125,-2.4073,-2.3785,-2.3278,-2.4076,-2.4296,-2.4258,-2.4947,-2.5388,-2.5658,-2.5878,-2.5799,-2.5813,-2.6004,-2.5689,-2.5734,-2.5884,-2.5974,-2.6318,-2.6572,-2.6911,-2.736,-2.739,-2.7585,-2.7585,-2.7585,-2.7585,-2.7585,-2.7585,-2.745,-2.73,-2.6581,-2.606,-2.5809,-2.5637,-2.5697,-2.5809,-2.5935,-2.598,-2.5953,-2.5741,-2.5887,-2.6051,-2.6255,-2.674,-2.745,-2.841,-2.9016,-2.9673,-3.0098,-3.0493,-3.0794,-3.0834,-3.0871,-3.0855,-3.0851,-3.0871,-3.0875,-3.0995,-3.1171,-3.1269,-3.1269,-3.1366,-3.1366,-3.1346,-3.131,-3.1235,-3.1198,-3.0467,-2.9094,-2.8266,-2.8283,-2.8317,-2.83,-2.837,-2.8578,-2.8398,-2.8508,-2.7859,-2.8063,-2.8291,-2.8183,-2.8091,-2.8362,-2.8549,-2.8587,-2.86,-2.86,-2.8612,-2.87,-2.8779,-2.8802,-2.7974,-2.7103,-2.6381,-2.6002,-2.5866,-2.5675,-2.6359,-2.6741,-2.6934,-2.7017,-2.6699,-2.6384,-2.6014]},{"header":{"parameterUnit":"m.s-1","parameterCategory":1,"la1":31.0,"la2":29.5877,"lo1":-88.7671,"lo2":-86.6584,"dy":0.0162,"dx":0.0185,"nx":115,"ny":88,"refTime":"2026-05-05T12:00:00:Z","depth":0,"parameterNumber":3,"parameterNumberName":"V-component_of_WINDS"},"data":[0.0,0.0,0.0,0.0,0.0,0.0,0.0,0.0,0.0,0.0,0.0,0.0,0.0,0.0,0.0,0.0,0.0,0.0,0.0,0.0,0.0,0.0,0.0,0.0,0.0,0.0,0.0,0.0,0.0,0.0,0.0,0.0,0.0,0.0,0.0,0.0,0.0,0.0,0.0,0.0,0.0,0.0,0.0,0.0,0.0,0.0,0.0,0.0,0.0,0.0,0.0,0.0,0.0,0.0,0.0,0.0,0.0,0.0,0.0,0.0,0.0,0.0,0.0,0.0,0.0,0.0,0.0,0.0,0.0,0.0,0.0,0.0,0.0,0.0,0.0,0.0,0.0,0.0,0.0,0.0,0.0,0.0,0.0,0.0,0.0,0.0,0.0,0.0,0.0,0.0,0.0,0.0,0.0,0.0,0.0,0.0,0.0,0.0,0.0,0.0,0.0,0.0,0.0,0.0,0.0,0.0,0.0,0.0,0.0,0.0,0.0,0.0,0.0,0.0,0.0,0.0,0.0,0.0,0.0,0.0,0.0,0.0,0.0,0.0,0.0,0.0,0.0,0.0,0.0,0.0,0.0,0.0,0.0,0.0,0.0,0.0,0.0,0.0,0.0,0.0,0.0,0.0,0.0,0.0,0.0,0.0,0.0,0.0,0.0,0.0,0.0,0.0,0.0,0.0,0.0,0.0,0.0,0.0,0.0,0.0,0.0,0.0,0.0,0.0,0.0,0.0,0.0,0.0,0.0,0.0,0.0,0.0,0.0,0.0,0.0,0.0,0.0,0.0,0.0,0.0,0.0,0.0,0.0,0.0,0.0,0.0,0.0,0.0,0.0,0.0,0.0,0.0,0.0,0.0,0.0,0.0,0.0,0.0,0.0,0.0,0.0,0.0,0.0,0.0,0.0,0.0,0.0,0.0,0.0,0.0,0.0,0.0,0.0,0.0,0.0,0.0,0.0,0.0,0.0,0.0,0.0,0.0,0.0,0.0,0.0,0.0,0.0,0.0,0.0,0.0,0.0,0.0,0.0,0.0,0.0,0.0,0.0,0.0,0.0,0.0,0.0,0.0,0.0,0.0,0.0,0.0,0.0,0.0,0.0,0.0,0.0,0.0,0.0,0.0,0.0,0.0,0.0,0.0,0.0,0.0,0.0,0.0,0.0,0.0,0.0,0.0,0.0,0.0,0.0,0.0,0.0,0.0,0.0,0.0,0.0,0.0,0.0,0.0,0.0,0.0,0.0,0.0,0.0,0.0,0.0,0.0,0.0,0.0,0.0,0.0,0.0,0.0,0.0,0.0,0.0,0.0,0.0,0.0,0.0,0.0,0.0,0.0,0.0,0.0,0.0,0.0,0.0,0.0,0.0,0.0,0.0,0.0,0.0,0.0,0.0,0.0,0.0,0.0,0.0,0.0,0.0,0.0,0.0,0.0,0.0,0.0,0.0,0.0,0.0,0.0,0.0,0.0,0.0,0.0,0.0,0.0,0.0,0.0,0.0,0.0,0.0,0.0,0.0,0.0,0.0,0.0,0.0,0.0,0.0,0.0,0.0,0.0,0.0,0.0,0.0,0.0,0.0,0.0,0.0,0.0,0.0,0.0,0.0,0.0,0.0,0.0,0.0,0.0,0.0,0.0,0.0,0.0,0.0,0.0,0.0,0.0,0.0,0.0,0.0,0.0,0.0,0.0,0.0,0.0,0.0,0.0,0.0,0.0,0.0,0.0,0.0,0.0,0.0,0.0,0.0,0.0,0.0,0.0,0.0,0.0,0.0,0.0,0.0,0.0,0.0,0.0,0.0,0.0,0.0,0.0,0.0,0.0,0.0,0.0,0.0,0.0,0.0,0.0,0.0,0.0,0.0,0.0,0.0,0.0,0.0,0.0,0.0,0.0,0.0,0.0,0.0,0.0,0.0,0.0,0.0,0.0,0.0,0.0,0.0,0.0,0.0,0.0,0.0,0.0,0.0,0.0,0.0,0.0,0.0,0.0,0.0,0.0,0.0,0.0,0.0,0.0,0.0,0.0,0.0,0.0,0.0,0.0,0.0,0.0,0.0,0.0,0.0,0.0,0.0,0.0,0.0,0.0,0.0,0.0,0.0,0.0,0.0,0.0,0.0,0.0,0.0,0.0,0.0,0.0,0.0,0.0,0.0,0.0,0.0,0.0,0.0,0.0,0.0,0.0,0.0,0.0,0.0,0.0,0.0,0.0,0.0,0.0,0.0,0.0,0.0,0.0,0.0,0.0,0.0,0.0,0.0,0.0,0.0,0.0,0.0,0.0,0.0,0.0,0.0,0.0,0.0,0.0,0.0,0.0,0.0,0.0,0.0,0.0,0.0,0.0,0.0,0.0,0.0,0.0,0.0,0.0,0.0,0.0,0.0,0.0,0.0,0.0,0.0,0.0,0.0,0.0,0.0,0.0,0.0,0.0,0.0,0.0,0.0,0.0,0.0,0.0,0.0,0.0,0.0,0.0,0.0,0.0,0.0,0.0,0.0,0.0,0.0,0.0,0.0,0.0,0.0,0.0,0.0,0.0,0.0,0.0,0.0,0.0,0.0,0.0,0.0,0.0,0.0,0.0,0.0,0.0,0.0,0.0,0.0,0.0,0.0,0.0,0.0,0.0,0.0,0.0,0.0,0.0,0.0,0.0,0.0,0.0,0.0,0.0,0.0,0.0,0.0,0.0,0.0,0.0,0.0,0.0,0.0,0.0,0.0,0.0,0.0,0.0,0.0,0.0,0.0,0.0,0.0,0.0,0.0,0.0,0.0,0.0,0.0,0.0,0.0,0.0,0.0,0.0,0.0,0.0,0.0,0.0,0.0,0.0,0.0,0.0,0.0,0.0,0.0,0.0,0.0,0.0,0.0,0.0,0.0,0.0,0.0,0.0,0.0,0.0,0.0,0.0,0.0,0.0,0.0,0.0,0.0,0.0,0.0,0.0,0.0,0.0,0.0,0.0,0.0,0.0,0.0,0.0,0.0,0.0,0.0,0.0,0.0,0.0,0.0,0.0,0.0,0.0,0.0,0.0,0.0,0.0,0.0,0.0,0.0,0.0,0.0,0.0,0.0,0.0,0.0,0.0,0.0,0.0,0.0,0.0,0.0,0.0,0.0,0.0,0.0,0.0,0.0,0.0,0.0,0.0,0.0,0.0,0.0,0.0,0.0,0.0,0.0,0.0,0.0,0.0,0.0,0.0,0.0,0.0,0.0,0.0,0.0,0.0,0.0,0.0,0.0,0.0,0.0,0.0,0.0,0.0,0.0,0.0,0.0,0.0,0.0,0.0,0.0,0.0,0.0,0.0,0.0,0.0,0.0,0.0,0.0,0.0,0.0,0.0,0.0,0.0,0.0,0.0,0.0,0.0,0.0,0.0,0.0,0.0,0.0,0.0,0.0,0.0,0.0,0.0,0.0,0.0,0.0,0.0,0.0,0.0,0.0,0.0,0.0,0.0,0.0,0.0,0.0,0.0,0.0,0.0,0.0,0.0,0.0,0.0,0.0,0.0,0.0,0.0,0.0,0.0,0.0,0.0,0.0,0.0,0.0,0.0,0.0,0.0,0.0,0.0,0.0,0.0,0.0,0.0,0.0,0.0,0.0,0.0,0.0,0.0,0.0,0.0,0.0,0.0,0.0,0.0,0.0,0.0,0.0,0.0,0.0,0.0,0.0,0.0,0.0,0.0,0.0,0.0,0.0,0.0,0.0,0.0,0.0,0.0,0.0,0.0,0.0,0.0,0.0,0.0,0.0,0.0,0.0,0.0,0.0,0.0,0.0,0.0,0.0,0.0,0.0,0.0,0.0,0.0,0.0,0.0,0.0,0.0,0.0,0.0,0.0,0.0,0.0,0.0,0.0,0.0,0.0,0.0,0.0,0.0,0.0,0.0,0.0,0.0,0.0,0.0,0.0,0.0,0.0,0.0,0.0,0.0,0.0,0.0,0.0,0.0,0.0,0.0,0.0,0.0,0.0,0.0,0.0,0.0,0.0,0.0,0.0,0.0,0.0,0.0,0.0,0.0,0.0,0.0,0.0,0.0,0.0,0.0,0.0,0.0,0.0,0.0,0.0,0.0,0.0,0.0,0.0,0.0,0.0,0.0,0.0,0.0,0.0,0.0,0.0,0.0,0.0,0.0,0.0,0.0,0.0,0.0,0.0,0.0,0.0,0.0,0.0,0.0,0.0,0.0,0.0,0.0,0.0,0.0,0.0,0.0,0.0,0.0,0.0,0.0,0.0,0.0,0.0,0.0,0.0,0.0,0.0,0.0,0.1992,0.0,0.0,0.0,0.0,0.0,0.0,0.0,0.0,0.0,0.0,0.0,0.0,0.0,0.0,0.0,0.0,0.0,0.0,0.0,0.0,0.0,0.0,0.0,0.0,0.0,0.0,0.0,0.0,0.0,0.0,0.0,0.0,0.0,0.0,0.0,0.0,0.0,0.0,0.0,0.0,0.0,0.0,0.0,0.0,0.0,0.0,0.0,0.0,0.0,0.0,0.0,0.0,0.0,0.0,0.0,0.0,0.0,0.0,0.0,0.0,0.0,0.0,0.0,0.0,0.0,0.0,0.0,0.0,0.0,0.0,0.0,0.0,0.0,0.0,0.0,0.0,0.0,0.0,0.0,0.0,0.0,0.0,0.0,0.0,0.0,0.0,0.0,0.0,0.0,0.0,0.0,0.0,0.0,0.0,0.0,0.0,0.0,0.0,0.0,0.0,0.0,0.0,0.0,0.0,0.0,0.0,0.0,0.0,0.0,0.0,0.289,0.3015,0.2398,0.2034,0.1949,0.0,0.0,0.0,0.0,0.0,0.0,0.0,0.0,0.0,0.0,0.0,0.0,0.0,0.0,0.0,0.0,0.0,0.0,0.0,0.0,0.0,0.0,0.0,0.0,0.0,0.0,0.0,0.0,0.0,0.0,0.0,0.0,0.0,0.0,0.0,0.0,0.0,0.0,0.0,0.0,0.0,0.0,0.0,0.0,0.0,0.0,0.0,0.0,0.0,0.0,0.0,0.0,0.0,0.0,0.0,0.0,0.0,0.0,0.0,0.0,0.0,0.0,0.0,0.0,0.0,0.0,0.0,0.0,0.0,0.0,0.0,0.0,0.0,0.0,0.0,0.0,0.0,0.0,0.0,0.0,0.0,0.0,0.0,0.0,0.0,0.0,0.0,0.0,0.0,0.0,0.0,0.0,0.0,0.0,0.0,0.0,0.0,0.0,0.0,0.0,0.0,0.0,0.0,0.0,0.0,0.0,0.0,0.0,0.0,0.0,0.0,0.0,0.2685,0.2191,0.1957,0.0,0.0,0.0,0.0,0.0,0.0,0.0,0.0,0.0,0.0,0.0,0.0,0.0,0.0,0.0,0.0,0.0,0.0,0.0,0.0,0.0,0.0,0.0,0.0,0.0,0.0,0.0,0.0,0.0,0.0,0.0,0.0,0.0,0.0,0.0,0.0,0.0,0.0,0.0,0.0,0.0,0.0,0.0,0.0,0.0,0.0,0.0,0.0,0.0,0.0,0.0,0.0,0.0,0.0,0.0,0.0,0.0,0.0,0.0,0.0,0.0,0.0,0.0,0.0,0.0,0.0,0.0,0.0,0.0,0.0,0.0,0.0,0.0,0.0,0.0,0.0,0.0,0.0,0.0,0.0,0.0,0.0,0.0,0.0,0.0,0.0,0.0,0.0,0.0,0.0,0.0,0.0,0.0,0.0,0.0,0.0,0.0,0.0,0.0,0.0,0.0,0.0,0.0,0.0,0.0,0.0,0.0,0.0,0.0,0.0,0.3323,0.3387,0.2904,0.0,0.2114,0.0,0.0,0.0,0.0,0.0,0.0,0.0,0.0,0.0,0.0,0.0,0.0,0.0,0.0,0.0,0.0,0.0,0.0,0.0,0.0,0.0,0.0,0.0,0.0,0.0,0.0,0.0,0.0,0.0,0.0,0.0,0.0,0.0,0.0,0.0,0.0,0.0,0.0,0.0,0.0,0.0,0.0,0.0,0.0,0.0,0.0,0.0,0.0,0.0,0.0,0.0,0.0,0.0,0.0,0.0,0.0,0.0,0.0,0.0,0.0,0.0,0.0,0.0,0.0,0.0,0.0,0.0,0.0,0.0,0.0,0.0,0.0,0.0,0.0,0.0,0.0,0.0,0.0,0.0,0.0,0.0,0.0,0.0,0.0,0.0,0.0,0.0,0.0,0.0,0.0,0.0,0.0,0.0,0.0,0.0,0.0,0.0,0.0,0.0,0.0,0.0,0.0,0.0,0.0,0.0,0.0,0.0,0.0,0.0,0.0,0.3262,0.3461,0.2968,0.2541,0.0,0.0,0.0,0.0,0.0,0.0,0.0,0.0,0.0,0.0,0.0,0.0,0.0,0.0,0.0,0.0,0.0,0.0,0.0,0.0,0.0,0.0,0.0,0.0,0.0,0.0,0.0,0.0,0.0,0.0,0.0,0.0,0.0,0.0,0.0,0.0,0.0,0.0,0.0,0.0,0.0,0.0,0.0,0.0,0.0,0.0,0.0,0.0,0.0,0.0,0.0,0.0,0.0,0.0,0.0,0.0,0.0,0.0,0.0,0.0,0.0,0.0,0.0,0.0,0.0,0.0,0.0,0.0,0.0,0.0,0.0,0.0,0.0,0.0,0.0,0.0,0.0,0.0,0.0,0.0,0.0,0.0,0.0,0.0,0.0,0.0,0.0,0.0,0.0,0.0,0.0,0.0,0.0,0.0,0.0,0.0,0.0,0.0,0.0,0.0,0.0,0.0,0.0,0.0,0.0,0.0,0.0,0.0,0.0,0.0,0.2958,0.3212,0.3343,0.2954,0.2577,0.2272,0.0,0.0,0.0,0.0,0.0,0.0,0.0,0.0,0.0,0.0,0.0,0.0,0.0,0.0,0.0,0.0,0.0,0.0,0.0,0.0,0.0,0.0,0.0,0.0,0.0,0.0,0.0,0.0,0.0,0.0,0.0,0.0,0.0,0.0,0.0,0.0,0.0,0.0,0.0,0.0,0.0,0.0,0.0,0.0,0.0,0.0,0.0,0.0,0.0,0.0,0.0,0.0,0.0,0.0,0.0,0.0,0.0,0.0,0.0,0.0,0.0,0.0,0.0,0.0,0.0,0.0,0.0,0.0,0.0,0.0,0.0,0.0,0.0,0.0,0.0,0.0,0.0,0.0,0.0,0.0,0.0,0.0,0.0,0.0,0.0,0.0,0.0,0.0,0.0,0.0,0.0,0.0,0.0,0.0,0.0,0.0,0.0,0.0,0.0,0.0,0.0,0.0,0.0,0.0,0.0,0.0,0.0,0.0,0.2427,0.2917,0.3176,0.3099,0.284,0.2542,0.0,0.0,0.0,0.0,0.0,0.0,0.0,0.0,0.0,0.0,0.0,0.0,0.0,0.0,0.0,0.0,0.0,0.0,0.0,0.0,0.0,0.0,0.0,0.0,0.0,0.0,0.0,0.0,0.0,0.0,0.0,0.0,0.0,0.0,0.0,0.0,0.0,0.0,0.0,0.0,0.0,0.0,0.0,0.0,0.0,0.0,0.0,0.0,0.0,0.0,0.0,0.0,0.0,0.0,0.0,0.0,0.0,0.0,0.0,0.0,0.0,0.0,0.0,0.0,0.0,0.0,0.0,0.0,0.0,0.0,0.0,0.0,0.0,0.0,0.0,0.0,0.0,0.0,0.0,0.0,0.0,0.0,0.0,0.0,0.0,0.0,0.0,0.0,0.0,0.0,0.0,0.0,0.0,0.0,0.0,0.0,0.0,0.0,0.0,0.0,0.0,0.0,0.0,0.0,0.0,0.0,0.0,0.0,0.0,0.2168,0.2621,0.2815,0.2666,0.2675,0.249,0.0,0.0,0.0,0.0,0.0,0.0,0.0,0.0,0.0,0.0,0.0,0.0,0.0,0.0,0.0,0.0,0.0,0.0,0.0,0.0,0.0,0.0,0.0,0.0,0.0,0.0,0.0,0.0,0.0,0.0,0.0,0.0,0.0,0.0,0.0,0.0,0.0,0.0,0.0,0.0,0.0,0.0,0.0,0.0,0.0,0.0,0.0,0.0,0.0,0.0,0.0,0.0,0.0,0.0,0.0,0.0,0.0,0.0,0.0,0.0,0.0,0.0,0.0,0.0,0.0,0.0,0.0,0.0,0.0,0.0,0.0,0.0,0.0,0.0,0.0,0.0,0.0,0.0,0.0,0.0,0.0,0.0,0.0,0.0,0.0,0.0,0.0,0.0,0.0,0.0,0.0,0.0,0.0,0.0,0.0,0.0,0.0,0.0,0.0,0.0,0.0,0.0,0.0,0.0,0.0,0.0,0.0,0.0,0.0,0.2435,0.0,0.2763,0.2544,0.2642,0.2484,0.0,0.0,0.0,0.0,0.0,0.0,0.0,0.0,0.0,0.0,0.0,0.0,0.0,0.0,0.0,0.0,0.0,0.0,0.0,0.0,0.0,0.0,0.0,0.0,0.0,0.0,0.0,0.0,0.0,0.0,0.0,0.0,0.0,0.0,0.0,0.0,0.0,0.0,0.0,0.0,0.0,0.0,0.0,0.0,0.0,0.0,0.0,0.0,0.0,0.0,0.0,0.0,0.0,0.0,0.0,0.0,0.0,0.0,0.0,0.0,0.0,0.0,0.0,0.0,0.0,0.0,0.0,0.0,0.0,0.0,0.0,0.0,0.0,0.0,0.0,0.0,0.0,0.0,0.0,0.0,0.0,0.0,0.0,0.0,0.0,0.0,0.0,0.0,0.0,0.0,0.0,0.0,0.0,0.0,0.0,0.0,0.0,0.0,0.0,0.0,0.0,0.0,0.0,0.0,0.0,0.0,0.0,0.0,0.2974,0.3283,0.3246,0.3121,0.283,0.2739,0.2471,0.0,0.0,0.0,0.0,0.0,0.0,0.0,0.0,0.0,0.0,0.0,0.0,0.0,0.0,0.0,0.0,0.0,0.0,0.0,0.0,0.0,0.0,0.0,0.0,0.0,0.0,0.0,0.0,0.0,0.0,0.0,0.0,0.0,0.0,0.0,0.0,0.0,0.0,0.0,0.0,0.0,0.0,0.0,0.0,0.0,0.0,0.0,0.0,0.0,0.0,0.0,0.0,0.0,0.0,0.0,0.0,0.0,0.0,0.0,0.0,0.0,0.0,0.0,0.0,0.0,0.0,0.0,0.0,0.0,0.0,0.0,0.0,0.0,0.0,0.0,0.0,0.0,0.0,0.0,0.0,0.0,0.0,0.0,0.0,0.0,0.0,0.0,0.0,0.0,0.0,0.0,0.0,0.0,0.0,0.0,0.0,0.0,0.0,0.0,0.0,0.0,0.0,0.0,0.0,0.0,0.0,0.0,0.0,0.0,0.3861,0.4018,0.3853,0.336,0.2942,0.2471,0.0,0.0,0.0,0.0,0.0,0.0,0.0,0.0,0.0,0.0,0.0,0.0,0.0,0.0,0.0,0.0,0.0,0.0,0.0,0.0,0.0,0.0,0.0,0.0,0.0,0.0,0.0,0.0,0.0,0.0,0.0,0.0,0.0,0.0,0.0,0.0,0.0,0.0,0.0,0.0,0.0,0.0,0.0,0.0,0.0,0.0,0.0,0.0,0.0,0.0,0.0,0.0,0.0,0.0,0.0,0.0,0.0,0.0,0.0,0.0,0.0,0.0,0.0,0.0,0.0,0.0,0.0,0.0,0.0,0.0,0.0,0.0,0.0,0.0,0.0,0.0,0.0,0.0,0.0,0.0,0.0,0.0,0.0,0.0,0.0,0.0,0.0,0.0,0.0,0.0,0.0,0.0,0.0,0.0,0.0,0.0,0.0,0.0,0.0,0.0,0.0,0.0,0.0,0.0,0.0,0.0,0.0,0.0,0.0,0.4891,0.4892,0.457,0.3884,0.3353,0.2792,0.2202,0.0,0.0,0.0,0.0,0.0,0.0,0.0,0.0,0.0,0.0,0.0,0.0,0.0,0.0,0.0,0.0,0.0,0.0,0.0,0.0,0.0,0.0,0.0,0.0,0.0,0.0,0.0,0.0,0.0,0.0,0.0,0.0,0.0,0.0,0.0,0.0,0.0,0.0,0.0,0.0,0.0,0.0,0.0,0.0,0.0,0.0,0.0,0.0,0.0,0.0,0.0,0.0,0.0,0.0,0.0,0.0,0.0,0.0,0.0,0.0,0.0,0.0,0.0,0.0,0.0,0.0,0.0,0.0,0.0,0.0,0.0,0.0,0.0,0.0,0.0,0.0,0.0,0.0,0.0,0.0,0.0,0.0,0.0,0.0,0.0,0.0,0.0,0.0,0.0,0.0,0.0,0.0,0.0,0.0,0.0,0.0,0.0,0.0,0.0,0.0,0.0,0.0,0.0,0.0,0.0,0.0,0.0,0.0,0.6176,0.5883,0.5302,0.4422,0.398,0.3349,0.0,0.0,0.0,0.0,0.0,0.0,0.0,0.0,0.0,0.0,0.0,0.0,0.0,0.0,0.0,0.0,0.0,0.0,0.0,0.0,0.0,0.0,0.0,0.0,0.0,0.0,0.0,0.0,0.0,0.0,0.0,0.0,0.0,0.0,0.0,0.0,0.0,0.0,0.0,0.0,0.0,0.0,0.0,0.0,0.0,0.0,0.0,0.0,0.0,0.0,0.0,0.0,0.0,0.0,0.0,0.0,0.0,0.0,0.0,0.0,0.0,0.0,0.0,0.0,0.0,0.0,0.0,0.0,0.0,0.0,0.0,0.0,0.0,0.0,0.0,0.0,0.0,0.0,0.0,0.0,0.0,0.0,0.0,0.0,0.0,0.0,0.0,0.0,0.0,0.0,0.0,0.0,0.0,0.0,0.0,0.0,0.0,0.0,0.0,0.0,0.0,0.0,0.0,0.0,0.0,0.0,0.0,0.0,0.0,0.604,0.6688,0.6514,0.551,0.461,0.3785,0.0,0.0,0.0,0.0,0.0,0.0,0.0,0.0,0.0,0.0,0.0,0.0,0.0,0.0,0.0,0.0,0.0,0.0,0.0,0.0,0.0,0.0,0.0,0.0,0.0,0.0,0.0,0.0,0.0,0.0,0.0,0.0,0.0,0.0,0.0,0.0,0.0,0.0,0.0,0.0,0.0,0.0,0.0,0.0,0.0,0.0,0.0,0.0,0.0,0.0,0.0,0.0,0.0,0.0,0.0,0.0,0.0,0.0,0.0,0.0,0.0,0.0,0.0,0.0,0.0,0.0,0.0,0.0,0.0,0.0,0.0,0.0,0.0,0.0,0.0,0.0,0.0,0.0,0.0,0.0,0.0,0.0,0.0,0.0,0.0,0.0,0.0,0.0,0.0,0.0,0.0,0.0,0.0,0.0,0.0,0.0,0.0,0.0,0.0,0.0,0.0,0.0,0.0,0.0,0.0,0.0,0.0,0.0,0.5542,0.6112,0.6933,0.6988,0.6173,0.5269,0.4394,0.0,0.0,0.0,0.0,0.0,0.0,0.0,0.0,0.0,0.0,0.0,0.0,0.0,0.0,0.0,0.0,0.0,0.0,0.0,0.0,0.0,0.0,0.0,0.0,0.0,0.0,0.0,0.0,0.0,0.0,0.0,0.0,0.0,0.0,0.0,0.0,0.0,0.0,0.0,0.0,0.0,0.0,0.0,0.0,0.0,0.0,0.0,0.0,0.0,0.0,0.0,0.0,0.0,0.0,0.0,0.0,0.0,0.0,0.0,0.0,0.0,0.0,0.0,0.0,0.0,0.0,0.0,0.0,0.0,0.0,0.0,0.0,0.0,0.0,0.0,0.0,0.0,0.0,0.0,0.0,0.0,0.0,0.0,0.0,0.0,0.0,0.0,0.0,0.0,0.0,0.0,0.0,0.0,0.0,0.0,0.0,0.0,0.0,0.0,0.0,0.0,0.0,0.0,0.0,0.0,0.0,0.0,0.0,0.554,0.6273,0.6894,0.6984,0.6515,0.588,0.5038,0.0,0.0,0.0,0.0,0.0,0.0,0.0,0.0,0.0,0.0,0.0,0.0,0.0,0.0,0.0,0.0,0.0,0.0,0.0,0.0,0.0,0.0,0.0,0.0,0.0,0.0,0.0,0.0,0.0,0.0,0.0,0.0,0.0,0.0,0.0,0.0,0.0,0.0,0.0,0.0,0.0,0.0,0.0,0.0,0.0,0.0,0.0,0.0,0.0,0.0,0.0,0.0,0.0,0.0,0.0,0.0,0.0,0.0,0.0,0.0,0.0,0.0,0.0,0.0,0.0,0.0,0.0,0.0,0.0,0.0,0.0,0.0,0.0,0.0,0.0,0.0,0.0,0.0,0.0,0.0,0.0,0.0,0.0,0.0,0.0,0.0,0.0,0.0,0.0,0.0,0.0,0.0,0.0,0.0,0.0,0.0,0.0,0.0,0.0,0.0,0.0,0.0,0.0,0.0,0.0,0.0,0.0,0.0,0.5752,0.6158,0.6831,0.7021,0.6607,0.6031,0.5286,0.0,0.0,0.0,0.0,0.0,0.0,0.0,0.0,0.0,0.0,0.0,0.0,0.0,0.0,0.0,0.0,0.0,0.0,0.0,0.0,0.0,0.0,0.0,0.0,0.0,0.0,0.0,0.0,0.0,0.0,0.0,0.0,0.0,0.0,0.0,0.0,0.0,0.0,0.0,0.0,0.0,0.0,0.0,0.0,0.0,0.0,0.0,0.0,0.0683,0.0,0.0,0.0,0.0,0.0,0.0,0.0,0.0,0.0,0.0,0.0,0.0,0.0,0.0,0.0,0.0,0.0,0.0,0.0,0.0,0.0,0.0,0.0,0.0,0.0,0.0,0.0,0.0,0.0,0.0,0.0,0.0,0.0,0.0,0.0,0.0,0.0,0.0,0.0,0.0,0.0,0.0,0.0,0.0,0.0,0.0,0.0,0.0,0.0,0.0,0.0,0.0,0.0,0.0,0.0,0.0,0.0,0.0,0.0,0.6169,0.6433,0.6777,0.6849,0.6607,0.6137,0.5467,0.0,0.0,0.0,0.0,0.0,0.0,0.0,0.0,0.0,0.0,0.0,0.0,0.0,0.0,0.0,0.0,0.0,0.0,0.0,0.0,0.0,0.0,0.0,0.0,0.0,0.0,0.0,0.0,0.0,0.0,0.0,0.0,0.0,0.0,0.0,0.0,0.0,0.0,0.0,0.0,0.0,0.0,0.0,0.0,0.0,0.0,0.0,0.0,0.0,0.0,0.0,0.0,0.0,0.0,0.0,0.0,0.0,0.0,0.0,0.0,0.0,0.0,0.0,0.0,0.0,0.0,0.0,0.0,0.0,0.0,0.0,0.0,0.0,0.0,0.0,0.0,0.0,0.0,0.0,0.0,0.0,0.0,0.0,0.0,0.0,0.0,0.0,0.0,0.0,0.0,0.0,0.0,0.0,0.0,0.0,0.0,0.0,0.0,0.0,0.0,0.0,0.0,0.0,0.0,0.0,0.0,0.0,0.6187,0.6613,0.678,0.675,0.6664,0.652,0.6119,0.556,0.4759,0.0,0.0,0.0,0.0,0.0,0.0,0.0,0.0,0.0,0.0,0.0,0.0,0.0,0.0,0.0,0.0,0.0,0.0,0.0,0.0,0.0,0.0,0.0,0.0,0.0,0.0,0.0,0.0,0.0,0.0,0.0,0.0,0.0,0.0,0.0,0.0,0.0,0.0,0.0606,0.0813,0.0,0.0,0.0,0.0,0.0,0.0,0.0,0.0,0.0416,0.0,0.0,0.0,0.0,0.0,0.0,0.0,0.0,0.0,0.0,0.0,0.0,0.0,0.0,0.0,0.0,0.0,0.0,0.0,0.0,0.0,0.0,0.0,0.0,0.0,0.0,0.0,0.0,0.0,0.0,0.0,0.0,0.0,0.0,0.0,0.0,0.0,0.0,0.0,0.0,0.0,0.0,0.0,0.0,0.0,0.0,0.0,0.0,0.0,0.0,0.0,0.0,0.0,0.0,0.0,0.0,0.5798,0.6706,0.7002,0.6745,0.6809,0.6623,0.6119,0.5817,0.5297,0.4503,0.0,0.0,0.0,0.0,0.0,0.0,0.0,0.0,0.0,0.0,0.0,0.0,0.0,0.0,0.0,0.0,0.0,0.0,0.0,0.0,0.0,0.0,0.0,0.0,0.0,0.0,0.0,0.0,0.0,0.0,0.0,0.0,0.0,0.0,0.0,0.0,0.0,0.0,0.0,0.116,0.1436,0.0,0.0,0.0,0.0,0.0,0.0,0.0,0.0,-0.036,0.0,0.0,0.0,0.0,0.0,0.0,0.0,0.0,0.0,0.0,0.0,0.0,0.0,0.0,0.0,0.0,0.0,0.0,0.0,0.0,0.0,0.0,0.0,0.0,0.0,0.0,0.0,0.0,0.0,0.0,0.0,0.0,0.0,0.0,0.0,0.0,0.0,0.0,0.0,0.0,0.0,0.0,0.0,0.0,0.0,0.0,0.0,0.0,0.0,0.0,0.0,0.0,0.0,0.0,0.0,0.6309,0.7033,0.7267,0.7004,0.6743,0.6393,0.5987,0.5542,0.4991,0.0,0.0,0.0,0.0,0.0,0.0,0.0,0.0,0.0,0.0,0.0,0.0,0.0,0.0,0.0,0.0,0.0,0.0,0.0,0.0,0.0,0.0,0.0,0.0,0.0,0.0,0.0,0.0,0.0,0.0,0.0,0.0,0.0,0.0,0.0,0.0,0.0,0.0,0.0,0.0,0.1342,0.1733,0.1976,0.0,0.0,0.0,0.0,0.0,0.0,-0.0379,-0.0739,0.0,0.0,0.0,0.0,0.0,0.0,0.0,0.0,0.0,0.0,0.0,0.0,0.0,0.0,0.0,0.0,0.0,0.0,0.0,0.0,0.0,0.0,0.0,0.0,0.0,0.0,0.0,0.0,0.0,0.0,0.0,0.0,0.0,0.0,0.0,0.0,0.0,0.0,0.0,0.0,0.0,0.0,0.0,0.0,0.0,0.0,0.0,0.0,0.0,0.0,0.0,0.0,0.0,0.0,0.0,0.6715,0.7344,0.7562,0.7376,0.6818,0.6362,0.6051,0.5412,0.4833,0.0,0.0,0.0,0.0,0.0,0.0,0.0,0.0,0.0,0.0,0.0,0.0,0.0,0.0,0.0,0.0,0.0,0.0,0.0,0.0,0.0,0.0,0.0,0.0,0.0,0.0,0.0,0.0,0.0,0.0,0.0,0.0,0.0,0.0,0.0,0.0,0.0,0.0,0.0,0.0,0.0,0.1907,0.231,0.2316,0.0,0.0,0.0,0.0,0.0245,-0.0439,0.0,0.0,0.0,0.0,0.0,0.0,0.0,0.0,0.0,0.0,0.0,0.0,0.0,0.0,0.0,0.0,0.0,0.0,0.0,0.0,0.0,0.0,0.0,0.0,0.0,0.0,0.0,0.0,0.0,0.0,0.0,0.0,0.0,0.0,0.0,0.0,0.0,0.0,0.0,0.0,0.0,0.0,0.0,0.0,0.0,0.0,0.0,0.0,0.0,0.0,0.0,0.0,0.0,0.0,0.0,0.0,0.6808,0.7666,0.7969,0.7663,0.7393,0.6915,0.6185,0.5629,0.4909,0.0,0.0,0.0,0.0,0.0,0.0,0.0,0.0,0.0,0.0,0.0,0.0,0.0,0.0,0.0,0.0,0.0,0.0,0.0,0.0,0.0,0.0,0.0,0.0,0.0,0.0,0.0,0.0,0.0,0.0,0.0,0.0,0.0,0.0,0.0,0.0,0.0,0.0,0.0,0.0,0.0,0.1856,0.2468,0.2558,0.2087,0.0,0.0,0.0454,0.0312,-0.0098,0.0,0.0,0.0,0.0,0.0,0.0,0.0,0.0,0.0,0.0,0.0,0.0,0.0,0.0,0.0,0.0,0.0,0.0,0.0,0.0,0.0,0.0,0.0,0.0,0.0,0.0,0.0,0.0,0.0,0.0,0.0,0.0,0.0,0.0,0.0,0.0,0.0,0.0,0.0,0.0,0.0,0.0,0.0,0.0,0.0,0.0,0.0,0.0,0.0,0.0,0.0,0.0,0.0,0.0,0.0,0.5714,0.6672,0.7529,0.7974,0.7914,0.7753,0.7351,0.6676,0.5881,0.5033,0.0,0.0,0.0,0.0,0.0,0.0,0.0,0.0,0.0,0.0,0.0,0.0,0.0,0.0,0.0,0.0,0.0,0.0,0.0,0.0,0.0,0.0,0.0,0.0,0.0,0.0,0.0,0.0,0.0,0.0,0.0,0.0,0.0,0.0,0.0,0.0,0.0,0.0,0.0,0.0,0.0,0.0,0.2113,0.2396,0.0,0.0,0.0,0.0546,0.0397,0.0,0.0,0.0,0.0,0.0,0.0,0.0,0.0,0.0,0.0,0.0,0.0,0.0,0.0,0.0,0.0,0.0,0.0,0.0,0.0,0.0,0.0,0.0,0.0,0.0,0.0,0.0,0.0,0.0,0.0,0.0,0.0,0.0,0.0,0.0,0.0,0.0,0.0,0.0,0.0,0.0,0.0,0.0,0.0,0.0,0.0,0.0,0.0,0.0,0.0,0.0,0.0,0.0,0.0,0.0,0.0,0.0,0.6512,0.7459,0.8019,0.818,0.8094,0.7745,0.7146,0.6169,0.0,0.0,0.0,0.0,0.0,0.0,0.0,0.0,0.0,0.0,0.0,0.0,0.0,0.0,0.0,0.0,0.0,0.0,0.0,0.0,0.0,0.0,0.0,0.0,0.0,0.0,0.0,0.0287,0.0,0.0,0.0,0.0,0.0,0.0,0.0,0.0,0.0,0.0,0.0,0.0,0.0,0.0,0.1315,0.1616,0.197,0.1839,0.0,0.0,0.0629,0.0448,0.0365,0.0208,0.0,0.0,0.0,0.0,0.0,0.0,0.0,0.0,0.0,0.0,0.0,0.0,0.0,0.0,0.0,0.0,0.0,0.0,0.0,0.0,0.0,0.0,0.0,0.0,0.0,0.0,0.0,0.0,0.0,0.0,0.0,0.0,0.0,0.0,0.0,0.0,0.0,0.0,0.0,0.0,0.0,0.0,0.0,0.0,0.0,0.0,0.0,0.0,0.0,0.0,0.0,0.0,0.0,0.0,0.5435,0.6329,0.7591,0.8338,0.8462,0.8352,0.8045,0.7565,0.6523,0.5496,0.0,0.0,0.0,0.0,0.0,0.0,0.0,0.0,0.0,0.0,0.0,0.0,0.0,0.0,0.0,0.0,0.0,0.0,0.0,0.0,0.0,0.0,0.0,0.0,0.0,0.0,0.0,0.0,0.0,0.0,0.0,0.0,0.0,0.0,0.0,0.0,0.0,0.0,0.0,0.0,0.0,0.093,0.0957,0.1252,0.1297,0.0,0.0694,0.066,0.0517,0.0418,0.0264,-0.012,0.0,0.0,0.0,0.0,0.0,0.0,0.0,0.0,0.0,0.0,0.0,0.0,0.0,0.0,0.0,0.0,0.0,0.0,0.0,0.0,0.0,0.0,0.0,0.0,0.0,0.0,0.0,0.0,0.0,0.0,0.0,0.0,0.0,0.0,0.0,0.0,0.0,0.0,0.0,0.0,0.0,0.0,0.0,0.0,0.0,0.0,0.0,0.0,0.0,0.0,0.0,0.0,0.0,0.5257,0.6173,0.7447,0.8125,0.8182,0.834,0.8211,0.78,0.6905,0.6034,0.0,0.0,0.0,0.0,0.0,0.0,0.0,0.0,0.0,0.0,0.0,0.0,0.0,0.0,0.0,0.0,0.0,0.0,0.0,0.0,0.0,0.0,0.0,0.0,0.0,0.0,0.0,0.0,0.1078,0.0705,0.0133,0.0,0.0,0.0,0.0,0.0,0.0,0.0,0.0,0.0,0.0,0.0706,0.0703,0.0849,0.0,0.0,0.0697,0.067,0.0633,0.0062,-0.038,-0.0547,-0.0707,0.0,0.0,0.0,0.0,0.0,0.0,0.0,0.0,0.0,0.0,0.0,0.0,0.0,0.0,0.0,0.0,0.0,0.0,0.0,0.0,0.0,0.0,0.0,0.0,0.0,0.0,0.0,0.0,0.0,0.0,0.0,0.0,0.0,0.0,0.0,0.0,0.0,0.0,0.0,0.0,0.0,0.0,0.0,0.0,0.0,0.0,0.0,0.0,0.0,0.0,0.0,0.0,0.5111,0.5942,0.7295,0.8018,0.8047,0.824,0.8209,0.7914,0.7085,0.6326,0.0,0.0,0.0,0.0,0.0,0.0,0.0,0.0,0.0,0.0,0.0,0.0,0.0,0.0,0.0,0.0,0.0,0.0,0.0,0.0,0.0,0.0,0.0,0.0,0.0,0.0,0.0,0.0,0.1218,0.0749,0.0192,0.0,0.0,0.0,0.0,0.0,0.0,0.0,0.0,0.0,0.0,0.0605,0.0607,0.0659,0.0697,0.0697,0.0697,0.0697,0.0697,-0.0143,-0.0862,-0.1004,0.0,0.0,0.0,0.0,0.0,0.0,0.0,0.0,0.0,0.0,0.0,0.0,0.0,0.0,0.0,0.0,0.0,0.0,0.0,0.0,0.0,0.0,0.0,0.0,0.0,0.0,0.0,0.4525,0.0,0.0,0.4336,0.0,0.0,0.0,0.0,0.0,0.0,0.0,0.0,0.0,0.0,0.0,0.0,0.0,0.0,0.0,0.0,0.0,0.0,0.0,0.0,0.0,0.0,0.5011,0.5621,0.7181,0.8062,0.8172,0.8077,0.8003,0.7967,0.7022,0.6242,0.5705,0.0,0.0,0.0,0.0,0.0,0.0,0.0,0.0,0.0,0.0,0.0,0.0,0.0,0.0,0.0,0.0,0.0,0.0,0.0,0.0,0.0,0.0,0.0,0.0,0.0,0.0,0.0625,0.049,0.0397,0.0,0.0,0.0,0.0,0.0,0.0,0.0,0.0,0.0,0.0,0.0552,0.0608,0.0609,0.0659,0.0697,0.0697,0.0697,0.0697,0.0697,-0.0135,-0.0977,0.0,0.0,0.0,0.0,0.0,0.0,0.0,0.0,0.0,0.0,0.0,0.0,0.0,0.0,0.0,0.0,0.0,0.0,0.0,0.0,0.0,0.0,0.0,0.0,0.0,0.0,0.0,0.6326,0.6201,0.0,0.0,0.0,0.0,0.0,0.0,0.0,0.0,0.0,0.0,0.0,0.7977,0.7977,0.0,0.0,0.0,0.0,0.0,0.0,0.0,0.0,0.0,0.0,0.0,0.0,0.5004,0.5628,0.6955,0.7681,0.773,0.7688,0.7659,0.7652,0.72,0.6435,0.5349,0.0,0.0,0.0,0.0,0.0,0.0,0.0,0.0,0.0,0.0,0.0,0.0,0.0,0.0,0.0,0.0,0.0,0.0,0.0,0.0,0.0,0.0,0.0,0.0,0.0,0.2064,0.0,0.0,0.0,0.0,0.0,0.0,0.0,0.0,0.0,0.0,0.0,0.0468,0.0485,0.0603,0.0644,0.0611,0.0659,0.0697,0.0,0.0,0.0,0.0,0.0,0.0,0.0,0.0,0.0,0.0,0.0,0.0,0.0,0.0,-0.1695,-0.1427,-0.1403,-0.1429,-0.1446,0.0,0.0,0.0,0.0,0.0,0.0,0.0,0.0,0.0,0.0,0.0,0.0,0.0,0.0,0.793,0.0,0.7172,0.0,0.0,0.0,0.0,0.0,0.0,0.0,0.0,0.9376,0.9799,0.9374,0.9184,0.8922,0.0,0.8449,0.768,0.0,0.0,0.0,0.0,0.0,0.0,0.0,0.0,0.5182,0.5841,0.6917,0.7523,0.7572,0.7523,0.7523,0.7544,0.7194,0.6449,0.5315,0.4984,0.4448,0.0,0.0,0.0,0.0,0.0,0.0,0.0,0.0,0.0,0.0,0.0,0.0,0.0,0.0,0.0,0.0,0.0,0.0,0.0,0.0,0.0,0.0,0.0,0.221,0.0,0.0,0.0,0.0,0.0,0.0,0.0,0.0,0.0,0.0428,0.0466,0.0511,0.0531,0.0641,0.0701,0.064,0.0,0.0,0.0,0.0,0.0,0.0,0.0,-0.0741,-0.1359,-0.1519,-0.156,-0.1573,-0.1405,-0.1349,-0.1552,0.0,0.0,-0.159,-0.1554,-0.1519,-0.1582,-0.1747,-0.2047,-0.2699,-0.2395,-0.2086,0.0,0.0,0.0,0.0,0.0,0.0,0.0,0.0,0.9753,0.955,0.0,0.8772,0.0,0.0,0.0,0.0,0.0,0.7982,0.0,0.0,1.1004,1.145,1.1167,1.0886,1.0474,0.9906,0.9602,0.9103,0.8326,0.6696,0.0,0.0,0.0,0.0,0.0,0.0,0.5557,0.6219,0.707,0.7572,0.7691,0.7572,0.7572,0.7676,0.7013,0.6328,0.5677,0.5201,0.47,0.4169,0.3871,0.0,0.0,0.0,0.0,0.0,0.0,0.0,0.0,0.0,0.0,0.0,0.0,0.0,0.0,0.0,0.0,0.0,0.0,0.0,0.0,0.164,0.0,0.0,0.0,0.0,0.0,0.0,0.0,0.0,0.0,0.0,0.0497,0.0507,0.0527,0.0602,0.0,0.0,0.0,0.0,0.0697,0.0697,0.0697,0.0697,0.0697,0.0292,-0.0283,-0.1021,0.0,0.0,-0.1841,-0.1715,-0.158,-0.159,-0.159,-0.159,-0.159,-0.1635,-0.1663,-0.1644,-0.1934,-0.2628,-0.3715,-0.3202,-0.263,1.1853,0.0,0.0,0.0,0.0,1.0227,1.0585,1.0839,1.083,1.0795,1.0683,1.0216,0.0,0.0,0.0,0.0,0.0,0.0,1.0079,1.0328,1.1486,1.173,1.1211,1.0958,1.0637,1.0175,0.9622,0.9227,0.8915,0.7899,0.6909,0.6028,0.0,0.0,0.0,0.0,0.6123,0.6568,0.7272,0.767,0.7691,0.767,0.767,0.7691,0.727,0.6945,0.6745,0.6064,0.5483,0.5047,0.4446,0.0,0.0,0.0,0.0,0.0,0.0,0.0,0.0,0.0,0.0,0.0,0.0,0.0,0.0,0.0,0.0,0.0,0.0,0.0,0.1986,0.1732,0.1467,0.0,0.0,0.0,0.0,0.0,0.0,0.0,0.0,0.0,0.0553,0.0571,0.06,0.0,0.0,0.0706,0.0695,0.0697,0.0697,0.0697,0.0697,0.0,0.0697,0.0292,-0.0067,-0.0305,-0.0837,-0.1372,-0.1771,-0.1704,-0.159,-0.159,-0.159,-0.159,-0.1592,-0.1612,-0.1707,-0.1909,-0.2155,-0.254,-0.3165,-0.3534,-0.383,1.3892,1.2641,1.1734,1.1418,1.1605,1.2049,1.2459,1.2778,1.2788,1.274,1.2653,1.2207,1.1719,1.1173,1.0048,0.0,0.0,0.0,1.0931,1.1082,1.2053,1.2204,1.1713,1.1505,1.1066,1.049,0.9873,0.9465,0.928,0.8757,0.8226,0.7638,0.0,0.0,0.5861,0.6199,0.6571,0.6906,0.7428,0.7691,0.7691,0.7691,0.7691,0.7683,0.726,0.6993,0.6993,0.6278,0.5742,0.5399,0.478,0.4174,0.0,0.0,0.0,0.0,0.0,0.0,0.0,0.0,0.0,0.0,0.0,0.0923,0.1014,0.0,0.0,0.0,0.199,0.2297,0.2193,0.2054,0.0,0.0,0.0,0.0,0.0,0.0,0.0,0.0439,0.0451,0.0526,0.0629,0.0633,0.0653,0.0693,0.0701,0.0697,0.0697,0.0,0.0697,0.0697,0.0697,0.0697,0.0697,0.0472,0.0295,0.0305,-0.0249,-0.0788,-0.1175,-0.1409,-0.1585,-0.159,-0.159,-0.159,-0.159,-0.159,-0.1785,-0.2297,-0.2363,-0.254,-0.3168,-0.3776,-0.4239,1.5657,1.5049,1.4082,1.3526,1.3423,1.3984,1.4496,1.4997,1.5013,1.4918,1.4773,1.4328,1.3781,1.3066,1.143,0.0,1.114,1.1253,1.1573,1.2034,1.2662,1.2788,1.2505,1.2224,1.1663,1.085,1.0318,0.9835,0.9492,0.939,0.9344,0.9297,0.7678,0.6752,0.6589,0.6716,0.6928,0.7226,0.7538,0.7691,0.7691,0.7691,0.7691,0.7691,0.7044,0.6709,0.6688,0.6043,0.5587,0.5432,0.4906,0.453,0.4295,0.0,0.0,0.0,0.0,0.0,0.0,0.0,0.0,0.0,0.0,0.0,0.0,0.0,0.0,0.1816,0.2388,0.0,0.2526,0.2514,0.0,0.0,0.0,0.1402,0.1429,0.1342,0.1057,0.0493,0.0,0.0,0.0682,0.0697,0.071,0.0702,0.0701,0.0697,0.0697,0.0697,0.0698,0.0725,0.0699,0.0697,0.0697,0.0681,0.0677,0.0743,0.0429,0.0,-0.0373,-0.1189,-0.1618,-0.168,-0.1661,-0.1656,-0.1634,-0.1604,-0.1877,-0.2666,-0.2515,-0.2537,-0.3429,-0.3731,-0.4047,1.6566,1.6282,1.6007,1.5187,1.4023,1.4357,1.4672,1.4997,1.5023,1.4908,1.4793,1.4586,1.4214,1.3759,1.3234,1.3029,1.3124,1.314,1.3078,1.2978,1.3225,1.3034,1.249,1.2224,1.1823,1.1296,1.0621,1.022,1.0074,0.982,0.9698,0.965,0.9264,0.8701,0.801,0.7647,0.7501,0.7581,0.7654,0.7691,0.7691,0.7691,0.7691,0.7691,0.7037,0.672,0.6688,0.5851,0.5494,0.5681,0.5102,0.4848,0.5021,0.4396,0.0,0.0,0.0,0.0,0.0,0.0,0.0,0.0,0.0,0.1337,0.1626,0.0,0.2023,0.0,0.2622,0.2816,0.2746,0.2594,0.0,0.0,0.1606,0.1306,0.1667,0.1413,0.1075,0.0753,0.0623,0.0596,0.0688,0.0697,0.0694,0.071,0.0693,0.0697,0.0697,0.0697,0.0708,0.0778,0.0741,0.0697,0.0703,0.0758,0.0791,0.0804,0.0589,0.0365,0.0213,-0.13,-0.2355,-0.2132,-0.2234,-0.2142,-0.1692,-0.1717,-0.2004,-0.2446,-0.2452,-0.2513,-0.3079,-0.3465,-0.381,1.7252,1.7021,1.6989,1.6419,1.5476,1.561,1.5671,1.5657,1.5685,1.5517,1.5269,1.4921,1.4651,1.4424,1.4067,1.3926,1.3926,1.3926,1.3828,1.3649,1.3542,1.3227,1.2745,1.2308,1.1927,1.1594,1.102,1.0754,1.0738,1.0528,1.0412,1.0428,1.0315,0.9991,0.9517,0.8676,0.8244,0.8201,0.7911,0.7753,0.7691,0.7691,0.7691,0.7676,0.6925,0.6526,0.6519,0.5582,0.5224,0.5546,0.4939,0.4728,0.5041,0.4381,0.372,0.0,0.0,0.0,0.0,0.0,0.0,0.0,0.0,0.0,0.0,0.0,0.2384,0.2588,0.2789,0.2955,0.3106,0.2961,0.2848,0.2874,0.2373,0.2089,0.2202,0.1737,0.1304,0.1017,0.076,0.0631,0.0689,0.0742,0.0753,0.0742,0.0744,0.0716,0.0701,0.0697,0.0709,0.0789,0.0787,0.0798,0.0774,0.0825,0.0847,0.082,0.0579,0.0372,0.0334,-0.1316,-0.2614,-0.2483,-0.2658,-0.2583,-0.1808,-0.196,-0.2328,-0.2646,-0.2615,-0.2588,-0.2886,-0.3181,-0.3432,1.7827,1.7471,1.7461,1.7334,1.7139,1.7149,1.6924,1.6578,1.6518,1.6257,1.5826,1.5332,1.5079,1.5012,1.449,1.427,1.427,1.427,1.4241,1.4163,1.3789,1.3401,1.3067,1.241,1.1977,1.1728,1.141,1.1284,1.1343,1.1309,1.125,1.1217,1.0991,1.0852,1.0826,0.9657,0.8947,0.8682,0.8127,0.7777,0.7632,0.7669,0.767,0.7634,0.675,0.6287,0.6258,0.5341,0.4983,0.5312,0.477,0.4597,0.4953,0.4307,0.3681,0.0,0.3139,0.0,0.0,0.0,0.0,0.0,0.0,0.0,0.0,0.2613,0.2735,0.2954,0.297,0.3119,0.3473,0.3404,0.3411,0.3569,0.3384,0.3109,0.2738,0.2144,0.1616,0.1237,0.0854,0.0641,0.0691,0.0746,0.0796,0.0794,0.0797,0.0791,0.0735,0.0701,0.0733,0.0792,0.087,0.0883,0.0886,0.0892,0.0894,0.0864,0.0516,0.0241,0.0307,-0.1204,-0.2571,-0.2771,-0.3069,-0.2897,-0.1935,-0.2306,-0.2814,-0.3102,-0.28,-0.2596,-0.2832,-0.2967,-0.3039,1.8094,1.7891,1.7891,1.7875,1.7807,1.7797,1.752,1.705,1.6658,1.6198,1.574,1.5622,1.5486,1.5322,1.5205,1.5166,1.5137,1.5137,1.499,1.4648,1.4182,1.3671,1.3067,1.2419,1.2026,1.1843,1.1694,1.1628,1.1628,1.1628,1.1544,1.1444,1.1299,1.1223,1.1155,0.0,0.0,0.0,0.7748,0.745,0.7227,0.7422,0.753,0.7509,0.6629,0.0,0.6251,0.5326,0.5091,0.5649,0.5333,0.0,0.0,0.0,0.0,0.0,0.0,0.0,0.0,0.0,0.0,0.0,0.3878,0.3468,0.3531,0.3407,0.3339,0.3374,0.34,0.3411,0.3484,0.357,0.3608,0.3517,0.351,0.3321,0.2769,0.2361,0.187,0.127,0.0882,0.0683,0.0699,0.077,0.0795,0.0798,0.0786,0.0791,0.0772,0.0719,0.075,0.0847,0.0872,0.0897,0.0897,0.0897,0.0897,0.084,0.0502,0.0194,0.0028,-0.0813,-0.2102,-0.3107,-0.3462,-0.3346,-0.2747,-0.3069,-0.3318,-0.3251,-0.2813,-0.2594,-0.2857,-0.2894,-0.2919,1.811,0.0,1.8008,1.8008,0.0,1.8008,1.7864,1.7543,1.69,1.6257,1.5682,1.5682,1.5643,1.5546,1.5439,1.542,1.542,1.542,1.5293,1.5068,1.4658,1.4094,1.3442,1.2716,1.2259,1.2002,1.1927,1.1902,1.1902,1.1902,1.1803,1.1594,1.1368,1.1267,1.1233,1.0195,0.9076,0.7914,0.7791,0.7529,0.7128,0.7441,0.7572,0.7481,0.6765,0.0,0.0,0.0,0.0,0.0,0.0,0.0,0.0,0.0,0.0,0.5156,0.4866,0.4655,0.46,0.4597,0.4732,0.5015,0.4741,0.4314,0.3795,0.3505,0.3408,0.348,0.3557,0.3664,0.3882,0.3984,0.4022,0.3943,0.3755,0.3516,0.3362,0.3111,0.2606,0.1805,0.1223,0.0864,0.0782,0.0761,0.0808,0.0834,0.0845,0.0856,0.0858,0.0794,0.0791,0.0888,0.0885,0.0897,0.0897,0.0897,0.0897,0.0841,0.0505,0.0196,0.0028,-0.0952,-0.2158,-0.3304,-0.3613,-0.3515,-0.3339,-0.3457,-0.3507,-0.3243,-0.281,-0.2574,-0.2756,-0.279,-0.2829,1.8008,1.8008,1.8008,1.7959,1.791,1.7978,1.7896,1.7744,0.0,0.0,0.0,1.5682,1.5672,1.5633,1.5478,1.542,1.542,1.542,1.542,1.5391,1.498,1.445,1.3809,1.3092,1.2573,1.2184,1.2175,1.215,1.2126,1.211,1.1943,1.1703,1.1351,1.1149,1.0879,0.9752,0.872,0.7888,0.7845,0.7544,0.7022,0.7332,0.7434,0.7338,0.6845,0.6604,0.6608,0.6146,0.603,0.6339,0.6118,0.6065,0.6321,0.5873,0.5559,0.5483,0.5322,0.519,0.5147,0.5131,0.5215,0.5361,0.5408,0.4964,0.3853,0.3536,0.3498,0.3651,0.3752,0.3947,0.4288,0.4391,0.4447,0.4426,0.4033,0.3835,0.3924,0.384,0.3383,0.2555,0.1812,0.1195,0.0921,0.0831,0.0837,0.0856,0.0886,0.0878,0.087,0.0836,0.0829,0.0883,0.0896,0.0894,0.0882,0.0878,0.0883,0.0858,0.0527,0.0223,-0.0084,-0.1092,-0.2324,-0.3221,-0.3446,-0.3463,-0.3552,-0.3602,-0.3506,-0.321,-0.2851,-0.2585,-0.2658,-0.2686,-0.2745,1.8008,1.8008,1.8008,1.7803,1.75,1.7861,1.7555,1.6914,1.6926,1.6384,1.5449,1.5604,1.5604,1.5449,1.542,1.542,1.542,1.542,1.542,1.5391,1.498,1.4505,1.3953,1.3337,1.2852,1.245,1.2421,1.2382,1.2283,1.215,1.1977,1.1694,1.1427,1.0853,1.0001,0.9304,0.8511,0.7656,0.7314,0.6974,0.6686,0.6722,0.6743,0.6722,0.6389,0.6258,0.6346,0.6289,0.6361,0.6615,0.6593,0.6568,0.6536,0.6231,0.5931,0.5749,0.5716,0.5806,0.6012,0.6014,0.6034,0.6064,0.6214,0.5674,0.4197,0.4152,0.4261,0.4337,0.4268,0.4302,0.4445,0.4534,0.4595,0.457,0.4466,0.4254,0.3931,0.3906,0.3825,0.3461,0.2726,0.1929,0.1298,0.0953,0.0844,0.0858,0.0854,0.0817,0.0819,0.0802,0.0823,0.0886,0.0897,0.0875,0.0833,0.082,0.0831,0.0881,0.0618,0.0381,0.0363,-0.0589,-0.1653,-0.2605,-0.2762,-0.3012,-0.3441,-0.3613,-0.3392,-0.3044,-0.2835,-0.28,-0.2728,-0.268,-0.2737,1.8008,1.8008,1.8008,1.7764,1.7373,1.7344,1.6953,1.6418,1.646,1.6106,1.5449,1.5478,1.5478,1.542,1.542,1.542,1.542,1.542,1.542,1.5391,1.5215,1.4747,1.4063,1.3777,1.3327,1.2754,1.27,1.2603,1.2397,1.2209,1.1977,1.166,1.1062,1.0274,0.9302,0.8873,0.8344,0.7674,0.7356,0.7015,0.6596,0.6644,0.6644,0.6589,0.6475,0.6543,0.6782,0.679,0.6936,0.7238,0.704,0.6919,0.6848,0.6459,0.6165,0.6072,0.6037,0.6073,0.6189,0.6196,0.633,0.66,0.662,0.6357,0.5746,0.512,0.4768,0.4771,0.4642,0.4637,0.4824,0.4922,0.4942,0.4864,0.4833,0.4624,0.4282,0.4107,0.401,0.3838,0.3424,0.2751,0.1859,0.128,0.0932,0.0864,0.0817,0.0795,0.0766,0.0744,0.0756,0.08,0.0826,0.0795,0.0748,0.0736,0.0785,0.0866,0.0692,0.0568,0.0612,0.0028,-0.056,-0.1144,-0.1691,-0.2377,-0.2984,-0.3277,-0.3139,-0.2822,-0.2821,-0.2816,-0.2655,-0.2596,-0.2609,1.812,1.811,1.811,1.7874,1.7475,1.6912,1.6479,1.6205,1.6186,1.595,1.5537,1.5449,1.542,1.542,1.542,1.542,1.542,1.542,1.542,1.542,1.542,1.4923,1.4172,1.4114,1.3675,1.2993,1.2915,1.2774,1.2554,1.2298,1.2005,1.1583,1.0745,0.9887,0.8976,0.8694,0.8309,0.7878,0.7628,0.7246,0.6766,0.6662,0.66,0.6543,0.6564,0.6717,0.6976,0.7129,0.7326,0.7539,0.7319,0.7156,0.7038,0.6641,0.637,0.629,0.624,0.6223,0.629,0.6437,0.6633,0.6966,0.7041,0.7111,0.7051,0.6253,0.55,0.5215,0.4971,0.4922,0.51,0.5183,0.5207,0.5122,0.4974,0.4786,0.4559,0.4263,0.4018,0.3907,0.3754,0.3351,0.2625,0.1837,0.1277,0.1018,0.0923,0.0861,0.0729,0.0697,0.0697,0.0705,0.0736,0.077,0.0704,0.0699,0.0756,0.0855,0.0762,0.0723,0.0772,0.0645,0.0364,-0.0111,-0.0768,-0.1466,-0.2116,-0.2633,-0.2722,-0.2493,-0.2576,-0.2684,-0.2606,-0.2592,-0.2555,1.8448,1.8448,1.8448,1.8198,1.775,1.6898,1.6467,1.6427,1.6467,1.6227,1.5837,1.5546,1.542,1.542,1.542,1.542,1.542,1.542,1.542,1.542,1.542,1.4923,1.4153,1.4114,1.3675,1.2993,1.2915,1.2808,1.2686,1.2529,1.2127,1.1446,1.0784,1.0161,0.9529,0.8981,0.8582,0.8324,0.8004,0.7621,0.7136,0.6607,0.6324,0.6331,0.6339,0.6339,0.6456,0.6914,0.7192,0.7183,0.7351,0.725,0.6885,0.6777,0.6574,0.6235,0.6203,0.6303,0.6573,0.7069,0.7256,0.708,0.7759,0.8011,0.765,0.7436,0.6848,0.5866,0.5225,0.5084,0.5252,0.5179,0.5108,0.5078,0.4836,0.459,0.4415,0.4062,0.3784,0.3638,0.3679,0.3561,0.3299,0.2635,0.1922,0.1471,0.1242,0.1053,0.0791,0.0719,0.0697,0.0697,0.0705,0.0705,0.0697,0.0697,0.0726,0.08,0.0786,0.0812,0.0849,0.0841,0.0701,0.0251,-0.0079,-0.047,-0.0938,-0.1531,-0.213,-0.2092,-0.2154,-0.2373,-0.2603,-0.2753,-0.2739,1.8482,1.8482,1.8482,1.8104,1.7391,1.6528,1.6156,1.6146,1.6156,1.6046,1.5905,1.5672,1.5575,1.5575,1.5478,1.542,1.542,1.542,1.542,1.542,1.541,1.4933,1.4172,1.4114,1.3691,1.2964,1.2915,1.2881,1.2832,1.2783,1.233,1.1569,1.1153,1.0514,0.9647,0.9258,0.8947,0.8753,0.8611,0.8449,0.819,0.7329,0.6813,0.677,0.6682,0.6715,0.6834,0.7085,0.7257,0.7323,0.7226,0.7048,0.6818,0.6581,0.6387,0.6216,0.6364,0.664,0.7102,0.7379,0.7598,0.7789,0.8181,0.8235,0.7847,0.7503,0.6924,0.6131,0.5512,0.5228,0.5269,0.5163,0.5065,0.4918,0.4686,0.4497,0.4362,0.4118,0.3972,0.3994,0.3755,0.36,0.3542,0.3176,0.2656,0.2144,0.1715,0.1262,0.0989,0.0809,0.0719,0.0697,0.0697,0.0697,0.0697,0.0697,0.0728,0.0775,0.0788,0.0828,0.088,0.0897,0.0785,0.0531,0.0409,0.0308,0.016,-0.0343,-0.0906,-0.1169,-0.1818,-0.2174,-0.2415,-0.2707,-0.2789,1.8684,1.861,1.8397,1.7922,1.7255,1.6404,1.6029,1.6029,1.6029,1.6029,1.6029,1.5885,1.5807,1.5778,1.5536,1.542,1.542,1.542,1.542,1.542,1.542,1.4991,1.4338,1.4289,1.3867,1.3164,1.3057,1.3023,1.2935,1.2915,1.2514,1.1846,1.1583,1.0956,0.9977,0.971,0.9484,0.9205,0.9205,0.9205,0.9047,0.8276,0.7629,0.7339,0.7177,0.713,0.7195,0.7297,0.7382,0.7502,0.7228,0.7014,0.6908,0.6637,0.6491,0.6572,0.6814,0.7174,0.7705,0.7812,0.8047,0.8456,0.8516,0.8339,0.7915,0.7429,0.6837,0.6258,0.5645,0.5293,0.5281,0.5119,0.4975,0.4808,0.4589,0.4414,0.4296,0.417,0.4104,0.421,0.3865,0.3664,0.379,0.37,0.3425,0.2824,0.2301,0.1783,0.1469,0.116,0.0863,0.0746,0.0709,0.0697,0.0697,0.0697,0.0732,0.0785,0.0805,0.0851,0.089,0.0895,0.0835,0.0648,0.0689,0.0659,0.0518,0.0248,-0.0045,-0.0494,-0.1191,-0.1932,-0.2125,-0.2484,-0.2729,1.9075,1.894,1.8132,1.775,1.7606,1.6748,1.6384,1.6345,1.6355,1.6374,1.6316,1.6163,1.6085,1.6028,1.5613,1.542,1.542,1.542,1.541,1.541,1.542,1.5176,1.4785,1.4746,1.4297,1.35,1.3428,1.3242,1.2935,1.2905,1.2656,1.2194,1.2056,1.156,1.0692,1.0493,1.0182,0.9756,0.97,0.9672,0.9634,0.9343,0.8742,0.7991,0.7683,0.7467,0.7285,0.7529,0.7627,0.7502,0.7453,0.737,0.7203,0.7147,0.7207,0.7412,0.7675,0.7959,0.829,0.8556,0.8711,0.8764,0.8751,0.854,0.7972,0.7456,0.6891,0.6258,0.5683,0.5336,0.5276,0.501,0.4832,0.4775,0.4491,0.4313,0.4302,0.4144,0.4104,0.4188,0.3928,0.3888,0.4282,0.4414,0.4055,0.3536,0.3241,0.2978,0.2417,0.1773,0.1266,0.0906,0.076,0.0697,0.0699,0.0724,0.0751,0.0794,0.0868,0.0884,0.0892,0.0885,0.0799,0.0752,0.0718,0.0699,0.0697,0.0539,0.0247,-0.027,-0.1062,-0.1673,-0.1797,-0.2201,-0.2462,1.9098,1.9046,1.8402,1.7999,1.7637,1.7027,1.6643,1.6402,1.6402,1.6402,1.6374,1.6181,1.6124,1.6085,1.5836,1.572,1.573,1.5643,1.5604,1.5575,1.5449,1.5186,1.4842,1.4785,1.4492,1.3929,1.3643,1.3291,1.2954,1.2915,1.2656,1.2281,1.218,1.1846,1.1349,1.1221,1.0976,1.0518,1.047,1.0346,1.0087,0.9873,0.9494,0.8998,0.8457,0.8046,0.7724,0.779,0.7725,0.7523,0.7502,0.7405,0.723,0.7322,0.7515,0.7749,0.8043,0.8343,0.8611,0.8751,0.8778,0.8778,0.8778,0.8613,0.8129,0.7616,0.7106,0.6541,0.5841,0.5425,0.5242,0.5001,0.4735,0.4606,0.4426,0.4298,0.4298,0.4232,0.421,0.4254,0.4126,0.4214,0.4519,0.4722,0.46,0.4277,0.4114,0.3865,0.3422,0.2693,0.19,0.1269,0.0883,0.0714,0.0744,0.0796,0.0847,0.0863,0.0887,0.0845,0.0845,0.079,0.073,0.0727,0.0701,0.0703,0.0704,0.0677,0.0406,0.016,-0.0686,-0.1165,-0.1447,-0.1896,-0.2184,1.9098,1.9025,1.8568,1.8206,1.7885,1.7265,1.6841,1.6591,1.6464,1.6402,1.6374,1.6249,1.621,1.6181,1.6105,1.6058,1.6039,1.5827,1.5682,1.5672,1.5488,1.5254,1.5029,1.499,1.4756,1.4307,1.376,1.3291,1.2954,1.2915,1.2734,1.2461,1.2418,1.2217,1.1868,1.1768,1.1553,1.1191,1.0986,1.0762,1.0498,1.0175,0.9932,0.9677,0.9159,0.8594,0.8152,0.8008,0.7801,0.7614,0.7572,0.7539,0.7488,0.7565,0.7797,0.8156,0.8355,0.8573,0.881,0.8837,0.8778,0.8778,0.8778,0.8646,0.8295,0.7791,0.7295,0.6686,0.5977,0.5433,0.5153,0.489,0.465,0.4497,0.4386,0.4302,0.4298,0.4298,0.4298,0.4298,0.4276,0.4438,0.4735,0.4937,0.4891,0.4743,0.4574,0.438,0.4124,0.3374,0.2556,0.1873,0.1409,0.1171,0.1075,0.1025,0.0884,0.0868,0.086,0.0823,0.0806,0.0742,0.0701,0.0698,0.0703,0.0709,0.071,0.0706,0.0619,0.0487,0.0095,-0.0461,-0.0988,-0.1646,-0.1949,1.9098,1.9046,1.8611,1.8424,1.8216,1.7471,1.7058,1.6913,1.6581,1.6454,1.6394,1.6374,1.6363,1.6374,1.6345,1.6374,1.6288,1.5943,1.573,1.573,1.5536,1.541,1.5381,1.5352,1.5127,1.4697,1.3926,1.332,1.2983,1.2935,1.2876,1.2886,1.2846,1.2607,1.2213,1.2194,1.2002,1.1614,1.1221,1.0986,1.0839,1.0456,1.0194,1.0028,0.9672,0.9174,0.8475,0.8193,0.7966,0.7746,0.7732,0.7794,0.7931,0.796,0.8177,0.8613,0.867,0.8753,0.8934,0.8883,0.8778,0.8778,0.8778,0.8653,0.8312,0.7856,0.7314,0.6723,0.6057,0.5417,0.5046,0.477,0.4549,0.4481,0.4382,0.4335,0.4302,0.4298,0.4298,0.4298,0.4298,0.4449,0.4763,0.5072,0.5089,0.4825,0.466,0.4546,0.4408,0.3728,0.309,0.2738,0.2218,0.1736,0.1489,0.1258,0.1034,0.0851,0.0832,0.0791,0.0813,0.0769,0.0707,0.07,0.0743,0.0751,0.0748,0.0744,0.0744,0.0607,0.0322,0.005,-0.0527,-0.1177,-0.182,1.9098,1.9088,1.8953,1.8704,1.8403,1.8071,1.7636,1.7027,1.6841,1.6663,1.6415,1.6402,1.6402,1.6402,1.6402,1.6402,1.6374,1.6105,1.598,1.5923,1.572,1.5604,1.5575,1.5478,1.5195,1.4756,1.4219,1.3695,1.332,1.3042,1.2915,1.2915,1.2915,1.2822,1.2676,1.2666,1.2461,1.207,1.1872,1.1658,1.1418,1.1199,1.0984,1.063,1.0387,0.994,0.9257,0.8756,0.8419,0.8188,0.8085,0.8077,0.8165,0.8382,0.8601,0.8767,0.8871,0.8899,0.8955,0.8877,0.8804,0.8804,0.8804,0.8586,0.8261,0.7949,0.751,0.6927,0.6387,0.5964,0.5562,0.5187,0.4847,0.4386,0.4391,0.4414,0.4363,0.4331,0.4298,0.4298,0.4298,0.4457,0.4767,0.5106,0.5207,0.5018,0.4908,0.4822,0.4519,0.427,0.4156,0.4098,0.3239,0.2382,0.2074,0.1706,0.135,0.1101,0.0965,0.0818,0.0808,0.0786,0.0724,0.0729,0.0771,0.0784,0.0807,0.0784,0.0785,0.0735,0.0514,0.0182,-0.0183,-0.0685,-0.122,1.9098,1.9098,1.9098,1.8942,1.8642,1.8486,1.8071,1.7522,1.7151,1.6851,1.6643,1.6475,1.6402,1.6402,1.6402,1.6402,1.6384,1.6278,1.621,1.6153,1.5846,1.5701,1.5682,1.5478,1.5195,1.4766,1.4309,1.389,1.3506,1.312,1.2915,1.2915,1.2915,1.2905,1.2915,1.2905,1.2725,1.248,1.2281,1.2067,1.1836,1.1685,1.1447,1.117,1.0983,1.0575,0.9995,0.9582,0.9141,0.8704,0.8461,0.8443,0.8699,0.8977,0.9098,0.9116,0.9137,0.9159,0.9133,0.8989,0.8883,0.8857,0.8831,0.8625,0.8259,0.8041,0.7683,0.737,0.694,0.6615,0.6338,0.5841,0.5278,0.4628,0.4605,0.4613,0.4575,0.4625,0.4686,0.4719,0.4706,0.4771,0.4977,0.5108,0.5242,0.5128,0.5101,0.5042,0.4736,0.4656,0.4791,0.4846,0.4377,0.3519,0.2715,0.2206,0.1725,0.1415,0.114,0.0969,0.083,0.0802,0.0744,0.0809,0.0852,0.0806,0.08,0.0822,0.0831,0.0723,0.0666,0.0458,0.019,0.0027,-0.0523,1.9164,1.9175,1.9175,1.9187,1.9092,1.8717,1.8425,1.8175,1.744,1.7017,1.6851,1.6529,1.6402,1.6402,1.6402,1.6402,1.6402,1.6374,1.6363,1.6249,1.5972,1.573,1.5672,1.5517,1.5253,1.4853,1.4348,1.3919,1.3603,1.315,1.2915,1.2915,1.2915,1.2915,1.2915,1.2915,1.2895,1.2807,1.248,1.2272,1.2233,1.1937,1.1694,1.1633,1.1504,1.1193,1.0732,1.054,1.0051,0.9199,0.8909,0.909,0.9495,0.9624,0.9603,0.9551,0.9451,0.9387,0.9335,0.9113,0.8982,0.8962,0.881,0.8677,0.8397,0.8101,0.7887,0.7815,0.7511,0.7287,0.7104,0.6655,0.5902,0.5187,0.4943,0.4905,0.5011,0.5151,0.5179,0.5236,0.5281,0.5285,0.5245,0.5281,0.5234,0.5156,0.5128,0.5069,0.4987,0.4959,0.5046,0.4991,0.4881,0.4349,0.3436,0.224,0.1786,0.1634,0.1356,0.1158,0.0936,0.0855,0.079,0.0858,0.0878,0.0857,0.0827,0.0847,0.0858,0.0827,0.0774,0.0699,0.0533,0.0308,-0.0168,1.9846,1.9835,1.9846,1.9781,1.966,1.9391,1.8828,1.8114,1.7709,1.7141,1.6663,1.6436,1.6402,1.6402,1.6402,1.6402,1.6402,1.6402,1.6402,1.6374,1.6134,1.5865,1.573,1.5643,1.5487,1.5165,1.4455,1.4019,1.389,1.3223,1.2925,1.2915,1.2915,1.2915,1.2915,1.2915,1.2915,1.2895,1.2817,1.2695,1.2676,1.2612,1.2373,1.207,1.2005,1.1759,1.138,1.1332,1.0797,0.9797,0.9905,0.996,1.0003,1.0012,0.994,0.9732,0.9517,0.9413,0.9361,0.9166,0.9015,0.8961,0.8748,0.8489,0.8409,0.8103,0.7894,0.7853,0.7898,0.7856,0.7445,0.7182,0.6628,0.577,0.53,0.514,0.5189,0.5253,0.5301,0.5301,0.5301,0.5301,0.5301,0.5301,0.5274,0.5242,0.5242,0.5215,0.5156,0.5156,0.5215,0.5242,0.5105,0.4712,0.3935,0.2603,0.1878,0.1794,0.1586,0.1414,0.1187,0.0983,0.0928,0.0893,0.089,0.0875,0.0851,0.0864,0.0897,0.0897,0.0841,0.0785,0.0561,0.0308,-0.0196,2.0516,2.0516,2.0516,2.0387,2.0172,1.9922,1.9265,1.8406,1.7885,1.7306,1.6726,1.6446,1.6402,1.6402,1.6402,1.6402,1.6402,1.6402,1.6402,1.6384,1.6278,1.6019,1.5769,1.5682,1.5575,1.5312,1.4513,1.4153,1.3948,1.3291,1.2954,1.2915,1.2915,1.2915,1.2915,1.2915,1.2915,1.2905,1.2915,1.2915,1.2915,1.2915,1.2798,1.2539,1.25,1.2295,1.1914,1.1846,1.1474,1.0893,1.0828,1.0789,1.0606,1.0386,1.018,0.9895,0.9629,0.9484,0.9432,0.929,0.9192,0.9112,0.8824,0.8599,0.8484,0.8252,0.8081,0.8218,0.8449,0.8381,0.8136,0.7739,0.6994,0.611,0.5567,0.5329,0.5301,0.5297,0.5301,0.5301,0.5301,0.5301,0.5301,0.5301,0.5301,0.5301,0.5301,0.5301,0.5301,0.5301,0.5301,0.5301,0.5274,0.4936,0.4294,0.3072,0.2102,0.1936,0.1741,0.1572,0.1375,0.115,0.1009,0.0925,0.0897,0.0897,0.0897,0.0897,0.0897,0.0897,0.0897,0.0813,0.0617,0.0477,-0.0084,2.123,2.1198,2.1198,2.1028,2.0687,2.03,1.9628,1.8859,1.807,1.7437,1.6969,1.6615,1.6459,1.6431,1.6402,1.6402,1.6402,1.6402,1.6402,1.6402,1.6335,1.6134,1.5817,1.5788,1.5603,1.5243,1.4492,1.4141,1.3848,1.3223,1.2944,1.2915,1.2915,1.2915,1.2915,1.2915,1.2915,1.2915,1.2915,1.2915,1.2915,1.2915,1.2876,1.2856,1.2827,1.2656,1.2369,1.2248,1.2103,1.1902,1.1653,1.1453,1.1275,1.0778,1.036,1.0051,0.9777,0.9588,0.9562,0.9432,0.9387,0.9328,0.9126,0.894,0.873,0.8553,0.855,0.8845,0.8884,0.8932,0.8969,0.8224,0.7367,0.6587,0.5884,0.5411,0.5301,0.5301,0.5301,0.5301,0.5301,0.5301,0.5301,0.5301,0.5301,0.5301,0.5301,0.5301,0.5301,0.5301,0.5301,0.5301,0.527,0.5187,0.4432,0.3541,0.2685,0.2104,0.1881,0.1685,0.1515,0.1318,0.1094,0.101,0.115,0.1094,0.0898,0.0897,0.0924,0.0897,0.0897,0.0813,0.0729,0.0645,0.028,2.1968,2.1944,2.1968,2.1757,2.1393,2.0659,1.9865,1.9058,1.8248,1.7581,1.7066,1.6782,1.6648,1.6552,1.6431,1.6402,1.6402,1.6402,1.6402,1.6402,1.6402,1.6249,1.6038,1.5999,1.5664,1.5127,1.4587,1.41,1.3629,1.3203,1.2915,1.2915,1.2915,1.2915,1.2915,1.2915,1.2915,1.2915,1.2915,1.2915,1.2915,1.2915,1.2915,1.2915,1.2915,1.2876,1.2773,1.2744,1.271,1.2614,1.2387,1.204,1.1601,1.1091,1.0616,1.0205,0.9829,0.9614,0.9588,0.9484,0.9413,0.9387,0.9246,0.9083,0.92,0.8904,0.9018,0.9319,0.9372,0.9357,0.9443,0.8847,0.8108,0.7417,0.6482,0.5661,0.5388,0.5333,0.5301,0.5301,0.5301,0.5301,0.5301,0.5301,0.5301,0.5301,0.5301,0.5301,0.5301,0.5301,0.5301,0.5301,0.5301,0.5215,0.4794,0.3932,0.3102,0.2354,0.202,0.1797,0.1628,0.1543,0.1375,0.1375,0.1487,0.1317,0.1059,0.1004,0.1057,0.0977,0.0897,0.0841,0.0813,0.0757,0.0673,2.2635,2.261,2.2365,2.2061,2.1632,2.0806,1.9994,1.924,1.8609,1.7939,1.7384,1.7095,1.6881,1.6694,1.6477,1.6402,1.6402,1.6402,1.6402,1.6402,1.6402,1.6345,1.6278,1.6169,1.5833,1.5054,1.4582,1.4067,1.3531,1.314,1.2915,1.2915,1.2915,1.2915,1.2915,1.2905,1.2915,1.2915,1.2915,1.2915,1.2915,1.2915,1.2915,1.2915,1.2915,1.2915,1.2895,1.2905,1.2905,1.2866,1.2759,1.2446,1.1902,1.1368,1.0837,1.0411,0.988,0.964,0.9588,0.9536,0.9484,0.9506,0.9436,0.9498,0.9549,0.9364,0.9466,0.9766,0.9795,0.9701,0.9672,0.9292,0.8769,0.8276,0.7407,0.6582,0.6089,0.563,0.5301,0.5301,0.5301,0.5301,0.5301,0.5301,0.5301,0.5301,0.5301,0.5301,0.5301,0.5301,0.5301,0.5301,0.5301,0.5215,0.5018,0.4349,0.3436,0.2742,0.2186,0.1964,0.1769,0.1713,0.1713,0.168,0.1644,0.1464,0.1237,0.1213,0.1109,0.0978,0.0926,0.0897,0.0869,0.0841,0.0813,2.3095,2.3058,2.2535,2.2147,2.1714,2.0863,2.0056,1.9411,1.9006,1.8432,1.786,1.7479,1.7251,1.6948,1.6676,1.6545,1.6545,1.6563,1.662,1.662,1.662,1.6591,1.6563,1.6464,1.6014,1.5084,1.4687,1.4142,1.35,1.3126,1.2992,1.2968,1.2944,1.2968,1.2968,1.2944,1.2958,1.2983,1.2992,1.2978,1.2964,1.2964,1.2939,1.2915,1.2915,1.2915,1.2915,1.2915,1.2915,1.2915,1.2915,1.2627,1.2175,1.1594,1.1057,1.059,1.0035,0.9725,0.9647,0.9621,0.9603,0.968,0.9825,0.9986,1.0009,1.0038,1.0119,1.0186,1.0212,1.008,0.9846,0.9656,0.9362,0.8997,0.8454,0.7851,0.7076,0.6178,0.5702,0.5301,0.5301,0.5301,0.5301,0.5301,0.5301,0.5301,0.5301,0.5301,0.5301,0.5301,0.5301,0.5301,0.5301,0.5301,0.5132,0.4849,0.3935,0.3299,0.2631,0.2158,0.1936,0.1797,0.1765,0.1749,0.1682,0.1533,0.1418,0.1311,0.1185,0.1032,0.0982,0.101,0.0982,0.0954,0.0897,2.3095,2.3058,2.2535,2.2193,2.1869,2.0769,2.0101,1.9815,1.9231,1.8789,1.8437,1.8093,1.7815,1.7534,1.72,1.7088,1.7088,1.7088,1.7078,1.7078,1.7078,1.7088,1.7078,1.6955,1.6284,1.5373,1.4835,1.4276,1.3466,1.3176,1.3108,1.3132,1.3132,1.3132,1.3132,1.3146,1.3132,1.3108,1.3108,1.3094,1.3051,1.3036,1.2978,1.2915,1.2915,1.2915,1.2915,1.2915,1.2915,1.2915,1.2915,1.2744,1.2463,1.1981,1.1454,1.0845,1.0275,0.9895,0.9836,0.9703,0.9768,0.9975,1.0177,1.0394,1.0557,1.0753,1.077,1.0769,1.0746,1.0601,1.0452,1.0228,1.0031,0.9819,0.9581,0.9109,0.814,0.7202,0.6298,0.5686,0.5502,0.5301,0.5301,0.5301,0.5301,0.5301,0.5301,0.5301,0.5301,0.5301,0.5301,0.5301,0.5301,0.5301,0.5274,0.5014,0.4515,0.3965,0.3297,0.2464,0.2186,0.1908,0.1789,0.1779,0.1766,0.1671,0.1556,0.1443,0.1429,0.1396,0.1288,0.115,0.1122,0.1094,0.0954,2.3095,2.302,2.2234,2.1854,2.1581,2.0501,1.9961,1.9871,1.9533,1.9277,1.8987,1.8709,1.8402,1.8088,1.7804,1.7667,1.7667,1.7678,1.7667,1.7678,1.7678,1.7678,1.7639,1.7473,1.6645,1.5784,1.5221,1.4414,1.3323,1.3204,1.3218,1.3218,1.3218,1.3218,1.3218,1.3194,1.3218,1.3218,1.3218,1.3156,1.3099,1.3061,1.2954,1.2929,1.2915,1.2915,1.2915,1.2915,1.2915,1.2954,1.3111,1.3074,1.295,1.2756,1.2266,1.1311,1.0589,1.0228,1.014,0.9991,1.0016,1.0331,1.0559,1.0755,1.0972,1.1158,1.1264,1.1146,1.1146,1.0989,1.0843,1.0744,1.0681,1.0586,1.0428,0.9907,0.9113,0.8254,0.7288,0.6306,0.599,0.571,0.5301,0.5301,0.5301,0.5301,0.5301,0.5301,0.5301,0.5301,0.5301,0.5301,0.5301,0.5301,0.5301,0.5156,0.4956,0.4491,0.3938,0.313,0.2491,0.2214,0.1936,0.1793,0.1777,0.1817,0.167,0.1558,0.1659,0.173,0.154,0.1347,0.129,0.1206,0.1066,2.3095,2.302,2.2058,2.1656,2.1468,2.0451,1.9999,1.9949,1.9823,1.963,1.9447,1.9172,1.8895,1.8643,1.8429,1.8294,1.8282,1.8294,1.8267,1.8267,1.8294,1.8294,1.8201,1.7805,1.7108,1.6144,1.5531,1.4683,1.3562,1.3324,1.33,1.3314,1.329,1.329,1.3324,1.3314,1.328,1.328,1.329,1.3238,1.3138,1.3027,1.2939,1.2939,1.2915,1.2915,1.2915,1.2915,1.2993,1.3096,1.3301,1.3474,1.3507,1.3717,1.3195,1.1981,1.1189,1.0915,1.0744,1.0599,1.0617,1.0897,1.1063,1.1189,1.1277,1.1414,1.1466,1.1296,1.1233,1.1209,1.109,1.1097,1.1059,1.1028,1.0807,1.0485,0.9856,0.9134,0.8366,0.7501,0.6765,0.6108,0.5672,0.5301,0.5301,0.5301,0.5301,0.5301,0.5301,0.5301,0.5301,0.5301,0.5301,0.5301,0.5301,0.5301,0.5156,0.4936,0.4432,0.3766,0.3102,0.2547,0.241,0.2383,0.1933,0.1946,0.1795,0.1677,0.172,0.1732,0.1625,0.1543,0.1459,0.1346,0.1178,2.3095,2.3045,2.2472,2.2221,2.202,2.1018,2.0591,2.0528,2.0062,1.9708,1.9713,1.9483,1.9363,1.9168,1.9035,1.8931,1.8895,1.8895,1.8869,1.8857,1.8857,1.8833,1.8747,1.8107,1.738,1.6505,1.5811,1.4777,1.3928,1.3658,1.3586,1.3586,1.3662,1.3583,1.3714,1.3821,1.3539,1.3583,1.3573,1.3491,1.3358,1.321,1.3099,1.3051,1.2954,1.2915,1.2925,1.2964,1.3066,1.3379,1.3477,1.3685,1.3931,1.4012,1.3924,1.3373,1.2788,1.213,1.185,1.1579,1.1469,1.1614,1.1651,1.1624,1.1599,1.1573,1.149,1.1226,1.1264,1.1272,1.1185,1.1122,1.1129,1.1129,1.109,1.0776,1.0333,1.0072,0.9306,0.8431,0.7588,0.6662,0.596,0.5602,0.5301,0.5301,0.5301,0.5301,0.5301,0.5301,0.5301,0.5301,0.5301,0.5301,0.5301,0.5301,0.5274,0.5187,0.4849,0.4374,0.3904,0.3408,0.3441,0.3304,0.2772,0.213,0.184,0.1754,0.1758,0.1762,0.1712,0.1656,0.16,0.1459,0.1318,2.3095,2.3045,2.2506,2.2322,2.2171,2.1157,2.088,2.0993,2.0566,2.045,2.0646,2.0603,2.0399,2.0033,1.9982,1.977,1.9548,1.9422,1.9448,1.9422,1.9397,1.9274,1.8928,1.8443,1.7746,1.6763,1.6101,1.5507,1.4644,1.4186,1.4046,1.4099,1.4313,1.4497,1.4497,1.4757,1.4679,1.4473,1.4145,1.3892,1.3692,1.3454,1.3248,1.3152,1.2992,1.2939,1.2974,1.3154,1.3291,1.3603,1.3877,1.4297,1.4521,1.4679,1.476,1.4582,1.4203,1.3598,1.2919,1.2572,1.2468,1.2433,1.2335,1.218,1.1849,1.1654,1.156,1.1428,1.1459,1.1435,1.1387,1.1373,1.1373,1.1373,1.1341,1.1153,1.087,1.0751,1.0238,0.9338,0.8506,0.7773,0.6998,0.6492,0.6048,0.5605,0.5483,0.5301,0.5301,0.5301,0.5301,0.5301,0.5301,0.5301,0.5301,0.5301,0.5301,0.5242,0.5242,0.4849,0.468,0.4432,0.4356,0.4221,0.3799,0.3077,0.2188,0.1796,0.1792,0.1794,0.1797,0.1741,0.1685,0.16,0.1459,2.3095,2.307,2.2656,2.2481,2.2406,2.1509,2.1345,2.1594,2.1131,2.1131,2.137,2.1292,2.1018,2.0717,2.0451,2.0072,1.9785,1.9798,1.9798,1.9798,1.9761,1.9559,1.9207,1.8783,1.802,1.6868,1.6538,1.5939,1.5429,1.512,1.5013,1.4804,1.5317,1.547,1.5603,1.5772,1.5806,1.5515,1.5132,1.488,1.4631,1.411,1.3793,1.349,1.3207,1.3003,1.3126,1.3291,1.3486,1.4004,1.4375,1.4727,1.4941,1.5146,1.5225,1.5129,1.4916,1.4647,1.4017,1.3625,1.3385,1.3211,1.2903,1.2412,1.1732,1.1622,1.1703,1.1699,1.1589,1.1619,1.1648,1.1641,1.156,1.1529,1.156,1.1435,1.1341,1.1153,1.0902,1.0263,0.9626,0.9402,0.8592,0.7715,0.6984,0.6165,0.5724,0.5396,0.5333,0.5337,0.5333,0.5337,0.5301,0.5329,0.5329,0.5329,0.5329,0.5329,0.5329,0.5246,0.5018,0.5018,0.4994,0.4829,0.4605,0.3882,0.2912,0.2327,0.1797,0.1797,0.1797,0.1797,0.1769,0.1684,0.1628,2.3095,2.3095,2.3045,2.3007,2.297,2.246,2.2196,2.2196,2.1681,2.1468,2.1521,2.1081,2.093,2.0616,2.0277,1.9974,1.9798,1.9798,1.9798,1.9798,1.9786,1.971,1.9409,1.8946,1.8388,1.7602,1.7033,1.6398,1.6078,1.6286,1.6103,1.5938,1.6364,1.6537,1.6593,1.6696,1.6731,1.6558,1.6349,1.6191,1.5829,1.5296,1.4738,1.4289,1.3667,1.3263,1.358,1.3586,1.3867,1.4482,1.4784,1.5019,1.5234,1.5352,1.5381,1.5362,1.5332,1.5148,1.4868,1.4528,1.4227,1.3803,1.3288,1.2655,1.1957,1.1807,1.1864,1.1987,1.1853,1.1787,1.1816,1.178,1.1694,1.1591,1.1591,1.1529,1.1466,1.149,1.1247,1.0933,1.0618,1.0231,1.0104,0.9199,0.7876,0.7008,0.5964,0.5621,0.5424,0.5416,0.5376,0.5345,0.5333,0.5329,0.5352,0.5352,0.5325,0.5325,0.5352,0.5329,0.5242,0.5301,0.5301,0.5187,0.4881,0.4245,0.3663,0.3051,0.2465,0.1992,0.1797,0.1797,0.1797,0.1741,0.1741,2.3095,2.3095,2.3095,2.3095,2.307,2.2518,2.2481,2.2669,2.2234,2.1995,2.197,2.1744,2.132,2.0767,2.0503,2.0112,1.9849,1.9798,1.9798,1.9798,1.9786,1.9623,1.9346,1.9021,1.8459,1.7739,1.7246,1.6839,1.6398,1.7119,1.7451,1.7447,1.7518,1.7584,1.763,1.7618,1.7618,1.7548,1.7358,1.7057,1.6715,1.6241,1.5601,1.4817,1.4235,1.3741,1.3729,1.3831,1.4228,1.4678,1.501,1.5225,1.5361,1.54,1.542,1.542,1.542,1.542,1.54,1.5157,1.4922,1.4582,1.3979,1.3313,1.2655,1.2555,1.2445,1.2387,1.2204,1.2171,1.1937,1.1926,1.1816,1.1679,1.1591,1.1529,1.1529,1.156,1.1529,1.1216,1.1028,1.0807,1.0744,1.0665,0.9217,0.783,0.6745,0.5867,0.5705,0.58,0.5914,0.5705,0.5656,0.5745,0.5791,0.5599,0.538,0.538,0.5407,0.5329,0.5301,0.5301,0.5301,0.5242,0.5242,0.4829,0.4301,0.3719,0.3051,0.2272,0.1937,0.1797,0.1797,0.1825,0.1797,2.3095,2.3095,2.3095,2.3095,2.3045,2.2694,2.2732,2.2995,2.2706,2.2447,2.228,2.2133,2.1568,2.0855,2.0453,2.0239,1.9874,1.9798,1.9798,1.9798,1.9748,1.9572,1.9346,1.9146,1.8882,1.8041,1.7827,1.7581,1.7145,1.8005,1.8259,1.8399,1.8598,1.8654,1.8678,1.8664,1.869,1.8568,1.8398,1.8043,1.7804,1.729,1.6688,1.5723,1.4896,1.4481,1.43,1.4307,1.4414,1.4873,1.5225,1.5371,1.541,1.542,1.542,1.542,1.542,1.542,1.54,1.5468,1.539,1.5027,1.4803,1.4282,1.3937,1.3567,1.3179,1.2901,1.2747,1.2494,1.2233,1.2135,1.1984,1.1794,1.1628,1.156,1.156,1.1591,1.1591,1.1498,1.1341,1.1185,1.1028,1.0888,0.9885,0.8555,0.7637,0.6692,0.6045,0.6304,0.6851,0.6534,0.6134,0.6225,0.6337,0.6064,0.5763,0.5567,0.554,0.5356,0.5301,0.5301,0.5301,0.5301,0.5274,0.5301,0.4967,0.4353,0.3383,0.2355,0.2188,0.2104,0.1908,0.1936,0.1825,2.3108,2.3095,2.3138,2.3125,2.3138,2.3083,2.3083,2.3095,2.3045,2.2706,2.218,2.1782,2.1217,2.0629,2.0151,1.9911,1.9849,1.9798,1.9798,1.9798,1.9798,1.9761,1.9736,1.9585,1.9271,1.9058,1.8732,1.8381,1.8005,1.8531,1.8832,1.9033,1.922,1.9532,1.9709,1.9747,1.9747,1.9735,1.9622,1.9354,1.9011,1.8452,1.779,1.6894,1.5763,1.5265,1.5204,1.4677,1.4794,1.5319,1.539,1.5478,1.5449,1.542,1.542,1.542,1.542,1.542,1.5449,1.565,1.5689,1.5583,1.5457,1.5453,1.536,1.4779,1.3849,1.3604,1.3156,1.2939,1.2696,1.2441,1.22,1.1977,1.1811,1.165,1.1657,1.1591,1.1591,1.1591,1.1591,1.1529,1.1279,1.0892,1.0169,0.9266,0.8471,0.7655,0.6877,0.7158,0.7925,0.7908,0.7429,0.7069,0.7115,0.6529,0.6173,0.5923,0.5622,0.5407,0.5301,0.5301,0.5301,0.5301,0.5301,0.5301,0.5215,0.5018,0.4128,0.3327,0.2717,0.2493,0.2242,0.199,0.188,2.3407,2.3437,2.3437,2.3437,2.3378,2.3198,2.3095,2.3095,2.3045,2.2606,2.187,2.1571,2.0928,2.025,1.9949,1.9824,1.9798,1.9798,1.9798,1.9798,1.9798,1.9798,1.9798,1.9748,1.9509,1.9146,1.8958,1.8794,1.8166,1.8819,1.8983,1.9133,1.9535,1.9773,1.9798,1.9798,1.9798,1.9798,1.976,1.9683,1.9514,1.9147,1.8594,1.7782,1.6715,1.6231,1.6138,1.5409,1.5373,1.5754,1.5768,1.5633,1.5565,1.5507,1.542,1.542,1.542,1.5566,1.585,1.6169,1.6352,1.6275,1.6309,1.6474,1.6684,1.5817,1.501,1.4273,1.3651,1.3316,1.2936,1.2855,1.2628,1.2292,1.2058,1.1845,1.175,1.1657,1.1591,1.1591,1.1591,1.1591,1.1435,1.131,1.066,1.0227,0.9525,0.8927,0.8212,0.8674,0.9331,0.9425,0.9132,0.8491,0.7929,0.7362,0.6695,0.6305,0.5841,0.5356,0.5301,0.5301,0.5301,0.5301,0.5301,0.5301,0.5242,0.516,0.5018,0.4491,0.3791,0.3058,0.2629,0.224,0.1853,2.4102,2.4102,2.4102,2.4073,2.3985,2.3514,2.3288,2.3288,2.3263,2.2757,2.2065,2.1749,2.1167,2.0433,2.0054,1.9888,1.9862,1.9888,1.9837,1.9798,1.9798,1.9798,1.9798,1.9786,1.9648,1.9321,1.9233,1.9083,1.8882,1.9145,1.9284,1.9409,1.9623,1.9761,1.9798,1.9798,1.9798,1.9798,1.9798,1.9773,1.9656,1.9452,1.916,1.8466,1.7763,1.7247,1.687,1.6455,1.6049,1.6198,1.6114,1.5855,1.5739,1.5565,1.5439,1.542,1.5449,1.5644,1.6046,1.6455,1.6629,1.6772,1.6977,1.7182,1.7267,1.6436,1.5738,1.5013,1.4274,1.3771,1.3456,1.3353,1.2969,1.2623,1.2387,1.2175,1.2057,1.1931,1.1716,1.1716,1.1591,1.1591,1.1591,1.156,1.1274,1.0968,1.064,1.0038,0.9502,0.9898,1.0295,1.0408,1.0215,0.9417,0.8727,0.8184,0.7501,0.6771,0.625,0.5759,0.5301,0.5301,0.5301,0.5301,0.5301,0.5301,0.5301,0.5246,0.5132,0.5032,0.4752,0.3992,0.319,0.2601,0.2102,2.5021,2.5007,2.5021,2.4979,2.4851,2.4089,2.3704,2.3688,2.3688,2.337,2.2817,2.2319,2.1753,2.112,2.0566,2.0233,2.0054,2.0029,1.9926,1.9837,1.9798,1.9798,1.9798,1.9786,1.9723,1.9761,1.971,1.9585,1.9723,1.9648,1.9673,1.9723,1.9748,1.9798,1.9798,1.9798,1.9798,1.9798,1.9798,1.9798,1.9747,1.9747,1.9529,1.9021,1.8488,1.8122,1.7733,1.7297,1.6923,1.6738,1.651,1.6208,1.5931,1.5613,1.5497,1.542,1.542,1.5684,1.6163,1.656,1.6911,1.7152,1.747,1.7503,1.7339,1.6968,1.6464,1.5762,1.5026,1.4525,1.4119,1.3686,1.3294,1.3031,1.2753,1.2576,1.2465,1.2281,1.2017,1.184,1.1654,1.1591,1.1591,1.156,1.1591,1.1373,1.1083,1.0885,1.0444,1.0447,1.0832,1.109,1.0781,1.0137,0.9499,0.8809,0.8248,0.7483,0.6954,0.6463,0.595,0.536,0.5301,0.5301,0.5301,0.5301,0.5301,0.5301,0.5301,0.5187,0.5089,0.4692,0.3792,0.3081,0.2575,2.5287,2.5287,2.53,2.5287,2.5231,2.4979,2.4781,2.4609,2.4595,2.4274,2.3713,2.3539,2.2818,2.1962,2.1622,2.1065,2.0577,2.022,1.9991,1.9875,1.9798,1.9798,1.9798,1.9798,1.9798,1.9798,1.9798,1.9798,1.9786,1.9811,1.9836,1.9786,1.9949,1.9911,1.9899,1.9823,1.9886,1.9861,1.9886,1.9798,1.9798,1.9798,1.9682,1.9375,1.9028,1.8711,1.8407,1.7955,1.7609,1.7385,1.6927,1.657,1.6389,1.5912,1.5614,1.542,1.5488,1.5673,1.6356,1.6629,1.697,1.7506,1.7833,1.7847,1.7759,1.752,1.7166,1.6473,1.5885,1.5346,1.4705,1.4213,1.38,1.3504,1.3271,1.3174,1.3068,1.3028,1.268,1.1934,1.1747,1.1685,1.1685,1.1716,1.1716,1.156,1.1435,1.131,1.1247,1.1185,1.1178,1.1435,1.127,1.0605,0.9905,0.922,0.8752,0.8231,0.7703,0.7058,0.6293,0.5775,0.5451,0.5329,0.5356,0.5329,0.5301,0.5301,0.5301,0.527,0.5143,0.4864,0.4469,0.3843,0.3142,2.5947,2.5974,2.5961,2.5947,2.5947,2.5947,2.5865,2.566,2.5315,2.4915,2.46,2.4368,2.3725,2.2854,2.231,2.1604,2.0686,2.0397,2.0118,1.985,1.9836,1.9798,1.9798,1.9798,1.9798,1.9798,1.9798,1.9798,1.9861,2.0075,2.0189,2.0226,2.03,2.0439,2.0526,2.0616,2.0578,2.0351,2.0125,1.9886,1.9823,1.9823,1.9734,1.9578,1.933,1.9158,1.8958,1.8491,1.8302,1.8057,1.754,1.7162,1.6814,1.62,1.5662,1.5508,1.5654,1.5995,1.6551,1.6882,1.7373,1.7793,1.8008,1.8008,1.7974,1.7837,1.752,1.7097,1.6656,1.6167,1.5453,1.476,1.4374,1.4006,1.3899,1.3765,1.3792,1.3826,1.3163,1.2243,1.1934,1.184,1.184,1.1934,1.1903,1.1872,1.1755,1.1599,1.1498,1.1466,1.1435,1.1529,1.1392,1.1084,1.0391,0.9824,0.9505,0.9048,0.844,0.7742,0.6814,0.6339,0.615,0.5759,0.538,0.538,0.5352,0.5329,0.5301,0.527,0.5258,0.5126,0.4998,0.4795,0.4094,2.6779,2.6753,2.6794,2.6727,2.6779,2.6727,2.6727,2.67,2.592,2.5508,2.5438,2.5021,2.4476,2.3738,2.3165,2.2162,2.1397,2.0911,2.0527,1.9925,1.9987,1.9962,1.9823,1.9798,1.9798,1.9798,1.9823,1.9874,2.0075,2.0314,2.0578,2.0754,2.1131,2.1242,2.1192,2.1217,2.1154,2.1054,2.0564,2.0162,1.9987,1.9911,1.9797,1.9642,1.9512,1.9434,1.9249,1.909,1.9011,1.864,1.8251,1.7788,1.7039,1.6446,1.5902,1.5792,1.5969,1.6381,1.6821,1.7151,1.75,1.7822,1.8008,1.8008,1.8008,1.8008,1.7725,1.7623,1.722,1.676,1.6114,1.5542,1.5117,1.484,1.4676,1.4502,1.4396,1.4271,1.3709,1.2901,1.2482,1.2451,1.2842,1.2964,1.272,1.2451,1.2089,1.1926,1.1692,1.1654,1.1622,1.1622,1.15,1.1332,1.0989,1.053,1.0365,0.9915,0.9352,0.8864,0.8247,0.7581,0.6901,0.6463,0.6005,0.5567,0.5434,0.5489,0.5462,0.5297,0.5321,0.5405,0.5368,0.5271,0.4996,2.6794,2.6794,2.6794,2.6794,2.6794,2.6794,2.6794,2.6779,2.658,2.6447,2.6445,2.6218,2.5601,2.4558,2.4308,2.3372,2.2101,2.1706,2.1287,2.0751,2.0478,2.0302,1.9936,2.0012,1.9911,1.9798,1.9849,2.0125,2.0478,2.0717,2.0955,2.1282,2.1568,2.1656,2.1656,2.1644,2.1644,2.1669,2.138,2.0853,2.0603,2.0413,2.0299,1.9815,1.9537,1.9394,1.9223,1.9078,1.8946,1.8706,1.8425,1.7799,1.6948,1.6609,1.6442,1.6356,1.6527,1.6928,1.7219,1.752,1.775,1.7895,1.8008,1.8008,1.8008,1.8008,1.7974,1.7906,1.7657,1.7235,1.6811,1.6315,1.5895,1.5683,1.548,1.5273,1.5103,1.472,1.4312,1.3739,1.3233,1.339,1.3803,1.3803,1.3532,1.3139,1.2612,1.2243,1.1833,1.1685,1.1716,1.1685,1.1622,1.1454,1.1226,1.1129,1.0934,1.0948,1.0587,1.0117,0.9617,0.8638,0.7702,0.716,0.6701,0.6268,0.5973,0.5859,0.5778,0.5513,0.5356,0.5401,0.5373,0.5285,0.5279,2.6794,2.6794,2.6794,2.6794,2.6794,2.6794,2.6794,2.6794,2.6794,2.6794,2.6794,2.6721,2.6239,2.5307,2.5152,2.4349,2.2911,2.2618,2.1952,2.1366,2.11,2.092,2.0666,2.0464,2.0627,2.0552,2.0564,2.0817,2.1043,2.1368,2.1656,2.187,2.1995,2.2159,2.2171,2.2196,2.2171,2.2246,2.2159,2.187,2.1345,2.0966,2.0507,1.9961,1.9592,1.9399,1.9158,1.904,1.8972,1.8839,1.8587,1.8197,1.7645,1.7503,1.7395,1.7372,1.7499,1.7698,1.7883,1.8001,1.7982,1.8055,1.8008,1.8008,1.8008,1.8008,1.8008,1.794,1.7759,1.7339,1.7201,1.6811,1.6568,1.6333,1.6403,1.6349,1.6417,1.6404,1.5607,1.4682,1.4371,1.443,1.4726,1.4756,1.4401,1.37,1.3169,1.2597,1.2182,1.1778,1.1778,1.184,1.1809,1.1654,1.1454,1.1416,1.1401,1.1469,1.149,1.0913,1.0182,0.9299,0.8507,0.8057,0.7547,0.7047,0.6777,0.6514,0.6064,0.5736,0.5544,0.5415,0.5364,0.5353,0.5289,2.6794,2.6794,2.6794,2.6794,2.6794,2.6794,2.6794,2.6794,2.6794,2.6794,2.6794,2.6794,2.6373,2.5839,2.5469,2.4549,2.387,2.3555,2.2758,2.2095,2.186,2.1534,2.1385,2.1368,2.128,2.1267,2.1292,2.1418,2.1594,2.1907,2.2171,2.2431,2.2757,2.307,2.3095,2.307,2.2945,2.2882,2.2807,2.2732,2.2159,2.143,2.0877,2.0368,1.9885,1.9482,1.931,1.9242,1.9254,1.9135,1.9029,1.8713,1.8562,1.8493,1.8442,1.8448,1.8595,1.867,1.8644,1.8596,1.8405,1.8212,1.811,1.8076,1.811,1.811,1.8144,1.8042,1.7862,1.7657,1.752,1.7417,1.7176,1.7072,1.7176,1.7279,1.7482,1.7682,1.6732,1.5652,1.5487,1.5487,1.5517,1.5556,1.5133,1.4436,1.377,1.3128,1.2598,1.2182,1.1957,1.2081,1.2205,1.1988,1.1646,1.1584,1.1591,1.156,1.1498,1.1216,1.0781,1.0016,0.9419,0.9031,0.8515,0.8001,0.7477,0.7137,0.6634,0.6327,0.6098,0.6006,0.5635,0.5599,0.5357,2.6794,2.6794,2.6794,2.6794,2.6794,2.6794,2.6794,2.6794,2.6794,2.6794,2.6794,2.6736,2.6416,2.5796,2.6045,2.5491,2.4685,2.4409,2.3779,2.3052,2.2745,2.2181,2.1804,2.182,2.1556,2.1594,2.1719,2.1794,2.2083,2.2297,2.2531,2.2907,2.2932,2.3095,2.3095,2.3095,2.3095,2.3095,2.3095,2.2982,2.2857,2.2255,2.1722,2.1228,2.0853,2.0624,2.0483,2.0354,2.0298,2.0141,1.9841,1.9552,1.9497,1.9517,1.9517,1.9535,1.9663,1.9572,1.9501,1.9313,1.9054,1.864,1.8573,1.8549,1.8539,1.8583,1.8549,1.8506,1.8303,1.8042,1.7872,1.7872,1.7701,1.7701,1.7735,1.7759,1.7852,1.7876,1.7502,1.6755,1.6237,1.6247,1.6266,1.6257,1.6174,1.5476,1.4901,1.4214,1.3363,1.2789,1.2228,1.2474,1.2728,1.2112,1.1716,1.1622,1.1591,1.1591,1.156,1.1341,1.1083,1.0804,1.0285,0.9764,0.9407,0.8953,0.8436,0.7942,0.7839,0.7573,0.7091,0.6767,0.6256,0.5789,0.5559]}]]